[[{"header":{"parameterUnit":"m.s-1","parameterCategory":1,"la1":30.6,"la2":29.2853,"lo1":-89.7004,"lo2":-87.6739,"dy":0.0162,"dx":0.0183,"nx":112,"ny":82,"refTime":"2025-04-17T12:00:00:Z","depth":0,"parameterNumber":2,"parameterNumberName":"U-component_of_WINDS"},"data":[0.0,0.0,0.0,0.0,0.0,0.0,0.0,0.0,0.0,0.0,0.0,0.0,0.0,0.0,0.0,0.0,0.0,0.0,0.0,0.0,0.0,0.0,0.0,0.0,0.0,0.0,0.0,0.0,0.0,0.0,0.0,0.0,0.0,0.0,0.0,0.0,0.0,0.0,0.0,0.0,0.0,0.0,0.0,0.0,0.0,0.0,0.0,0.0,0.0,0.0,0.0,0.0,0.0,0.0,0.0,0.0,0.0,0.0,0.0,0.0,0.0,0.0,0.0,0.0,0.0,0.0,0.0,0.0,0.0,0.0,0.0,0.0,0.0,0.0,0.0,0.0,0.0,0.0,0.0,0.0,0.0,0.0,0.0,0.0,0.0,0.0,0.0,0.0,0.0,0.0,-4.9299,-5.0869,-5.317,-5.477,-5.5237,-5.3922,-5.1852,-4.9056,0.0,0.0,0.0,0.0,0.0,0.0,0.0,0.0,0.0,0.0,0.0,0.0,0.0,0.0,0.0,0.0,0.0,0.0,0.0,0.0,0.0,0.0,0.0,0.0,0.0,0.0,0.0,0.0,0.0,0.0,0.0,0.0,0.0,0.0,0.0,0.0,0.0,0.0,0.0,0.0,0.0,0.0,0.0,0.0,0.0,0.0,0.0,0.0,0.0,0.0,0.0,0.0,0.0,0.0,0.0,0.0,0.0,0.0,0.0,0.0,0.0,0.0,0.0,0.0,0.0,0.0,0.0,0.0,0.0,0.0,0.0,0.0,0.0,0.0,0.0,0.0,0.0,0.0,0.0,0.0,0.0,0.0,0.0,0.0,0.0,0.0,0.0,0.0,0.0,0.0,0.0,0.0,0.0,0.0,0.0,0.0,0.0,0.0,0.0,0.0,0.0,0.0,0.0,0.0,-4.9603,-5.436,-5.5224,-5.5285,-5.4854,-5.3542,-5.1723,-4.93,0.0,0.0,0.0,0.0,0.0,0.0,0.0,0.0,0.0,0.0,0.0,0.0,0.0,0.0,0.0,0.0,0.0,0.0,0.0,0.0,0.0,0.0,0.0,0.0,0.0,0.0,0.0,0.0,0.0,0.0,0.0,0.0,0.0,0.0,0.0,0.0,0.0,0.0,0.0,0.0,0.0,0.0,0.0,0.0,0.0,0.0,0.0,0.0,0.0,0.0,0.0,0.0,0.0,0.0,0.0,0.0,0.0,0.0,0.0,0.0,0.0,0.0,0.0,0.0,0.0,0.0,0.0,0.0,0.0,0.0,0.0,0.0,0.0,0.0,0.0,0.0,0.0,0.0,0.0,0.0,0.0,0.0,0.0,0.0,0.0,0.0,0.0,0.0,0.0,0.0,0.0,0.0,0.0,0.0,0.0,0.0,0.0,0.0,0.0,0.0,0.0,0.0,0.0,-4.8789,-5.119,-5.4791,-5.5468,-5.5438,-5.4745,-5.3498,-5.1616,-4.9037,-4.7449,0.0,0.0,0.0,0.0,0.0,0.0,0.0,0.0,0.0,0.0,0.0,0.0,0.0,0.0,0.0,0.0,0.0,0.0,0.0,0.0,0.0,0.0,0.0,0.0,0.0,0.0,0.0,0.0,0.0,0.0,0.0,0.0,0.0,0.0,0.0,0.0,0.0,0.0,0.0,0.0,0.0,0.0,0.0,0.0,0.0,0.0,0.0,0.0,0.0,0.0,0.0,0.0,0.0,0.0,0.0,0.0,0.0,0.0,0.0,0.0,0.0,0.0,0.0,0.0,0.0,0.0,0.0,0.0,0.0,0.0,0.0,0.0,0.0,0.0,0.0,0.0,0.0,0.0,0.0,0.0,0.0,0.0,0.0,0.0,0.0,0.0,0.0,0.0,0.0,0.0,0.0,0.0,0.0,0.0,0.0,0.0,0.0,0.0,0.0,0.0,0.0,0.0,-5.119,-5.3129,-5.5007,-5.5653,-5.5622,-5.4745,-5.3498,-5.1528,-4.8789,-4.6818,0.0,0.0,0.0,0.0,0.0,0.0,0.0,0.0,0.0,0.0,0.0,0.0,0.0,0.0,0.0,0.0,0.0,0.0,0.0,0.0,0.0,0.0,0.0,0.0,0.0,0.0,0.0,0.0,0.0,0.0,0.0,0.0,0.0,0.0,0.0,0.0,0.0,0.0,0.0,0.0,0.0,0.0,0.0,0.0,0.0,0.0,0.0,0.0,0.0,0.0,0.0,0.0,0.0,0.0,0.0,0.0,0.0,0.0,0.0,0.0,0.0,0.0,0.0,0.0,0.0,0.0,0.0,0.0,0.0,0.0,0.0,0.0,0.0,0.0,0.0,0.0,0.0,0.0,0.0,0.0,0.0,0.0,0.0,0.0,0.0,0.0,0.0,0.0,0.0,0.0,0.0,0.0,0.0,0.0,0.0,0.0,0.0,0.0,0.0,0.0,0.0,0.0,-5.2113,-5.5068,-5.6532,-5.6717,-5.6146,-5.4806,-5.3498,-5.1528,-4.8789,-4.615,0.0,0.0,0.0,0.0,0.0,0.0,0.0,0.0,0.0,0.0,0.0,0.0,0.0,0.0,0.0,0.0,0.0,0.0,0.0,0.0,0.0,0.0,0.0,0.0,0.0,0.0,0.0,0.0,0.0,0.0,0.0,0.0,0.0,0.0,0.0,0.0,0.0,0.0,0.0,0.0,0.0,0.0,0.0,0.0,0.0,0.0,0.0,0.0,0.0,0.0,0.0,0.0,0.0,0.0,0.0,0.0,0.0,0.0,0.0,0.0,0.0,0.0,0.0,0.0,0.0,0.0,0.0,0.0,0.0,0.0,0.0,0.0,0.0,0.0,0.0,0.0,0.0,0.0,0.0,0.0,0.0,0.0,0.0,0.0,0.0,0.0,0.0,0.0,0.0,0.0,0.0,0.0,0.0,0.0,0.0,0.0,0.0,0.0,0.0,0.0,0.0,0.0,-5.1467,-5.4299,-5.6563,-5.681,-5.6207,-5.4806,-5.3822,-5.1805,-4.8204,0.0,0.0,0.0,0.0,0.0,0.0,0.0,0.0,0.0,0.0,0.0,0.0,0.0,0.0,0.0,0.0,0.0,0.0,0.0,0.0,0.0,0.0,0.0,0.0,0.0,0.0,0.0,0.0,0.0,0.0,0.0,0.0,0.0,0.0,0.0,0.0,0.0,0.0,0.0,0.0,0.0,0.0,0.0,0.0,0.0,0.0,0.0,0.0,0.0,0.0,0.0,0.0,0.0,0.0,0.0,0.0,0.0,0.0,0.0,0.0,0.0,0.0,0.0,0.0,0.0,0.0,0.0,0.0,0.0,0.0,0.0,0.0,0.0,0.0,0.0,0.0,0.0,0.0,0.0,0.0,0.0,0.0,0.0,0.0,0.0,0.0,0.0,0.0,0.0,0.0,0.0,0.0,0.0,0.0,0.0,0.0,0.0,0.0,0.0,0.0,0.0,0.0,-4.8327,-5.1374,-5.4237,-5.6563,-5.6594,-5.5961,-5.4775,-5.3529,-5.1282,-4.7835,0.0,0.0,0.0,0.0,0.0,0.0,0.0,0.0,0.0,0.0,0.0,0.0,0.0,0.0,0.0,0.0,0.0,0.0,0.0,0.0,0.0,0.0,0.0,0.0,0.0,0.0,0.0,0.0,0.0,0.0,0.0,0.0,0.0,0.0,0.0,0.0,0.0,0.0,0.0,0.0,0.0,0.0,0.0,0.0,0.0,0.0,0.0,0.0,0.0,0.0,0.0,0.0,0.0,0.0,0.0,0.0,0.0,0.0,0.0,0.0,0.0,0.0,0.0,0.0,0.0,0.0,0.0,0.0,0.0,0.0,0.0,0.0,0.0,0.0,0.0,0.0,0.0,0.0,0.0,0.0,0.0,0.0,0.0,0.0,0.0,0.0,0.0,0.0,0.0,0.0,0.0,0.0,0.0,0.0,0.0,0.0,0.0,0.0,0.0,0.0,0.0,0.0,-4.8419,-5.213,-5.5253,-5.6656,-5.6115,-5.5438,-5.4745,-5.2236,-4.9805,0.0,0.0,0.0,0.0,0.0,0.0,0.0,0.0,0.0,0.0,0.0,0.0,0.0,0.0,0.0,0.0,0.0,0.0,0.0,0.0,0.0,0.0,0.0,0.0,0.0,0.0,0.0,0.0,0.0,0.0,0.0,0.0,0.0,0.0,0.0,0.0,0.0,0.0,0.0,0.0,0.0,0.0,0.0,0.0,0.0,0.0,0.0,0.0,0.0,0.0,0.0,0.0,0.0,0.0,0.0,0.0,0.0,0.0,0.0,0.0,0.0,0.0,0.0,0.0,0.0,0.0,0.0,0.0,0.0,0.0,0.0,0.0,0.0,0.0,0.0,0.0,0.0,0.0,0.0,0.0,0.0,0.0,0.0,0.0,0.0,0.0,0.0,0.0,0.0,0.0,0.0,0.0,0.0,0.0,0.0,0.0,0.0,0.0,0.0,0.0,0.0,0.0,0.0,-4.7589,-5.1528,-5.4413,-5.5047,-5.5293,-5.5033,-5.4068,-5.199,-4.962,-4.7065,0.0,0.0,0.0,0.0,0.0,0.0,0.0,0.0,0.0,0.0,0.0,0.0,0.0,0.0,0.0,0.0,0.0,0.0,0.0,0.0,0.0,0.0,0.0,0.0,0.0,0.0,0.0,0.0,0.0,0.0,0.0,0.0,0.0,0.0,0.0,0.0,0.0,0.0,0.0,0.0,0.0,0.0,0.0,0.0,0.0,0.0,0.0,0.0,0.0,0.0,0.0,0.0,0.0,0.0,0.0,0.0,0.0,0.0,0.0,0.0,0.0,0.0,0.0,0.0,0.0,0.0,0.0,0.0,0.0,0.0,0.0,0.0,0.0,0.0,0.0,0.0,0.0,0.0,0.0,0.0,0.0,0.0,0.0,0.0,0.0,0.0,0.0,0.0,0.0,0.0,0.0,0.0,0.0,0.0,0.0,0.0,0.0,0.0,0.0,0.0,0.0,0.0,-4.7108,-5.0938,-5.3797,-5.4182,-5.4335,-5.4016,-5.3132,-5.1448,-4.9273,-4.6548,0.0,0.0,0.0,0.0,0.0,0.0,0.0,0.0,0.0,0.0,0.0,0.0,0.0,0.0,0.0,0.0,0.0,0.0,0.0,0.0,0.0,0.0,0.0,0.0,0.0,0.0,0.0,0.0,0.0,0.0,0.0,0.0,0.0,0.0,0.0,0.0,0.0,0.0,0.0,0.0,0.0,0.0,0.0,0.0,0.0,0.0,0.0,0.0,0.0,0.0,0.0,0.0,0.0,0.0,0.0,0.0,0.0,0.0,0.0,0.0,0.0,0.0,0.0,0.0,0.0,0.0,0.0,0.0,0.0,0.0,0.0,0.0,0.0,0.0,0.0,0.0,0.0,0.0,0.0,0.0,0.0,0.0,0.0,0.0,0.0,0.0,0.0,0.0,0.0,0.0,0.0,0.0,0.0,0.0,0.0,0.0,0.0,0.0,0.0,0.0,0.0,0.0,-4.6811,-5.0409,-5.3139,-5.3732,-5.3247,-5.2609,-5.1957,-5.0605,-4.8723,-4.6184,0.0,0.0,0.0,0.0,0.0,0.0,0.0,0.0,0.0,0.0,0.0,0.0,0.0,0.0,0.0,0.0,0.0,0.0,0.0,0.0,0.0,0.0,0.0,0.0,0.0,0.0,0.0,0.0,0.0,0.0,0.0,0.0,0.0,0.0,0.0,0.0,0.0,0.0,0.0,0.0,0.0,0.0,0.0,0.0,0.0,0.0,0.0,0.0,0.0,0.0,0.0,0.0,0.0,0.0,0.0,0.0,0.0,0.0,0.0,0.0,-4.9726,-4.9466,0.0,0.0,0.0,0.0,0.0,0.0,0.0,0.0,0.0,0.0,0.0,0.0,0.0,0.0,0.0,0.0,0.0,0.0,0.0,0.0,0.0,0.0,0.0,0.0,0.0,0.0,0.0,0.0,0.0,0.0,0.0,0.0,0.0,0.0,0.0,0.0,0.0,0.0,0.0,0.0,-4.5886,-4.9704,-5.2304,-5.2148,-5.1967,-5.1727,-5.1243,-4.9482,-4.7733,-4.6123,-4.3783,0.0,0.0,0.0,0.0,0.0,0.0,0.0,0.0,0.0,0.0,0.0,0.0,0.0,0.0,0.0,0.0,0.0,0.0,0.0,0.0,0.0,0.0,0.0,0.0,0.0,0.0,0.0,0.0,0.0,0.0,0.0,0.0,0.0,0.0,0.0,0.0,0.0,0.0,0.0,0.0,0.0,0.0,0.0,0.0,0.0,0.0,0.0,0.0,0.0,0.0,0.0,0.0,0.0,0.0,0.0,0.0,0.0,0.0,0.0,-5.0859,-5.0289,0.0,0.0,0.0,0.0,0.0,0.0,0.0,0.0,0.0,0.0,0.0,0.0,0.0,0.0,0.0,0.0,0.0,0.0,0.0,0.0,0.0,0.0,0.0,0.0,0.0,0.0,0.0,0.0,0.0,0.0,0.0,0.0,0.0,0.0,0.0,0.0,0.0,0.0,0.0,0.0,-4.5848,-4.903,-5.1306,-5.1416,-5.1116,-5.0711,-5.0261,-4.8933,-4.7576,-4.6207,-4.4327,0.0,0.0,0.0,0.0,0.0,0.0,0.0,0.0,0.0,0.0,0.0,0.0,0.0,0.0,0.0,0.0,0.0,0.0,0.0,0.0,0.0,0.0,0.0,0.0,0.0,0.0,0.0,0.0,0.0,0.0,0.0,0.0,0.0,0.0,0.0,0.0,0.0,0.0,0.0,0.0,0.0,0.0,0.0,0.0,0.0,0.0,0.0,0.0,0.0,0.0,0.0,0.0,0.0,-5.3408,-5.3771,-5.4147,-5.4147,-5.4207,-5.4207,-5.2544,-5.1652,-5.1349,-5.0561,0.0,0.0,0.0,0.0,0.0,0.0,0.0,0.0,0.0,0.0,0.0,0.0,0.0,0.0,0.0,0.0,0.0,0.0,0.0,0.0,0.0,0.0,-4.7249,-4.7578,-4.7728,-4.7096,-4.4418,0.0,0.0,0.0,0.0,0.0,0.0,0.0,0.0,0.0,0.0,0.0,-4.6352,-4.8731,-5.0584,-5.1169,-5.0495,-4.9853,-4.9359,-4.8566,-4.7608,-4.6411,-4.5188,-4.3777,0.0,0.0,0.0,0.0,0.0,0.0,0.0,0.0,0.0,0.0,0.0,0.0,0.0,0.0,0.0,0.0,0.0,0.0,0.0,0.0,0.0,0.0,0.0,0.0,0.0,0.0,0.0,0.0,0.0,0.0,0.0,0.0,-5.2729,-5.3498,0.0,0.0,0.0,0.0,0.0,0.0,0.0,0.0,0.0,0.0,0.0,0.0,0.0,-5.1956,-5.2486,-5.4352,-5.4952,-5.4285,-5.554,-5.5742,-5.504,-5.504,-5.534,-5.5849,-5.561,0.0,-5.3442,-5.2138,0.0,0.0,0.0,0.0,0.0,0.0,0.0,0.0,0.0,0.0,0.0,0.0,0.0,0.0,0.0,0.0,0.0,0.0,0.0,0.0,0.0,0.0,-5.0301,-4.9254,-4.9434,-4.9434,-4.7935,-4.5897,-4.4128,-4.3159,-4.2719,-4.2359,0.0,0.0,0.0,0.0,0.0,0.0,-4.707,-4.9464,-5.1109,-5.1199,-5.0122,-4.9419,-4.9329,-4.8147,-4.713,-4.6339,-4.5065,-4.4008,-4.3365,-4.1113,0.0,0.0,0.0,0.0,0.0,0.0,0.0,0.0,0.0,0.0,0.0,0.0,0.0,0.0,0.0,0.0,0.0,0.0,0.0,0.0,0.0,0.0,0.0,0.0,0.0,0.0,0.0,0.0,0.0,-5.2236,-5.3375,-5.3683,-5.3714,-5.356,0.0,0.0,0.0,0.0,0.0,0.0,0.0,0.0,0.0,-5.2516,-5.3041,-5.3821,-5.4729,-5.5932,-5.6934,-5.7641,-5.8294,-5.8518,-5.853,-5.853,-5.868,-5.8919,-5.853,-5.7768,-5.6624,-5.4187,-5.2868,-5.2225,0.0,0.0,0.0,0.0,-4.9114,-4.9283,-4.9734,-5.0065,-5.0186,-4.9433,0.0,0.0,0.0,0.0,0.0,0.0,0.0,-4.8865,-4.8925,-5.0361,-5.1708,-5.1498,-5.1678,-5.1648,-5.069,-4.9284,-4.7549,-4.5382,-4.5095,-4.4556,-4.271,-4.2432,0.0,0.0,0.0,-4.6681,-4.7728,-4.9494,-5.0764,-5.1169,-5.0062,-4.9299,-4.9299,-4.8057,-4.6943,-4.6094,-4.5637,-4.4638,-4.2936,-4.1642,-4.0255,0.0,0.0,0.0,0.0,0.0,0.0,0.0,0.0,0.0,0.0,0.0,0.0,0.0,0.0,0.0,0.0,0.0,0.0,0.0,0.0,0.0,0.0,0.0,0.0,0.0,0.0,0.0,0.0,-5.3006,-5.3991,-5.3991,-5.4114,-5.3899,0.0,0.0,0.0,0.0,0.0,0.0,-5.3908,-5.3867,-5.4068,-5.4507,-5.527,-5.6191,-5.7206,-5.7812,-5.886,-6.0356,-6.0356,-6.0625,-6.1104,-6.1104,-6.1104,-6.1074,-6.0386,-5.9817,-5.9099,-5.5987,-5.4411,-5.3747,-5.1961,-5.1269,-5.1269,-5.1269,-5.1249,-5.1362,-5.2366,-5.2725,-5.2576,-5.1768,-5.0062,-4.8057,-4.6711,0.0,0.0,0.0,0.0,-5.0122,-5.0601,-5.1738,-5.2737,-5.2743,-5.2902,-5.2842,-5.2189,-5.1606,-5.0513,-4.782,-4.7459,-4.6711,-4.4118,-4.4018,0.0,-4.3728,-4.5603,-4.7489,-4.8626,-4.9747,-5.0644,-5.1169,-5.0062,-4.9299,-4.9299,-4.7807,-4.6594,-4.5824,-4.5771,-4.4821,-4.2666,-4.2252,-4.0925,-3.8458,0.0,0.0,0.0,0.0,0.0,0.0,0.0,0.0,0.0,0.0,0.0,0.0,0.0,0.0,0.0,0.0,0.0,0.0,0.0,0.0,0.0,0.0,0.0,0.0,0.0,0.0,0.0,0.0,0.0,-5.4621,-5.5222,0.0,0.0,0.0,0.0,-5.4216,-5.4526,-5.5019,-5.5717,-5.6134,-5.6615,-5.7278,-5.8331,-5.9189,-5.9877,-6.0565,-6.0954,-6.1074,-6.1074,-6.1074,-6.1104,-6.1104,-6.1104,-6.1074,-6.0386,-6.0057,-5.9817,-5.7154,-5.5739,-5.499,-5.3612,-5.3073,-5.3073,-5.3073,-5.3443,-5.4012,-5.4102,-5.4102,-5.4192,-5.476,-5.3174,-5.078,-4.9509,-4.912,0.0,0.0,-5.0062,-5.2067,-5.2097,-5.3084,-5.3675,-5.1975,-5.2013,-5.2304,-5.1664,-5.149,-5.1207,-5.019,-4.9075,-4.7997,-4.7189,0.0,-4.71,-4.707,-4.8237,-4.9374,-5.0016,-5.0704,-5.1169,-5.1229,-5.0062,-4.9299,-4.9299,-4.7197,-4.5824,-4.5779,-4.4932,-4.4021,-4.3266,-4.2638,-4.1711,-4.0405,-3.7982,0.0,0.0,0.0,0.0,0.0,0.0,0.0,0.0,0.0,0.0,0.0,0.0,0.0,0.0,0.0,0.0,0.0,0.0,0.0,0.0,0.0,0.0,0.0,0.0,0.0,0.0,0.0,0.0,-5.5643,-5.6317,0.0,-5.5219,-5.4879,-5.5043,-5.5925,-5.5981,-5.6617,-5.8127,-5.8587,-5.9087,-5.9777,-6.0201,-6.0715,-6.1373,-6.1613,-6.1972,-6.2391,-6.2391,-6.2391,-6.2391,-6.2391,-6.2391,-6.2331,-6.1224,-6.0745,-6.0595,-5.88,-5.7663,-5.6944,-5.5628,-5.5119,-5.5119,-5.5119,-5.5269,-5.5538,-5.5927,-5.6077,-5.5897,-5.488,-5.3324,-5.1678,-5.078,-5.0312,-5.0151,-5.0683,-5.1023,-5.143,-5.2142,-5.2426,-5.2459,-5.1779,-5.1786,-5.1786,-5.1108,-5.0966,-5.0758,-5.0032,-5.0026,-4.9703,-4.8207,-4.8297,-4.8267,-4.7429,-4.8775,-4.9972,-5.0166,-5.0764,-5.1229,-5.1229,-4.9449,-4.8358,-4.8358,-4.6166,-4.4591,-4.3909,-4.4172,-4.359,-4.2086,-4.1731,-4.085,-3.9382,-3.7354,-3.588,0.0,0.0,0.0,0.0,0.0,0.0,0.0,0.0,0.0,0.0,0.0,0.0,0.0,0.0,0.0,0.0,0.0,0.0,0.0,0.0,0.0,0.0,0.0,0.0,0.0,-5.4465,-5.5503,-5.6506,-5.7323,-5.7436,-5.6323,-5.6375,-5.6809,-5.7686,-5.7518,-5.8076,-5.9609,-5.9956,-6.0416,-6.1104,-6.1343,-6.1762,-6.2421,-6.2421,-6.266,-6.3079,-6.3079,-6.3079,-6.3079,-6.2839,-6.2869,-6.2989,-6.1433,-6.0894,-6.1014,-5.9668,-5.886,-5.8351,-5.7513,-5.7154,-5.7154,-5.7154,-5.7154,-5.7184,-5.7363,-5.7453,-5.7154,-5.5418,-5.4251,-5.3384,-5.2486,-5.1857,-5.1599,-5.2093,-5.1655,-5.1192,-5.199,-5.1903,-5.1565,-5.1182,-5.1072,-5.0961,-5.0517,-5.0434,-5.0348,-5.0057,-5.0248,-4.993,-4.8436,-4.8571,-4.8622,-4.7835,-4.8698,-4.9574,-4.9934,-5.0052,-5.0095,-5.0095,-4.8354,-4.7223,-4.7223,-4.511,-4.3511,-4.284,-4.2938,-4.2397,-4.106,-4.0532,-3.9674,-3.8449,-3.6724,-3.526,-3.411,0.0,0.0,0.0,0.0,0.0,0.0,0.0,0.0,0.0,0.0,0.0,0.0,0.0,0.0,0.0,0.0,0.0,0.0,0.0,0.0,0.0,0.0,0.0,-5.3254,-5.4909,-5.6302,-5.7281,-5.8297,-5.8447,-5.7152,-5.8549,-5.9536,-5.9536,-5.9321,-5.9458,-6.0086,-6.0116,-6.0446,-6.1134,-6.1762,-6.2421,-6.3079,-6.3079,-6.3079,-6.3079,-6.3079,-6.3079,-6.3049,-6.2421,-6.248,-6.2959,-6.1014,-6.0505,-6.1014,-5.9697,-5.9159,-5.9129,-5.9129,-5.9099,-5.9099,-5.9099,-5.9099,-5.9009,-5.8381,-5.8112,-5.7872,-5.6615,-5.6218,-5.5897,-5.464,-5.3802,-5.3216,-5.2607,-5.2027,-5.1565,-5.162,-5.162,-5.1292,-5.0126,-4.9872,-4.9872,-4.9872,-4.9872,-5.0019,-5.0539,-4.9662,-4.8654,-4.806,-4.7971,-4.8119,-4.8548,-4.8247,0.0,-4.9415,-4.8646,-4.8016,-4.8016,-4.682,-4.6041,-4.6041,-4.4056,-4.2744,-4.2716,-4.1285,-4.0409,-4.0409,-3.9311,-3.8449,-3.7926,-3.6227,-3.4789,-3.3666,0.0,0.0,0.0,0.0,0.0,0.0,0.0,0.0,0.0,0.0,0.0,0.0,0.0,0.0,0.0,0.0,0.0,0.0,0.0,0.0,0.0,-5.2772,-5.3965,-5.5086,-5.6039,-5.7183,-5.8715,-5.9546,-6.0012,-5.9945,-6.0401,-6.0676,-6.0676,-6.0621,-6.0655,-6.0835,-6.0835,-6.1134,-6.1792,-6.2002,-6.2421,-6.3079,-6.3079,-6.3079,-6.3079,-6.3079,-6.3079,-6.3079,-6.2899,-6.2899,-6.3019,-6.2002,-6.1373,-6.1074,-6.0715,-6.0266,-5.9757,-5.9279,-5.9099,-5.9099,-5.9099,-5.9099,-5.9069,-5.889,-5.8201,-5.7334,-5.6944,-5.6226,-5.5388,-5.5029,-5.361,-5.2295,-5.2919,-5.1207,-4.9331,-5.0182,-4.9759,-4.9072,-4.8726,-4.8669,-4.8669,-4.8669,-4.8669,-4.8731,-4.8859,-4.8276,-4.7918,-4.8503,-4.8302,-4.801,-4.8141,-4.8054,-4.8117,-4.8396,-4.8167,-4.8016,-4.8016,-4.6223,-4.5007,-4.5007,-4.2954,-4.1535,-4.1112,-4.0634,-4.0409,-4.0409,-3.9311,-3.8449,-3.7926,-3.7011,-3.6175,0.0,0.0,0.0,0.0,0.0,0.0,0.0,0.0,0.0,0.0,0.0,0.0,0.0,0.0,0.0,0.0,0.0,0.0,0.0,0.0,0.0,0.0,-5.4285,-5.5752,-5.7058,-5.757,-5.8324,-5.9771,-6.0686,-6.1241,-6.1493,-6.1762,-6.1822,-6.1553,-6.1283,-6.0984,-6.0715,-6.0416,-6.0715,-6.1642,-6.1672,-6.2121,-6.3079,-6.3079,-6.3079,-6.3079,-6.3079,-6.3079,-6.3079,-6.278,-6.281,-6.3019,-6.2091,-6.1613,-6.1493,-6.1224,-6.0864,-6.0446,0.0,0.0,0.0,0.0,-5.9099,-5.9045,-5.8495,-5.7651,-5.6681,-5.585,-5.5248,-5.4768,-5.4218,-5.2927,-5.1785,-5.2202,-5.0344,-4.8347,-4.8988,-4.8726,-4.8172,-4.8172,-4.8172,-4.8172,-4.8172,-4.8172,-4.8172,-4.8172,-4.7728,0.0,-4.7812,-4.7399,-4.7065,-4.7308,-4.6919,-4.6816,-4.728,-4.6919,-4.6608,-4.6608,-4.498,-4.3924,-4.3924,-4.2306,0.0,0.0,0.0,-4.0095,-3.939,-3.8475,0.0,0.0,0.0,0.0,0.0,-3.7246,0.0,0.0,-3.4972,-3.5208,0.0,0.0,0.0,0.0,0.0,0.0,0.0,0.0,0.0,0.0,0.0,0.0,0.0,0.0,0.0,0.0,-5.569,-5.7094,-5.9069,-5.9398,-5.9777,-6.0566,-6.1541,-6.2121,-6.2211,-6.272,-6.278,-6.2032,-6.1433,-6.0775,-6.0027,-5.9428,0.0,0.0,0.0,-6.1583,-6.2839,-6.2839,-6.2839,-6.2839,-6.2839,-6.2839,-6.2839,-6.2331,-6.2421,-6.2899,-6.1822,-6.1613,-6.2061,-6.1553,-6.1283,-6.1134,-6.0386,-6.0031,-5.9832,-5.9121,-5.8798,-5.8525,-5.7384,0.0,0.0,-5.4036,-5.3772,-5.3881,-5.2795,-5.2071,-5.1488,-5.1056,-4.9631,-4.8277,-4.8277,-4.8224,-4.8172,-4.8172,-4.8172,-4.8172,-4.8172,-4.8172,-4.8172,-4.8172,-4.778,-4.7231,-4.6578,-4.6003,-4.5731,-4.6166,-4.5342,-4.51,-4.6058,-4.5342,-4.4668,-4.4668,-4.3702,0.0,-4.3023,-4.1977,-4.1298,-4.1219,-4.0723,-3.973,-3.8161,-3.7639,-3.7612,-3.8083,-3.8083,-3.8606,-3.9599,-3.9599,-3.9364,-3.8867,-3.7168,-3.722,0.0,0.0,0.0,0.0,0.0,0.0,0.0,0.0,0.0,0.0,0.0,0.0,0.0,0.0,0.0,-5.6495,-5.7371,-5.8441,-6.0446,-6.1194,-6.1553,-6.1759,-6.1998,-6.2301,-6.2839,-6.2989,-6.26,-6.1403,-6.1194,-6.0595,-5.9368,-5.9189,-5.9458,-6.0266,-6.0266,-6.0685,-6.1493,-6.1493,-6.1493,-6.1493,-6.1493,0.0,-6.1493,-6.1912,-6.2181,-6.2301,-6.257,-6.248,-6.2121,-6.254,-6.2391,-6.1792,-6.0565,-5.9503,-5.8487,-5.7786,-5.6934,-5.6079,-5.5848,-5.4997,-5.4007,-5.3613,-5.2937,-5.2283,-5.2461,-5.1821,0.0,-5.1394,-5.0244,-4.8904,-4.8904,-4.8538,-4.8172,-4.8172,-4.8172,-4.8172,-4.8172,-4.8172,-4.8172,-4.8172,-4.8094,-4.7702,-4.6656,-4.6003,-4.5483,-4.5071,-4.483,-4.4776,-4.4992,-4.483,-4.4668,-4.4668,-4.3702,-4.3023,-4.3023,-4.1977,-4.1115,-4.0618,-4.0488,-4.0069,-3.9311,-3.9599,-3.9599,-3.9285,-3.9285,-3.939,-3.9599,-3.9599,-3.9782,-4.0043,-3.8789,-3.8397,0.0,0.0,0.0,0.0,0.0,0.0,0.0,0.0,0.0,0.0,0.0,-5.2134,-5.3434,0.0,-5.593,-5.7941,-5.9003,-6.0086,-6.1403,-6.1882,-6.2091,-6.2091,-6.2391,-6.272,-6.3049,-6.3079,-6.254,-6.1224,-6.1104,-6.0535,-5.9189,-5.9099,-5.9398,-6.0057,-6.0086,-6.0416,-6.1104,-6.1104,-6.1104,-6.1104,-6.1104,-6.1104,-6.1134,-6.1463,-6.1613,-6.1613,-6.1942,-6.1912,-6.1642,-6.1972,-6.1719,-6.1024,-5.964,-5.8771,-5.8116,-5.7448,-5.6423,-5.5295,-5.4679,-5.3641,-5.2561,-5.1925,-5.1279,-5.085,-5.1102,-5.101,-5.0868,-5.1136,-5.0194,-4.9087,-4.9087,-4.8643,-4.8172,-4.8172,-4.8172,-4.8172,-4.8172,-4.8172,-4.8172,-4.8172,-4.8172,-4.7832,-4.6682,-4.6238,-4.5741,-4.4853,-4.4668,-4.4668,-4.4668,-4.4668,-4.4668,-4.4668,-4.3964,-4.3337,-4.3049,-4.1977,-4.1193,-4.088,-4.0592,-4.0305,-4.0017,-4.0017,-4.0017,-4.0017,-4.0017,-4.0174,-4.0461,-4.0461,-4.0592,-4.0853,-4.0278,-4.0017,0.0,0.0,0.0,0.0,0.0,0.0,0.0,-5.0947,-5.1271,-5.2229,-5.2903,-5.3796,-5.5511,-5.674,-5.7932,-5.9279,-6.0505,-6.1523,-6.2181,-6.2301,-6.2301,-6.2301,-6.275,-6.3079,-6.3079,-6.3079,-6.254,-6.1224,-6.1104,-6.0535,-5.9189,-5.9099,-5.9338,-5.9877,-5.9907,-6.0176,-6.0715,-6.0715,-6.0715,-6.0715,-6.0715,-6.0715,-6.0715,-6.0864,-6.0924,-6.0924,-6.1044,-6.1104,-6.1104,-6.1104,-6.0808,-6.0238,-5.9069,-5.8431,-5.8059,-5.6909,-5.5704,-5.4501,-5.351,-5.2365,-5.1277,-5.0232,-4.9711,-4.9576,-4.9699,-5.0168,-5.0617,-5.0777,-5.0054,-4.9244,-4.9244,-4.8721,-4.8172,-4.8172,-4.8172,-4.8172,-4.8172,-4.8172,-4.8172,-4.8172,-4.8172,-4.7832,-4.6682,-4.6473,-4.6081,-4.4905,-4.4668,-4.4668,-4.4668,-4.4668,-4.4668,-4.4668,-4.4225,-4.3598,-4.2918,-4.1953,-4.1378,-4.1324,-4.0853,-4.0592,-4.0592,-4.0174,-4.0148,-4.0592,-4.0592,-4.0827,-4.1324,-4.1324,-4.1324,-4.1324,-4.1324,-4.1324,-5.0082,-4.9558,-4.9866,-5.1159,-5.1467,-5.1761,0.0,-5.3251,-5.3654,-5.4201,-5.51,-5.6008,-5.6787,-5.7962,-5.9308,-6.0655,-6.1493,-6.2211,-6.2869,-6.2959,-6.2959,-6.2959,-6.3019,-6.3079,-6.3079,-6.3079,-6.254,-6.1224,-6.1104,-6.0535,-5.9189,-5.9099,-5.9129,-5.9219,-5.9219,-5.9249,-5.9338,-5.9338,-5.9338,-5.9338,-5.9338,-5.9338,-5.9338,-5.9937,-6.0206,-6.0236,-6.0835,-6.1104,-6.1104,-6.1104,-6.1052,-6.0909,-6.019,-5.9194,-5.783,-5.496,-5.3146,-5.2006,-5.1846,-5.1084,-5.0052,-4.9958,-4.9232,-4.8478,-4.9042,-4.9573,-5.0104,-5.0664,-5.0315,-4.9793,-4.9793,-4.8982,-4.8172,-4.8172,-4.8172,-4.8172,-4.8172,-4.8172,-4.8172,-4.8172,-4.8172,-4.7832,-4.6682,-4.6473,-4.6081,-4.4905,-4.4668,-4.4668,-4.4668,-4.4668,-4.4668,-4.4668,-4.4225,-4.3494,-4.2395,-4.1878,-4.1542,-4.13,-4.1246,-4.1219,-4.1219,-4.1167,-4.1167,-4.1219,-4.1219,-4.1246,-4.1324,-4.1324,-4.1324,-4.1324,-4.1324,-4.1324,-5.0605,-5.0851,-5.159,-5.2144,-5.2575,-5.3131,-5.4249,-5.4787,-5.5213,-5.5661,-5.6912,-5.7962,-5.8231,-5.9668,-6.1044,-6.1583,-6.2241,-6.275,-6.3049,-6.3079,-6.2929,-6.254,-6.251,-6.266,-6.3049,-6.3079,-6.254,-6.1224,-6.1104,-6.0535,-5.9189,-5.9099,-5.9099,-5.9099,-5.9099,-5.9099,-5.9099,-5.9099,-5.9099,-5.9099,-5.9099,-5.9099,-5.9129,-5.9398,-5.9518,-5.9518,-5.9817,-6.0176,-6.0475,-6.0116,-5.9759,-5.9323,-5.8702,-5.7196,-5.5367,-5.4849,-5.3784,-5.257,-5.1478,-5.0577,-4.9845,-4.9531,-4.8852,-4.8303,-4.8904,-4.9244,-4.961,-5.0524,-5.0132,-4.9505,-4.9819,-4.9035,-4.8172,-4.8172,-4.8172,-4.8172,-4.8172,-4.8172,-4.8172,-4.8172,-4.8172,-4.7832,-4.6682,-4.6473,-4.6081,-4.4905,-4.4668,-4.4668,-4.4668,-4.4668,-4.4613,-4.4476,-4.3795,-4.3251,-4.2918,-4.2164,-4.1749,-4.1821,-4.1507,-4.1324,-4.1324,-4.1324,-4.1324,-4.1324,-4.1324,-4.1324,-4.1324,-4.1324,-4.1324,-4.1324,-4.1324,-4.1324,-5.1282,-5.1959,-5.2852,-5.3406,-5.4176,-5.5052,-5.5892,-5.656,-5.7092,-5.7423,-5.8677,-5.9727,-5.9907,-6.1104,-6.2151,-6.2331,-6.278,-6.3079,-6.3079,-6.2929,-6.263,-6.2151,-6.1942,-6.2002,-6.248,-6.254,-6.2151,-6.1194,-6.0954,-6.0326,-5.9159,-5.9099,-5.9099,-5.9099,-5.9099,-5.9099,-5.9099,-5.9099,-5.9099,-5.9099,-5.9099,-5.9099,-5.9099,-5.9099,-5.9099,-5.9099,-5.9099,-5.9368,-5.9787,-5.9308,-5.8847,-5.8422,-5.7924,-5.6394,-5.4592,-5.515,-5.4299,-5.2574,-5.1286,-5.0289,-4.961,-4.9218,-4.8669,-4.8277,-4.8695,-4.8956,-4.9244,-5.008,-4.9714,-4.9165,-4.9557,-4.893,-4.8172,-4.8172,-4.8172,-4.8172,-4.8172,-4.8172,-4.8172,-4.8055,-4.8055,-4.769,-4.6456,-4.6247,-4.5857,-4.4632,-4.4476,-4.4531,-4.4668,-4.4668,-4.4559,-4.4203,-4.3624,-4.3236,-4.3272,-4.2524,-4.2035,-4.1982,-4.1667,-4.143,-4.1224,-4.1274,-4.1274,-4.1198,-4.1274,-4.1274,-4.1198,-4.1274,-4.1274,-4.1198,-4.1198,-4.1302,-5.2298,-5.2698,-5.3191,-5.513,-5.6638,-5.7654,-5.7715,-5.8767,-5.9781,-5.9811,-6.047,-6.1253,-6.1882,-6.2061,-6.2301,-6.2929,-6.3079,-6.3079,-6.3079,-6.254,-6.2121,-6.2091,-6.1523,-6.1164,-6.1164,-6.1164,-6.1164,-6.1104,-6.0505,-5.9817,-5.9129,-5.9099,-5.9099,-5.9099,-5.9099,-5.9099,-5.9099,-5.9099,-5.9099,-5.9099,-5.9099,-5.9099,-5.9099,-5.9099,-5.9099,-5.9099,-5.9099,-5.9129,-5.9129,-5.9129,-5.9099,-5.9075,-5.9045,-5.8276,-5.6962,-5.579,-5.3457,-5.0874,-5.0786,-5.0054,-4.9113,-4.9087,-4.8669,-4.8172,-4.8198,-4.8616,-4.9087,-4.9139,-4.9113,-4.9087,-4.9113,-4.8643,-4.8172,-4.8172,-4.8172,-4.8172,-4.8172,-4.8172,-4.8114,-4.7762,-4.7703,-4.7283,-4.5885,-4.5622,-4.5238,-4.4134,-4.3899,-4.4094,-4.4613,-4.4668,-4.4531,-4.3955,-4.3874,-4.3643,-4.3054,-4.2977,-4.249,-4.1414,-4.1853,-4.1771,-4.0972,-4.1147,-4.1147,-4.0946,-4.1147,-4.1147,-4.0896,-4.1147,-4.1147,-4.0896,-4.0896,-4.1257,-5.2698,-5.3683,-5.5068,-5.6669,-5.7746,-5.867,-5.9562,-6.0328,-6.089,-6.089,-6.1159,-6.1292,-6.1082,-6.1246,-6.1672,-6.2331,-6.2421,-6.257,-6.3019,-6.2899,-6.2421,-6.1553,-6.1253,-6.0924,-6.0475,-6.1253,-6.1403,-6.0505,-6.0655,-6.0296,-5.9159,-5.9099,-5.9099,-5.9099,-5.9099,-5.9099,-5.9099,-5.9099,-5.9099,-5.9099,-5.9099,-5.9099,-5.9099,-5.9099,-5.9099,-5.9099,-5.9099,-5.9099,-5.9099,-5.9099,-5.9099,-5.9099,-5.9099,-5.8331,-5.7046,-5.5424,-5.3389,-5.1362,-5.0488,-4.9714,-4.9008,-4.8616,-4.8355,-4.8172,-4.8172,-4.8329,-4.8564,-4.8982,-4.8799,-4.859,-4.8982,-4.8643,-4.8172,-4.8172,-4.8172,-4.8172,-4.8172,-4.8172,-4.8114,-4.7762,-4.7703,-4.7283,-4.5828,-4.5565,-4.5181,-4.4079,-4.3899,-4.3955,-4.4148,-4.3958,-4.3793,-4.3572,-4.3432,-4.33,-4.3263,-4.2907,-4.2659,-4.2437,-4.2264,-4.2085,-4.2035,-4.2087,-4.219,-4.2293,-4.219,-4.219,-4.2293,-4.219,-4.219,-4.2293,-4.2293,-4.2294,-5.3714,-5.5253,-5.7131,-5.8516,-5.9532,-6.0455,-6.1317,-6.166,-6.1691,-6.1447,-6.1055,-6.0675,-6.0253,-5.9861,-6.0146,-6.1523,-6.1523,-6.1762,-6.2929,-6.266,-6.2061,-6.1224,-6.0685,-6.0236,-5.9787,-6.0745,-6.1014,-6.0146,-6.0266,-6.0027,-5.9159,-5.9099,-5.9099,-5.9099,-5.9099,-5.9099,-5.9099,-5.9099,-5.9099,-5.9099,-5.9099,-5.9099,-5.9099,-5.9099,-5.9099,-5.9099,-5.9099,-5.9099,-5.9099,-5.9099,-5.9099,-5.9045,-5.8634,-5.7547,-5.6079,-5.4424,-5.2568,-5.0746,-4.9883,-4.9244,-4.8695,-4.8303,-4.8172,-4.8172,-4.8172,-4.8172,-4.8277,-4.8643,-4.8486,-4.8277,-4.8669,-4.8486,-4.8172,-4.8172,-4.8172,-4.8172,-4.8172,-4.8114,-4.7938,-4.756,-4.7468,-4.6931,-4.5457,-4.4948,-4.4438,-4.3725,-4.3543,-4.3598,-4.3708,-4.3653,-4.3517,-4.3295,-4.3184,-4.3184,-4.324,-4.3022,-4.2852,-4.2703,-4.2509,-4.2387,-4.2288,-4.2525,-4.2604,-4.2709,-4.2604,-4.2657,-4.2866,-4.2657,-4.2657,-4.2866,-4.2866,-4.2813,-5.5315,-5.7346,-5.9193,-6.0578,-6.1871,-6.2825,-6.2825,-6.261,-6.2181,-6.1477,-6.0297,-5.9409,-5.9349,-5.8061,-5.7962,-6.0595,-6.0505,-6.0835,-6.281,-6.2002,-6.1194,-6.1164,-5.9997,-5.9189,-5.9159,-5.9697,-6.0027,-6.0027,-5.9488,-5.9129,-5.9099,-5.9099,-5.9099,-5.9099,-5.9099,-5.9099,-5.9099,-5.9099,-5.9099,-5.9099,-5.9099,-5.9099,-5.9099,-5.9099,-5.9099,-5.9099,-5.9099,-5.9099,-5.9099,-5.9069,-5.9069,-5.8931,-5.7716,-5.6162,-5.4486,-5.3155,-5.1299,-4.9357,-4.9213,-4.8728,-4.8172,-4.8172,-4.8172,-4.8172,-4.8172,-4.8172,-4.8172,-4.8172,-4.8172,-4.8172,-4.8172,-4.8172,-4.8172,-4.8172,-4.8172,-4.8172,-4.8172,-4.7938,-4.756,-4.7265,-4.6909,-4.6256,-4.4819,-4.3714,-4.2986,-4.2986,-4.2986,-4.3073,-4.3351,-4.3653,-4.3623,-4.3042,-4.324,-4.3295,-4.3042,-4.324,-4.3068,-4.2288,-4.2729,-4.2662,-4.1833,-4.2338,-4.255,-4.2259,-4.255,-4.2655,-4.2656,-4.2655,-4.2655,-4.2656,-4.2656,-4.2808,-5.7592,-5.9131,-6.0609,-6.1963,-6.2579,-6.2825,-6.2825,-6.2372,-6.159,-6.0184,-5.911,-5.801,-5.6807,-5.6882,-5.7663,-5.9338,-6.0296,-6.1373,-6.2869,-6.278,-6.2391,-6.1912,-6.1104,-6.0386,-5.9877,-5.9548,-5.9338,-5.9338,-5.9668,-5.9608,-5.9129,-5.9099,-5.9099,-5.9099,-5.9099,-5.9099,-5.9099,-5.9099,-5.9099,-5.9099,-5.9099,-5.9099,-5.9099,-5.9099,-5.9099,-5.9099,-5.9099,-5.9099,-5.9069,-5.859,-5.8381,-5.8268,-5.7464,-5.6871,-5.6207,-5.4576,-5.3547,-5.2766,-5.0479,-4.9006,-4.8172,-4.8172,-4.8172,-4.8172,-4.8172,-4.8172,-4.8172,-4.8172,-4.8172,-4.8172,-4.8172,-4.8172,-4.8172,-4.8172,-4.8172,-4.8172,-4.8172,-4.7938,-4.756,-4.7265,-4.607,-4.5028,-4.4669,-4.3714,-4.2986,-4.2986,-4.2986,-4.3042,-4.3073,-4.3209,-4.3154,-4.3042,-4.3073,-4.3073,-4.3042,-4.3073,-4.3022,-4.2841,-4.2927,-4.2962,-4.2975,-4.3085,-4.3274,-4.3464,-4.3274,-4.3329,-4.3573,-4.3329,-4.3413,-4.3873,-4.3873,-4.3787,-5.9285,-6.0886,-6.2302,-6.3071,-6.3256,-6.3102,-6.2517,-6.1625,-6.0403,-5.8491,-5.709,-5.5929,-5.4907,-5.511,-5.6107,-5.8321,-5.9548,-6.0894,-6.281,-6.2839,-6.251,-6.2151,-6.1253,-6.0505,-6.0116,-5.9488,-5.9099,-5.9099,-5.9458,-5.9488,-5.9129,-5.9099,-5.9099,-5.9099,-5.9099,-5.9099,-5.9099,-5.9099,-5.9099,-5.9099,-5.9099,-5.9099,-5.9099,-5.9099,-5.9099,-5.9099,-5.9099,-5.8949,-5.865,-5.8291,-5.7932,-5.758,-5.6634,-5.6149,-5.5666,-5.3623,-5.2625,-5.2124,-4.9924,-4.8726,-4.8172,-4.8172,-4.8172,-4.8172,-4.8172,-4.8172,-4.8172,-4.8172,-4.8172,-4.8172,-4.8172,-4.8172,-4.8172,-4.8172,-4.8172,-4.8172,-4.8172,-4.7938,-4.7586,-4.7112,-4.5952,-4.492,-4.4669,-4.3915,-4.3263,-4.3011,-4.2986,-4.2986,-4.2986,-4.2986,-4.2986,-4.2986,-4.2986,-4.2986,-4.2986,-4.2986,-4.2986,-4.2986,-4.2986,-4.3073,-4.324,-4.3351,-4.3572,-4.3899,-4.3572,-4.3628,-4.4064,-4.3628,-4.3628,-4.4094,-4.4094,-4.3984,-6.0824,-6.2487,-6.3841,-6.3841,-6.3694,-6.3318,-6.1871,-6.0486,-5.8896,-5.6574,-5.4927,-5.3728,-5.335,-5.323,-5.4251,-5.7453,-5.853,-5.9937,-6.269,-6.251,-6.2121,-6.2211,-6.1104,-6.0326,-6.0236,-5.9638,-5.9189,-5.9129,-5.9099,-5.9099,-5.9099,-5.9099,-5.9099,-5.9099,-5.9099,-5.9099,-5.9099,-5.9099,-5.9099,-5.9099,-5.9099,-5.9099,-5.9099,-5.9099,-5.9099,-5.9099,-5.9099,-5.877,-5.8261,-5.8171,-5.7723,-5.6989,-5.5864,-5.5051,-5.4226,-5.1989,-5.0816,-5.0182,-4.8899,-4.8405,-4.8405,-4.823,-4.8172,-4.8172,-4.8172,-4.8172,-4.8172,-4.8172,-4.8172,-4.8172,-4.8172,-4.8172,-4.8172,-4.8172,-4.8172,-4.8172,-4.8172,-4.788,-4.7468,-4.6925,-4.6112,-4.5321,-4.4819,-4.4217,-4.3639,-4.3162,-4.3037,-4.2986,-4.2986,-4.2986,-4.2986,-4.2986,-4.2986,-4.2986,-4.2986,-4.2986,-4.2986,-4.2986,-4.2986,-4.2986,-4.2986,-4.324,-4.3517,-4.3844,-4.3517,-4.3628,-4.4203,-4.3628,-4.3517,-4.3844,-4.3844,-4.3708,-6.2764,-6.3564,-6.3841,-6.3841,-6.341,-6.2487,-6.0578,-5.9101,0.0,-5.4927,-5.3749,-5.2833,-5.182,-5.2504,-5.4072,-5.6825,-5.7842,-5.9428,-6.263,-6.251,-6.2301,0.0,-6.2211,-6.1523,-6.0984,-6.0326,-5.9697,-5.9129,-5.9099,-5.9099,-5.9099,-5.9099,-5.9099,-5.9099,-5.9099,-5.9099,-5.9099,-5.9099,-5.9099,-5.9099,-5.9099,-5.9099,-5.9099,-5.9099,-5.9099,-5.9099,-5.9099,-5.9039,-5.889,-5.8351,-5.7723,-5.7034,-5.6318,-5.567,-5.4921,-5.3482,-5.289,-5.2484,-5.035,-4.9589,-4.9418,-4.8521,-4.8172,-4.8172,-4.8172,-4.8172,-4.8172,-4.8172,-4.8172,-4.8172,-4.8172,-4.8172,-4.8172,-4.8172,-4.8172,-4.8172,-4.8172,-4.7703,-4.7205,-4.684,-4.6112,-4.5447,-4.5347,-4.4493,-4.3765,-4.3664,-4.3263,-4.2986,-4.2986,-4.2986,-4.2986,-4.2986,-4.2986,-4.2986,-4.2986,-4.2986,-4.2986,-4.2986,-4.2986,-4.2986,-4.2986,-4.3042,-4.3184,-4.3462,-4.3184,-4.324,-4.3572,-4.324,-4.3184,-4.3517,-4.3517,-4.3572,-6.3472,-6.4087,-6.4303,-6.3933,-6.2794,-6.1225,-5.9193,0.0,0.0,-5.3558,-5.2763,-5.2274,-5.157,-5.2372,-5.3713,-5.5329,-5.6436,-5.8141,-6.1104,-6.1253,-6.1553,-6.2929,-6.251,-6.1852,-6.1194,-6.0475,-5.9817,-5.9159,-5.9099,-5.9099,-5.9099,-5.9099,-5.9099,-5.9099,-5.9099,-5.9099,-5.9099,-5.9099,-5.9099,-5.9099,-5.9099,-5.9099,-5.9099,-5.9099,-5.9099,-5.9099,-5.9099,-5.8919,-5.856,-5.8261,-5.7513,-5.6585,-5.6286,-5.544,-5.4119,-5.2939,-5.2108,-5.1347,-4.9589,-4.8988,-4.8957,-4.8405,-4.8172,-4.8172,-4.8172,-4.8172,-4.8172,-4.8172,-4.8172,-4.8172,-4.8172,-4.8172,-4.8172,-4.8172,-4.8172,-4.8114,-4.7997,-4.756,-4.7087,-4.684,-4.6339,-4.5824,-4.5547,-4.5045,-4.4568,-4.4267,-4.3765,-4.3413,-4.3413,-4.3162,-4.2986,-4.2986,-4.2986,-4.2986,-4.2986,-4.2986,-4.2986,-4.2986,-4.2986,-4.2986,-4.2986,-4.2986,-4.3129,-4.3381,-4.3129,-4.3129,-4.3381,-4.3129,-4.3073,-4.3184,-4.3184,-4.3265,-6.3656,-6.4364,-6.4703,-6.3841,-6.2086,-6.0024,-5.7839,-5.5869,0.0,-5.2413,-5.2063,-5.1926,-5.1649,-5.2257,-5.3084,-5.4042,-5.5089,-5.6765,-5.9668,-6.0086,-6.0835,0.0,-6.263,0.0,-6.1194,-6.0625,-5.9967,-5.9159,-5.9099,-5.9099,-5.9099,-5.9099,-5.9099,-5.9099,-5.9099,-5.9099,-5.9099,-5.9099,-5.9099,-5.9099,-5.9099,-5.9099,-5.9099,-5.9099,-5.9099,-5.9099,-5.9099,-5.88,-5.8321,-5.8321,-5.7633,-5.6585,-5.6147,-5.5204,-5.3774,-5.2002,-5.1017,-5.0406,-4.8784,-4.8347,-4.8521,-4.8289,-4.8172,-4.8172,-4.8172,-4.8172,-4.8172,-4.8172,-4.8172,-4.8172,-4.8172,-4.8172,-4.8172,-4.8172,-4.8172,-4.8114,-4.7762,-4.7442,-4.7087,-4.684,-4.6566,-4.6175,-4.5748,-4.5573,-4.5321,-4.4869,-4.4242,-4.379,-4.379,-4.3313,-4.2986,-4.2986,-4.2986,-4.2986,-4.2986,-4.2986,-4.2986,-4.2986,-4.2986,-4.2986,-4.2986,-4.2986,-4.3129,-4.3381,-4.3129,-4.3129,-4.3381,-4.3129,-4.2986,-4.2986,-4.2986,-4.3042,-6.3656,-6.4364,-6.458,-6.3256,-6.1379,-5.9193,-5.6467,0.0,-5.3346,-5.1709,-5.1728,-5.1926,-5.1649,-5.1506,-5.2007,-5.3892,-5.4311,-5.5718,-5.9548,-6.0086,-6.0835,-6.2839,0.0,0.0,-6.1224,-6.1044,-6.0475,-5.9189,-5.9099,-5.9099,-5.9099,-5.9099,-5.9099,-5.9099,-5.9099,-5.9099,-5.9099,-5.9099,-5.9099,-5.9099,-5.9099,-5.9099,-5.9099,-5.9099,-5.9099,-5.9099,-5.9099,-5.9069,-5.9009,-5.9009,-5.859,-5.7766,-5.6099,-5.5642,-5.5442,-5.1542,-5.1347,-5.2591,-4.9331,-4.8899,-4.9589,-4.8553,-4.8172,-4.8172,-4.8172,-4.8172,-4.8172,-4.8172,-4.8172,-4.8172,-4.8172,-4.8172,-4.8172,-4.8172,-4.8172,-4.8114,-4.7762,-4.7442,-4.7087,-4.684,-4.6566,-4.6301,-4.625,-4.5824,-4.5472,-4.5422,-4.4493,-4.379,-4.379,-4.3313,-4.2986,-4.2986,-4.2986,-4.2986,-4.2986,-4.2986,-4.2986,-4.2986,-4.2986,-4.2986,-4.2986,-4.2986,-4.3129,-4.3381,-4.3129,-4.3129,-4.3381,-4.3129,-4.2986,-4.2986,-4.2986,-4.3129,-6.341,-6.4364,-6.4549,-6.3164,-6.0978,-5.8577,-5.6221,-5.4345,-5.2807,-5.1734,-5.1893,-5.2109,-5.188,-5.1271,-5.1206,-5.2217,-5.2067,-5.2935,-5.6107,-5.6885,-5.8171,-6.0954,-6.1283,-6.1224,-6.1134,-6.0745,-6.0116,-5.9189,-5.9099,-5.9099,-5.9099,-5.9099,-5.9099,-5.9099,-5.9099,-5.9099,-5.9099,-5.9099,-5.9099,-5.9099,-5.9099,-5.9099,-5.9099,-5.9099,-5.9099,-5.9099,-5.9099,-5.9099,-5.9099,-5.9099,-5.8471,-5.7378,-5.5962,-5.5041,-5.4211,-5.1868,-5.1565,-5.2162,-5.0823,-5.0154,-4.9816,-4.9362,-4.8784,-4.8172,-4.8172,-4.8172,-4.8172,-4.8172,-4.8172,-4.8172,-4.8172,-4.8172,-4.8114,-4.7938,-4.8055,-4.7997,-4.7316,-4.7172,-4.7027,-4.6601,-4.6386,-4.6301,-4.6301,-4.6125,-4.5974,-4.5974,-4.5321,-4.4819,-4.4819,-4.4317,-4.3966,-4.3966,-4.3363,-4.2986,-4.2986,-4.2986,-4.2986,-4.2986,-4.2986,-4.2986,-4.2986,-4.2986,-4.3017,-4.3129,-4.3017,-4.3017,-4.3129,-4.3017,-4.2986,-4.2986,-4.2986,-4.3073,-6.2487,-6.3595,-6.3995,-6.2825,-6.0486,-5.7962,-5.5852,-5.3976,-5.2452,-5.159,-5.1904,-5.2154,-5.1774,-5.1273,-5.0878,-5.087,-5.0823,-5.1678,-5.4162,-5.5059,-5.6555,-5.9458,-5.9787,-5.9997,-6.0475,-6.0086,-5.9608,-5.9129,-5.9099,-5.9099,-5.9099,-5.9099,-5.9099,-5.9099,-5.9099,-5.9099,-5.9099,-5.9099,-5.9099,-5.9099,-5.9099,-5.9099,-5.9099,-5.9099,-5.9099,-5.9099,-5.9099,-5.9099,-5.9099,-5.9099,-5.8441,-5.7258,-5.5933,-5.4905,-5.399,-5.2355,-5.2136,-5.2619,-5.1946,-5.1127,-5.035,-5.0014,-4.9103,-4.8172,-4.8172,-4.8172,-4.8172,-4.8172,-4.8172,-4.8172,-4.8172,-4.8172,-4.8114,-4.788,-4.7997,-4.7938,-4.7078,-4.7053,-4.7027,-4.6421,-4.6301,-4.6301,-4.6301,-4.6301,-4.6301,-4.6301,-4.5849,-4.5497,-4.5497,-4.497,-4.4618,-4.4618,-4.379,-4.3212,-4.3212,-4.3062,-4.2986,-4.2986,-4.2986,-4.2986,-4.2986,-4.2986,-4.2986,-4.2986,-4.2986,-4.2986,-4.2986,-4.2986,-4.2986,-4.2986,-4.2986,-4.2986,-6.064,-6.1809,-6.2671,-6.1994,-5.9778,-5.7254,-5.5144,-5.3683,-5.2329,-5.0974,-5.1567,-5.2032,-5.1167,-5.1334,-5.1269,-5.0361,-5.1319,0.0,-5.491,-5.5748,-5.6885,-5.889,-5.9129,-5.9129,-5.9129,-5.9129,-5.9129,-5.9099,-5.9099,-5.9099,-5.9099,-5.9099,-5.9099,-5.9099,-5.9099,-5.9099,-5.9099,-5.9099,-5.9099,-5.9099,-5.9099,-5.9099,-5.9099,-5.9099,-5.9099,-5.9099,-5.9099,-5.9099,-5.9099,-5.9099,-5.871,-5.7945,-5.6109,-5.5731,-5.5789,-5.2794,-5.315,-5.4794,-5.2512,-5.1674,-5.1456,-5.0294,-4.9103,-4.8172,-4.8172,-4.8172,-4.8172,-4.8172,-4.8172,-4.8172,-4.8172,-4.8172,-4.8172,-4.8172,-4.8172,-4.7997,-4.7324,-4.7205,-4.7027,-4.6421,-4.6301,-4.6301,-4.6301,-4.6301,-4.6301,-4.6301,-4.5849,-4.5497,-4.5497,-4.497,-4.4618,-4.4618,-4.4116,-4.379,-4.379,-4.3288,-4.2986,-4.2986,-4.2986,-4.2986,-4.2986,-4.2986,-4.2986,-4.2986,-4.2986,-4.2986,-4.2986,-4.2986,-4.2986,-4.2986,-4.2986,-4.2986,-5.7377,-5.867,-5.9655,-5.8023,-5.6669,-5.5161,-5.3129,-5.2698,-5.2329,-5.0974,-5.1199,-5.1483,-5.1075,-5.0214,-4.9975,-5.1366,-5.1169,-5.1708,-5.4192,-5.5089,-5.6047,-5.7543,-5.8949,-5.9608,-5.9159,-5.9099,-5.9099,-5.9099,-5.9099,-5.9099,-5.9099,-5.9099,-5.9099,-5.9099,-5.9099,-5.9099,-5.9099,-5.9099,-5.9099,-5.9099,-5.9099,-5.9099,-5.9099,-5.9099,-5.9099,-5.9099,-5.9099,-5.9099,-5.9099,-5.9099,-5.8441,-5.7288,-5.5933,-5.5413,-5.5194,-5.2623,-5.2673,-5.3756,-5.2244,-5.1127,-5.0406,-5.0014,-4.9103,-4.8172,-4.8172,-4.8172,-4.8172,-4.8172,-4.8172,-4.8172,-4.8172,-4.8172,-4.8055,-4.7645,-4.7703,-4.7645,-4.6755,-4.678,-4.678,-4.6361,-4.6301,-4.6301,-4.6301,-4.6301,-4.6301,-4.6301,-4.6175,-4.605,-4.605,-4.5899,-4.5773,-4.5773,-4.5271,-4.4644,-4.3865,-4.3288,-4.2986,-4.2986,-4.2986,-4.2986,-4.2986,-4.2986,-4.2986,-4.2986,-4.2986,-4.2986,-4.2986,-4.2986,-4.2986,-4.2986,-4.2986,-4.2986,-5.5376,-5.6453,-5.7254,-5.5715,-5.4637,-5.3652,-5.2359,-5.2206,-5.2082,-5.1251,-5.1414,-5.1513,-5.1075,-5.0335,-5.0095,-5.1276,-5.0943,-5.1349,-5.3533,-5.4401,-5.5388,-5.6915,-5.865,-5.9458,-5.88,-5.8949,-5.9099,-5.9099,-5.9099,-5.9099,-5.9099,-5.9099,-5.9099,-5.9099,-5.9099,-5.9099,-5.9099,-5.9099,-5.9099,-5.9099,-5.9099,-5.9099,-5.9099,-5.9099,-5.9099,-5.9099,-5.9099,-5.9099,0.0,-5.9099,-5.8321,-5.7042,-5.6326,-5.5715,-5.5027,-5.3547,-5.3203,-5.3308,-5.2591,-5.1292,-4.9901,-4.9901,-4.9103,-4.8172,-4.8172,-4.8172,-4.8172,-4.8172,-4.8172,-4.8172,-4.8172,-4.8172,-4.8114,-4.7703,-4.7645,-4.7527,-4.6815,-4.6721,-4.6686,-4.6386,-4.6301,-4.6301,-4.6301,-4.6301,-4.6301,-4.6301,-4.6301,-4.6301,-4.6301,-4.6301,-4.6301,-4.6301,-4.5824,-4.5196,-4.4493,-4.374,-4.3212,-4.2986,-4.2986,-4.2986,-4.2986,-4.2986,-4.2986,-4.2986,-4.3187,-4.3288,-4.3288,-4.3489,-4.3589,-4.3589,-4.3589,-4.3589,0.0,-5.5007,-5.5315,-5.456,-5.3529,-5.2637,-5.2575,-5.2144,0.0,-5.1713,-5.1996,-5.1971,-5.1136,-5.1273,-5.1178,-5.0391,-5.0764,-5.1678,-5.3054,-5.3922,-5.5119,-5.7004,-5.8351,-5.886,-5.8261,-5.874,-5.9099,-5.9099,-5.9099,-5.9099,-5.9099,-5.9099,-5.9129,-5.9189,-5.9129,-5.9099,-5.9099,-5.9099,-5.9099,-5.9099,-5.9099,-5.9099,-5.9099,-5.9099,-5.9099,-5.9099,-5.9099,-5.9099,-5.9099,-5.9099,-5.8351,-5.7154,-5.7154,-5.6376,-5.5269,-5.5138,-5.4333,-5.3256,-5.3203,-5.1701,-4.9901,-5.0014,-4.9274,-4.8347,-4.8347,-4.823,-4.8172,-4.8172,-4.8172,-4.8172,-4.8172,-4.8172,-4.8172,-4.8172,-4.7938,-4.756,-4.7265,-4.6959,-4.6686,-4.6361,-4.6301,-4.6301,-4.6301,-4.6301,-4.6301,-4.6301,-4.6301,-4.6301,-4.6301,-4.6301,-4.6301,-4.6301,-4.5849,-4.5522,-4.5497,-4.4493,-4.3639,-4.3062,-4.3037,-4.3011,-4.2986,-4.2986,-4.2986,-4.3037,-4.3589,-4.3865,-4.3865,-4.4367,-4.4618,-4.4618,-4.4618,-4.4618,-5.2513,0.0,-5.3129,-5.1929,-5.1805,-5.1805,0.0,-5.1836,-5.2329,-5.1805,-5.1628,-5.1422,-5.1075,-5.0517,-5.0276,-5.084,-5.1109,-5.1858,-5.3713,-5.5388,-5.6974,-5.8441,-5.8919,-5.9039,-5.889,-5.9009,-5.9099,-5.9099,-5.9099,-5.9099,-5.9099,-5.9099,-5.9338,-5.9847,-5.9368,-5.9099,-5.9099,-5.9099,-5.9099,-5.9099,-5.9099,-5.9099,-5.9099,-5.9099,-5.9099,-5.9099,-5.9099,-5.9099,-5.9099,-5.9099,-5.862,-5.7872,-5.7872,-5.7094,-5.5825,-5.4936,-5.3501,-5.1946,-5.1072,-5.035,-5.0014,-5.0962,-5.0462,-4.9475,-4.9475,-4.8899,-4.8172,-4.8172,-4.8172,-4.8172,-4.8172,-4.8172,-4.8114,-4.788,-4.756,-4.7205,-4.6959,-4.6661,-4.6361,-4.6326,-4.6301,-4.6301,-4.6301,-4.6301,-4.6301,-4.6301,-4.6301,-4.6301,-4.6301,-4.6301,-4.6301,-4.6301,-4.62,-4.5949,-4.5522,-4.4844,-4.4192,-4.3639,-4.3614,-4.3413,-4.2986,-4.2986,-4.3162,-4.3589,-4.4141,-4.4418,-4.4443,-4.4568,-4.4618,-4.4618,-4.4618,-4.4618,-5.1436,-5.1498,-5.1528,-5.0482,-5.0513,-5.0759,-5.0697,-5.1498,-5.2236,-5.2175,-5.1966,-5.1666,-5.1501,-5.0698,-5.0306,-5.1096,-5.1229,-5.2127,-5.473,-5.6795,-5.8291,-5.9009,-5.9368,-5.9428,-5.9129,-5.9099,-5.9099,-5.9099,-5.9368,-5.9548,-5.9548,-5.9548,-5.9727,-6.0086,-5.9458,-5.9249,-5.9548,-5.9249,-5.9099,-5.9099,-5.9099,-5.9099,-5.9099,-5.9099,-5.9099,-5.9099,-5.9099,-5.9099,-5.9099,-5.9099,-5.871,-5.8112,-5.8112,-5.7483,-5.6482,-5.5265,-5.3818,-5.2407,-5.1793,-5.1568,-5.1709,-5.2043,-5.1321,-5.0311,-4.9983,-4.9103,-4.8172,-4.8172,-4.8172,-4.8172,-4.8172,-4.8172,-4.8114,-4.7997,-4.7677,-4.7324,-4.7053,-4.6721,-4.6481,-4.6301,-4.6301,-4.6301,-4.6301,-4.6301,-4.6301,-4.6301,-4.6301,-4.6301,-4.6301,-4.6301,-4.6301,-4.6301,-4.6301,-4.6175,-4.5899,-4.5573,-4.5045,-4.4242,-4.394,-4.3664,-4.3363,-4.3363,-4.374,-4.4568,-4.4869,-4.5146,-4.5397,-4.5397,-4.5397,-4.5397,-4.5397,-4.5397,-5.0974,-5.0759,-5.0574,-5.0112,-4.9989,-5.0174,-5.0851,-5.1436,-5.2021,-5.2606,-5.2518,-5.223,-5.1896,-5.1334,-5.1014,-5.1186,-5.1558,-5.2875,-5.5897,-5.7842,-5.9009,-5.9099,-5.9608,-5.9727,-5.9159,-5.9099,-5.9129,-5.9249,-5.9757,-6.0086,-6.0086,-6.0086,-6.0086,-6.0086,-5.9458,-5.9428,-6.0086,-5.9428,-5.9099,-5.9099,-5.9099,-5.9099,-5.9099,-5.9099,-5.9039,-5.8949,-5.9069,-5.9039,-5.8949,-5.9069,-5.877,-5.8261,-5.8261,-5.7842,-5.7086,-5.5883,-5.4619,-5.3529,-5.3529,-5.3698,-5.3865,-5.3214,-5.2156,-5.1031,-5.0148,-4.9103,-4.8172,-4.8172,-4.8172,-4.8172,-4.8172,-4.8172,-4.8172,-4.8114,-4.7938,-4.7586,-4.7205,-4.6959,-4.6686,-4.6386,-4.6301,-4.6301,-4.6301,-4.6301,-4.6301,-4.6301,-4.6301,-4.6301,-4.6301,-4.6301,-4.6301,-4.6301,-4.6301,-4.6301,-4.6301,-4.6301,-4.5899,-4.4945,-4.4367,-4.4016,-4.394,-4.4016,-4.4518,-4.5472,-4.5573,-4.5849,-4.6301,-4.6301,-4.6301,-4.6301,-4.6301,-4.6301,-5.1436,-5.1128,-5.082,-5.1282,-5.1374,-5.1559,-5.2236,-5.2483,-5.2575,-5.2698,-5.2653,-5.2334,-5.1333,-5.1926,-5.2332,-5.1336,-5.3114,-5.5149,-5.6735,-5.7723,-5.8471,-5.9039,-5.9189,-5.9219,-5.9129,-5.9099,-5.9338,-5.9877,-6.0027,-6.0086,-6.0086,-6.0086,-6.0086,-6.0086,-5.9458,-5.9428,-6.0086,-5.9428,-5.9099,-5.9099,-5.9099,-5.9099,-5.9099,-5.9099,-5.88,-5.8321,-5.886,-5.88,-5.8321,-5.889,-5.9039,-5.8949,-5.8949,-5.856,-5.7802,-5.661,-5.4991,-5.3529,-5.3529,-5.4201,-5.5025,-5.436,-5.3371,-5.2101,-5.043,-4.9103,-4.8172,-4.8172,-4.8172,-4.8172,-4.8172,-4.8172,-4.8114,-4.7821,-4.7762,-4.7527,-4.6959,-4.6866,-4.6686,-4.6386,-4.6301,-4.6301,-4.6301,-4.6301,-4.6301,-4.6301,-4.6301,-4.6301,-4.6301,-4.6301,-4.6301,-4.6301,-4.6301,-4.6301,-4.6301,-4.6301,-4.6225,-4.6075,-4.5522,-4.502,-4.4518,-4.497,-4.5321,-4.5497,-4.5949,-4.6225,-4.6301,-4.6301,-4.6301,-4.6301,-4.6301,-4.6301,-4.9066,-4.9251,-4.9743,-5.0451,-5.0882,-5.1159,-5.1097,-5.1374,-5.1621,-5.1621,-5.1621,-5.1519,-5.109,-5.1789,-5.2604,-5.3271,-5.497,-5.6555,-5.7513,-5.8231,-5.877,-5.9069,-5.9099,-5.9099,-5.9099,-5.9428,-5.9757,-6.0057,-6.0446,-6.0655,-6.0655,-6.0296,-6.0086,-6.0086,-5.9458,-5.9249,-5.9548,-5.9249,-5.9099,-5.9099,-5.9099,-5.9099,-5.9099,-5.874,-5.8411,-5.8141,-5.8441,-5.8411,-5.8171,-5.883,-5.9099,-5.9099,-5.9099,-5.8919,-5.8489,-5.7254,-5.6243,-5.5479,-5.5479,-5.6345,-5.7301,-5.6622,-5.5634,-5.4282,-5.2073,-5.056,-4.9471,-4.8484,-4.8172,-4.8172,-4.8172,-4.8172,-4.8172,-4.7997,-4.7821,-4.7586,-4.7112,-4.69,-4.6686,-4.6386,-4.6301,-4.6301,-4.6301,-4.6301,-4.6301,-4.6301,-4.6301,-4.6301,-4.6301,-4.6301,-4.6301,-4.6301,-4.6301,-4.6301,-4.6301,-4.6301,-4.6175,-4.5874,-4.5623,-4.5372,-4.5095,-4.5347,-4.5623,-4.5924,-4.6175,-4.6301,-4.6301,-4.6301,-4.6301,-4.6301,-4.6301,-4.6301,-4.7804,-4.8204,-4.9004,-4.9558,-5.0205,-5.0697,-5.0636,-5.0913,-5.1251,-5.1559,-5.1498,-5.1396,-5.1332,-5.2002,-5.3205,-5.534,-5.6735,-5.7752,-5.8291,-5.88,-5.9099,-5.9099,-5.9099,-5.9159,-5.9308,-5.9787,-6.0146,-6.0326,-6.0805,-6.1044,-6.0894,-6.0386,-6.0027,-5.9847,-5.9368,-5.9099,-5.9099,-5.9099,-5.9099,-5.9099,-5.9099,-5.9009,-5.886,-5.8351,-5.7962,-5.7693,-5.7992,-5.8022,-5.7932,-5.877,-5.9099,-5.9099,-5.9099,-5.8936,-5.858,-5.7552,-5.7187,-5.7187,-5.7187,-5.8026,-5.8955,-5.7999,-5.6921,-5.5501,-5.322,-5.1644,-5.0354,-4.8989,-4.859,-4.8538,-4.825,-4.8172,-4.8198,-4.8114,-4.788,-4.756,-4.7205,-4.6959,-4.6686,-4.6386,-4.6301,-4.6301,-4.6301,-4.6301,-4.6301,-4.6301,-4.6301,-4.6301,-4.6301,-4.6301,-4.6301,-4.6301,-4.6301,-4.6301,-4.6301,-4.6301,-4.6125,-4.5698,-4.5673,-4.5673,-4.5673,-4.5673,-4.5874,-4.6301,-4.6301,-4.6301,-4.6301,-4.6301,-4.6301,-4.6301,-4.6301,-4.6301,-5.0266,-5.002,-4.962,-4.9682,-5.0205,-5.119,-5.3006,-5.2975,-5.2914,-5.4176,-5.3929,-5.3253,-5.2443,-5.3442,-5.4989,-5.6697,-5.8082,-5.8979,-5.9039,-5.9069,-5.9099,-5.9099,-5.9099,-5.9338,-5.9967,-6.0057,-6.0356,-6.0984,-6.1074,-6.0835,-6.0206,-6.0116,-5.9787,-5.9189,-5.9129,-5.9099,-5.9099,-5.9099,-5.9099,-5.9099,-5.9099,-5.877,-5.8201,-5.8141,-5.7453,-5.6376,-5.7603,-5.7752,-5.7274,-5.856,-5.9099,-5.9099,-5.9099,-5.8386,-5.7328,-5.7243,-5.7187,-5.7187,-5.7187,-5.8026,-5.8817,-5.7071,-5.5646,-5.4316,-5.2438,-5.096,-4.9939,-4.9827,-4.9766,-4.9531,-4.846,-4.8172,-4.8114,-4.7821,-4.7703,-4.7527,-4.6959,-4.6806,-4.6686,-4.6386,-4.6301,-4.6301,-4.6301,-4.6301,-4.6301,-4.6301,-4.6301,-4.6301,-4.6301,-4.6301,-4.6301,-4.6301,-4.6301,-4.6301,-4.6301,-4.6301,-4.6301,-4.625,-4.625,-4.625,-4.625,-4.625,-4.6276,-4.6301,-4.6301,-4.6301,-4.6301,-4.6301,-4.6301,-4.6301,-4.6301,-4.6301,-4.8204,-4.8912,-4.9589,-4.9127,-5.0174,-5.1405,-5.1775,-5.1959,-5.2483,-5.3837,-5.3899,-5.3807,-5.4157,-5.4746,-5.5772,-5.7655,-5.8607,-5.9099,-5.9099,-5.9099,-5.9099,-5.9099,-5.9458,-5.9668,-5.9488,-6.0236,-6.0655,-6.0475,-6.0475,-6.0356,-6.0086,-5.9697,-5.9368,-5.9129,-5.9099,-5.9099,-5.9099,-5.871,-5.8501,-5.8501,-5.8501,-5.8381,-5.8082,-5.7274,-5.6645,-5.6248,-5.6705,-5.6974,-5.7154,-5.8112,-5.874,-5.9099,-5.9099,-5.8798,-5.8386,-5.8386,-5.8386,-5.8386,-5.8386,-5.8689,-5.9015,-5.8313,-5.7757,-5.6863,-5.4288,-5.3113,-5.2357,-5.0458,-4.9897,-4.9714,-4.893,-4.8747,-4.8643,-4.816,-4.7703,-4.7324,-4.7112,-4.678,-4.6446,-4.6301,-4.6301,-4.6301,-4.6301,-4.6301,-4.6301,-4.6301,-4.6301,-4.6301,-4.6301,-4.6301,-4.6301,-4.6301,-4.6301,-4.6301,-4.6301,-4.6301,-4.6301,-4.6301,-4.6301,-4.6301,-4.6301,-4.6301,-4.6301,-4.6301,-4.6301,-4.6301,-4.6301,-4.6301,-4.6301,-4.6301,-4.6301,-4.6301,-4.8019,-4.8758,-4.9558,-4.9066,-5.002,-5.1097,-5.1282,-5.2021,-5.3098,-5.4668,-5.4637,-5.4606,-5.5359,-5.5596,-5.6174,-5.7828,-5.8637,-5.9099,-5.9099,-5.9099,-5.9099,-5.9099,-5.9488,-5.9668,-5.9428,-6.0266,-6.0595,-6.0116,-6.0086,-5.9997,-5.9787,-5.9338,-5.9099,-5.9099,-5.9099,-5.9009,-5.88,-5.8351,-5.8022,-5.7782,-5.7603,-5.7513,-5.7483,-5.6585,-5.6047,-5.5867,-5.6077,-5.6406,-5.6885,-5.7752,-5.853,-5.9099,-5.9099,-5.9099,-5.9099,-5.9099,-5.9099,-5.9099,-5.9099,-5.9099,-5.9099,-5.9099,-5.8798,-5.8022,-5.5567,-5.4506,-5.3665,-5.1107,-5.042,-5.0315,-4.9766,-4.9348,-4.8982,-4.8564,-4.7833,-4.7205,-4.7205,-4.6755,-4.6301,-4.6301,-4.6301,-4.6301,-4.6301,-4.6301,-4.6301,-4.6301,-4.6301,-4.6301,-4.6301,-4.6301,-4.6301,-4.6301,-4.6301,-4.6301,-4.6301,-4.6301,-4.6301,-4.6301,-4.6301,-4.6301,-4.6301,-4.6301,-4.6301,-4.6301,-4.6301,-4.6301,-4.6301,-4.6301,-4.6301,-4.6301,-4.6301,-4.6301,-5.0667,-5.0174,-4.9682,-4.9682,-4.9682,-5.0236,-5.2267,-5.3775,-5.5315,-5.7377,-5.67,-5.5787,-5.5956,-5.5979,-5.6154,-5.6989,-5.8231,-5.9099,-5.9099,-5.9099,-5.9099,-5.9099,-5.9099,-5.9368,-6.0027,-6.0086,-6.0086,-6.0086,-6.0086,-5.9787,-5.9129,-5.9099,-5.9099,-5.9099,-5.9099,-5.877,-5.8112,-5.8058,-5.7752,-5.7064,-5.6466,-5.6166,-5.6218,-5.6218,-5.5807,-5.5239,-5.5867,-5.6166,-5.6286,-5.7573,-5.8501,-5.9099,-5.9099,-5.9099,-5.9099,-5.9099,-5.9099,-5.9099,-5.9099,-5.9099,-5.9099,-5.9099,-5.8276,-5.6962,-5.579,-5.4501,-5.3268,-5.1944,-5.1596,-5.1465,-5.0943,-4.9949,-4.9087,-4.9087,-4.8117,-4.7205,-4.7205,-4.6695,-4.6301,-4.6301,-4.6301,-4.6301,-4.6301,-4.6301,-4.6301,-4.6301,-4.6301,-4.6301,-4.6301,-4.6301,-4.6301,-4.6301,-4.6301,-4.6301,-4.6301,-4.6301,-4.6301,-4.6301,-4.6301,-4.6301,-4.6301,-4.6301,-4.6301,-4.6301,-4.6301,-4.6301,-4.6301,-4.6301,-4.6301,-4.6301,-4.6301,-4.6301,-4.7927,-4.8358,-4.8943,-4.8943,-5.0389,-5.2082,-5.3191,-5.4453,-5.6115,-5.867,-5.8485,-5.7832,-5.7698,-5.7476,-5.7495,-5.7978,-5.8637,-5.9099,-5.9099,-5.9099,-5.9099,-5.9099,-5.9518,-5.9697,-5.9428,-5.9817,-5.9877,-5.9428,-5.9398,-5.9308,-5.9129,-5.9099,-5.889,-5.8441,-5.8411,-5.8082,-5.7393,-5.6974,-5.6645,-5.6436,-5.5777,-5.5718,-5.6166,-5.5688,-5.5388,-5.5209,-5.5388,-5.5748,-5.6226,-5.7064,-5.7812,-5.8411,-5.8411,-5.871,-5.9099,-5.9099,-5.9099,-5.9099,-5.9099,-5.9099,-5.9099,-5.9099,-5.8852,-5.8331,-5.7047,-5.579,-5.456,-5.3268,-5.2315,-5.157,-5.1387,-5.0627,-4.975,-4.8971,-4.7939,-4.7146,-4.6959,-4.6601,-4.6301,-4.6301,-4.6301,-4.6301,-4.6301,-4.6301,-4.6301,-4.6301,-4.6301,-4.6301,-4.6301,-4.6301,-4.6301,-4.6301,-4.6301,-4.6301,-4.6301,-4.6301,-4.6301,-4.6301,-4.6301,-4.6301,-4.6301,-4.6301,-4.6301,-4.6301,-4.6301,-4.6301,-4.6301,-4.6301,-4.6301,-4.6301,-4.6301,-4.6301,-4.7773,-4.8604,-4.9497,-4.9774,-5.1282,-5.3098,-5.4576,-5.5961,-5.7469,-5.9378,-5.9255,-5.8743,-5.844,-5.8105,-5.804,-5.8444,-5.8841,-5.9099,-5.9099,-5.9099,-5.9099,-5.9099,-5.9458,-5.9548,-5.9129,-5.9458,-5.9548,-5.9129,-5.9099,-5.9099,-5.9099,-5.9099,-5.8919,-5.853,-5.853,-5.8201,-5.7513,-5.7124,-5.6825,-5.6526,-5.6137,-5.6166,-5.6496,-5.5598,-5.5179,-5.5179,-5.5179,-5.5568,-5.6248,-5.6585,-5.7274,-5.8112,-5.8112,-5.853,-5.9099,-5.9099,-5.9099,-5.9099,-5.9099,-5.9099,-5.9099,-5.9099,-5.9099,-5.8743,-5.6991,-5.5964,-5.5032,-5.3268,-5.2192,-5.1596,-5.1596,-5.1054,-5.0244,-4.9369,-4.8215,-4.7308,-4.6985,-4.6601,-4.6301,-4.6301,-4.6301,-4.6301,-4.6301,-4.6301,-4.6301,-4.6301,-4.6301,-4.6301,-4.6301,-4.6301,-4.6301,-4.6301,-4.6301,-4.6301,-4.6301,-4.6301,-4.6301,-4.6301,-4.6301,-4.6301,-4.6301,-4.6301,-4.6301,-4.6301,-4.6301,-4.6301,-4.6301,-4.6301,-4.6301,-4.6301,-4.6301,-4.6301,-4.9035,-4.9989,-5.079,-5.1528,-5.2359,-5.3652,-5.6317,-5.7857,-5.8885,-5.9562,-5.9193,-5.8743,-5.8552,-5.8196,-5.8131,-5.8618,-5.8901,-5.9099,-5.9099,-5.9099,-5.9099,-5.9099,-5.9099,-5.9099,-5.9099,-5.9099,-5.9099,-5.9099,-5.9099,-5.9099,-5.9099,-5.9099,-5.9069,-5.9009,-5.9009,-5.871,-5.8052,-5.8022,-5.7723,-5.7094,-5.7094,-5.7094,-5.7064,-5.5837,-5.5239,-5.5179,-5.5179,-5.5538,-5.6077,-5.6077,-5.6825,-5.7962,-5.8022,-5.8441,-5.9009,-5.9069,-5.9099,-5.9099,-5.9099,-5.9099,-5.9099,-5.9099,-5.9099,-5.8634,-5.6251,-5.5472,-5.4859,-5.2412,-5.1669,-5.1544,-5.1596,-5.123,-5.0646,-5.0054,-4.873,-4.7561,-4.7215,-4.6695,-4.6301,-4.6301,-4.6301,-4.6301,-4.6301,-4.6301,-4.6301,-4.6301,-4.6301,-4.6301,-4.6301,-4.6301,-4.6301,-4.6301,-4.6301,-4.6301,-4.6301,-4.6301,-4.6301,-4.6301,-4.6301,-4.6301,-4.6301,-4.6301,-4.6301,-4.6301,-4.6301,-4.6301,-4.6301,-4.6301,-4.6301,-4.6301,-4.6301,-4.6301,-4.7034,-4.8543,-5.0205,-5.1405,-5.3375,-5.5499,-5.721,-5.7826,-5.8227,-5.8854,-5.8885,-5.8896,-5.9114,-5.8897,-5.8797,-5.9228,-5.9171,-5.9099,-5.9099,-5.9099,-5.9099,-5.9099,-5.9099,-5.9099,-5.9099,-5.9099,-5.9099,-5.9099,-5.9099,-5.9099,-5.9099,-5.9099,-5.886,-5.8351,-5.8351,-5.7992,-5.7334,-5.7304,-5.7244,-5.7094,-5.7094,-5.7094,-5.7064,-5.6316,-5.5688,-5.5179,-5.5179,-5.5269,-5.5418,-5.5418,-5.5867,-5.6645,-5.7124,-5.7723,-5.8411,-5.8919,-5.9099,-5.9099,-5.9099,-5.9099,-5.9099,-5.9099,-5.9099,-5.8798,-5.7272,-5.5823,-5.4448,-5.3408,-5.2058,-5.1073,-5.1492,-5.133,-5.0867,-5.0072,-4.8911,-4.7803,-4.7027,-4.6601,-4.6301,-4.6301,-4.6301,-4.6301,-4.6301,-4.6301,-4.6301,-4.6301,-4.6301,-4.6301,-4.6301,-4.6301,-4.6301,-4.6301,-4.6301,-4.6301,-4.6301,-4.6301,-4.6301,-4.6301,-4.6301,-4.6301,-4.6301,-4.6301,-4.6301,-4.6301,-4.6301,-4.6301,-4.6301,-4.6301,-4.6301,-4.6301,-4.6301,-4.6301,-4.7188,-4.9066,-5.1128,-5.3129,-5.4914,-5.644,-5.7179,-5.7333,-5.7426,-5.7795,-5.8331,-5.8793,-5.8673,-5.8512,-5.8538,-5.8745,-5.8707,-5.865,-5.865,-5.8919,-5.9099,-5.9099,-5.9099,-5.9099,-5.9099,-5.9099,-5.9099,-5.9099,-5.9099,-5.9099,-5.9099,-5.9099,-5.8949,-5.859,-5.8291,-5.7962,-5.7573,-5.7244,-5.7274,-5.7573,-5.7573,-5.7573,-5.7543,-5.6615,-5.5987,-5.5658,-5.5329,-5.5179,-5.5179,-5.5179,-5.5598,-5.6278,-5.6855,-5.7513,-5.8201,-5.886,-5.9099,-5.9099,-5.9099,-5.9099,-5.9099,-5.9099,-5.9099,-5.8743,-5.6878,-5.5452,-5.4222,-5.2958,-5.1733,-5.0917,-5.1465,-5.1471,-5.1085,-5.0098,-4.9057,-4.8013,-4.7172,-4.6601,-4.6301,-4.6301,-4.6301,-4.6301,-4.6301,-4.6301,-4.6301,-4.6301,-4.6301,-4.6301,-4.6301,-4.6301,-4.6301,-4.6301,-4.6301,-4.6301,-4.6301,-4.6301,-4.6301,-4.6301,-4.6301,-4.6301,-4.6301,-4.6301,-4.6301,-4.6301,-4.6301,-4.6301,-4.6301,-4.6301,-4.6301,-4.6301,-4.6301,-4.6301,-4.7619,-4.9866,-5.2329,-5.5037,-5.6238,-5.681,-5.681,-5.681,-5.681,-5.681,-5.7703,-5.83,-5.7888,-5.7809,-5.7882,-5.8003,-5.8022,-5.8015,-5.7932,-5.8411,-5.877,-5.877,-5.877,-5.877,-5.877,-5.877,-5.877,-5.877,-5.877,-5.877,-5.877,-5.877,-5.877,-5.877,-5.8231,-5.7932,-5.7932,-5.7393,-5.7393,-5.7962,-5.8052,-5.8171,-5.8261,-5.7064,-5.6376,-5.6188,-5.5478,-5.5179,-5.5179,-5.5179,-5.5508,-5.6077,-5.6675,-5.7363,-5.8022,-5.868,-5.9009,-5.9099,-5.9099,-5.9099,-5.9099,-5.9099,-5.9099,-5.8634,-5.6165,-5.502,-5.4107,-5.213,-5.1204,-5.0917,-5.1465,-5.1596,-5.1309,-5.0159,-4.9229,-4.837,-4.7402,-4.6755,-4.6301,-4.6301,-4.6301,-4.6301,-4.6301,-4.6301,-4.6301,-4.6301,-4.6301,-4.6301,-4.6301,-4.6301,-4.6301,-4.6301,-4.6301,-4.6301,-4.6301,-4.6301,-4.6301,-4.6301,-4.6301,-4.6301,-4.6301,-4.6301,-4.6301,-4.6301,-4.6301,-4.6301,-4.6301,-4.6301,-4.6301,-4.6301,-4.6301,-4.6301,-4.5772,-4.8789,-5.2329,-5.5037,-5.6238,-5.681,-5.681,-5.681,-5.681,-5.681,-5.6964,-5.7241,-5.7734,-5.7591,-5.7536,-5.7912,-5.7786,-5.7505,-5.7296,-5.7304,-5.7363,-5.7363,-5.7363,-5.7363,-5.7363,-5.7363,-5.7363,-5.7363,-5.7363,-5.7363,-5.7363,-5.7363,-5.7363,-5.7363,-5.7274,-5.7244,-5.7244,-5.7124,-5.7124,-5.7244,-5.7842,-5.8411,-5.8949,-5.8201,-5.7244,-5.6188,-5.5478,-5.5179,-5.5179,-5.5179,-5.5239,-5.5388,-5.6047,-5.6675,-5.7304,-5.7992,-5.862,-5.9099,-5.9099,-5.9099,-5.9099,-5.9099,-5.9099,-5.8634,-5.6165,-5.502,-5.4107,-5.213,-5.1204,-5.0917,-5.1465,-5.1596,-5.1309,-5.0159,-4.9568,-4.8893,-4.7496,-4.6755,-4.6301,-4.6301,-4.6301,-4.6301,-4.6301,-4.6301,-4.6301,-4.6301,-4.6301,-4.6301,-4.6301,-4.6301,-4.6301,-4.6301,-4.6301,-4.6301,-4.6301,-4.6301,-4.6301,-4.6301,-4.6301,-4.6301,-4.6301,-4.6301,-4.6301,-4.6301,-4.6301,-4.6301,-4.6301,-4.6301,-4.6301,-4.6301,-4.6301,-4.6301,-4.7835,-5.0051,-5.2329,-5.5037,-5.593,-5.6269,-5.6717,-5.681,-5.681,-5.681,-5.681,-5.6902,-5.721,-5.6997,-5.6793,-5.6848,-5.696,-5.6895,-5.6637,-5.6885,-5.7094,-5.7094,-5.7094,-5.7094,-5.7094,-5.7094,-5.7094,-5.7094,-5.7094,-5.7094,-5.7094,-5.7094,-5.7094,-5.7094,-5.6765,-5.6585,-5.6585,-5.6196,-5.6196,-5.6585,-5.7244,-5.7902,-5.853,-5.7872,-5.7244,-5.6645,-5.6017,-5.5538,-5.5179,-5.5179,-5.5179,-5.5269,-5.5927,-5.6346,-5.6645,-5.7304,-5.7723,-5.8022,-5.8411,-5.856,-5.862,-5.8979,-5.9099,-5.8634,-5.6165,-5.4795,-5.3633,-5.1679,-5.0498,-4.9949,-5.0498,-5.0655,-5.0446,-4.9636,-4.9187,-4.8653,-4.7444,-4.6874,-4.6481,-4.6301,-4.6301,-4.6301,-4.6301,-4.6301,-4.6301,-4.6301,-4.6301,-4.6301,-4.6301,-4.6301,-4.6301,-4.6301,-4.6301,-4.6301,-4.6301,-4.6301,-4.6301,-4.6301,-4.6301,-4.6301,-4.6301,-4.6301,-4.6301,-4.6301,-4.6301,-4.6301,-4.6301,-4.6301,-4.6301,-4.6301,-4.6301,-4.6301,-4.882,-5.0143,-5.1313,-5.4022,-5.5068,-5.5622,-5.6378,-5.6686,-5.681,-5.681,-5.681,-5.681,-5.681,-5.6664,-5.6421,-5.6127,-5.6304,-5.6385,-5.608,-5.6368,-5.6615,-5.6615,-5.6615,-5.6615,-5.6615,-5.6615,-5.6615,-5.6615,-5.6615,-5.6615,-5.6615,-5.6615,-5.6615,-5.6615,-5.6166,-5.5927,-5.5927,-5.5448,-5.5538,-5.6218,-5.6645,-5.7214,-5.7842,-5.7513,-5.7274,-5.7064,-5.6436,-5.5948,-5.5418,-5.5269,-5.5179,-5.5239,-5.5718,-5.6017,-5.6226,-5.6705,-5.6944,-5.7154,-5.7693,-5.7872,-5.7962,-5.865,-5.874,-5.8189,-5.6051,-5.4598,-5.3243,-5.1308,-5.0054,-4.9374,-4.9793,-4.9897,-4.974,-4.9218,-4.8908,-4.8428,-4.7334,-4.69,-4.6626,-4.6361,-4.6301,-4.6301,-4.6301,-4.6301,-4.6301,-4.6301,-4.6301,-4.6301,-4.6301,-4.6301,-4.6301,-4.6301,-4.6301,-4.6301,-4.6301,-4.6301,-4.6301,-4.6301,-4.6301,-4.6301,-4.6301,-4.6301,-4.6301,-4.6301,-4.6301,-4.6301,-4.6301,-4.6301,-4.6301,-4.6301,-4.6301,-4.6301,-4.6234,-4.7311,-4.8481,-5.1221,-5.3345,-5.4945,-5.5592,-5.6317,-5.681,-5.681,-5.681,-5.681,-5.681,-5.681,-5.6713,-5.6421,-5.6206,-5.594,-5.5691,-5.542,-5.5299,-5.5299,-5.5299,-5.5299,-5.5299,-5.5299,-5.5299,-5.5299,-5.5299,-5.5299,-5.5299,-5.5299,-5.5299,-5.5299,-5.5269,-5.5239,-5.5239,-5.5209,-5.5538,-5.6218,-5.6248,-5.6526,-5.7184,-5.7782,-5.7723,-5.7064,-5.6436,-5.6188,-5.6128,-5.5448,-5.5179,-5.5179,-5.5239,-5.5628,-5.6218,-5.6248,-5.6585,-5.7094,-5.7124,-5.7154,-5.7274,-5.7962,-5.7723,-5.7001,-5.5794,-5.4512,-5.313,-5.1308,-5.0342,-4.9845,-4.9871,-4.9897,-4.974,-4.9218,-4.9087,-4.8692,-4.7172,-4.6566,-4.6301,-4.6301,-4.6301,-4.6301,-4.6301,-4.6301,-4.6301,-4.6301,-4.6301,-4.6301,-4.6301,-4.6301,-4.6301,-4.6301,-4.6301,-4.6301,-4.6301,-4.6301,-4.6301,-4.6301,-4.6301,-4.6301,-4.6301,-4.6301,-4.6301,-4.6301,-4.6301,-4.6301,-4.6301,-4.6301,-4.6301,-4.6301,-4.6301,-4.6301,-4.5403,-4.6449,-4.7619,-5.0359,-5.1929,-5.3067,-5.4176,-5.4945,-5.5468,-5.5468,-5.5776,-5.6084,-5.6084,-5.6502,-5.6713,-5.6421,-5.6176,-5.5929,-5.5631,-5.5381,-5.5179,-5.5179,-5.5179,-5.5179,-5.5179,-5.5179,-5.5179,-5.5179,-5.5179,-5.5179,-5.5179,-5.5179,-5.5179,-5.5179,-5.5179,-5.5179,-5.5179,-5.5179,-5.5299,-5.5538,-5.5538,-5.5897,-5.6496,-5.6765,-5.6944,-5.7094,-5.6855,-5.6526,-5.6166,-5.5927,-5.5568,-5.5179,-5.5179,-5.5329,-5.5538,-5.5538,-5.5688,-5.5927,-5.6346,-5.6496,-5.6615,-5.7244,-5.7603,-5.7387,-5.5396,-5.4456,-5.3631,-5.1414,-5.0106,-4.9374,-4.9374,-4.9087,-4.8852,-4.9035,-4.9229,-4.911,-4.8323,-4.7167,-4.6301,-4.6301,-4.6301,-4.6301,-4.6301,-4.6301,-4.6301,-4.6301,-4.6301,-4.6301,-4.6301,-4.6627,-4.6828,-4.6828,-4.7129,-4.733,-4.733,-4.733,-4.7179,-4.6853,-4.6828,-4.6677,-4.6326,-4.6301,-4.6301,-4.6301,-4.6301,-4.6301,-4.6301,-4.6301,-4.6301,-4.6301,-4.6301,-4.6301,-4.3895,-4.5064,-4.6511,-4.9035,-5.0174,-5.1128,-5.2975,-5.3745,-5.4068,-5.4283,-5.4914,-5.5438,-5.5653,-5.6084,-5.6436,-5.6537,-5.6323,-5.6028,-5.578,-5.5481,-5.528,-5.5179,-5.5179,-5.5179,-5.5179,-5.5179,-5.5179,-5.5179,-5.5179,-5.5179,-5.5179,-5.5179,-5.5179,-5.5179,-5.5179,-5.5179,-5.5179,-5.5179,-5.5179,-5.5179,-5.5179,-5.5418,-5.5837,-5.6128,-5.6406,-5.6795,-5.7004,-5.6855,-5.6466,-5.6308,-5.5927,-5.5508,-5.5269,-5.5179,-5.5179,-5.5179,-5.5179,-5.5239,-5.5688,-5.5837,-5.5957,-5.6585,-5.7094,-5.709,-5.4998,-5.4288,-5.3717,-5.1414,-5.0106,-4.9348,-4.9348,-4.9061,-4.8852,-4.927,-4.9369,-4.9325,-4.9081,-4.7968,-4.6975,-4.6853,-4.6853,-4.6778,-4.6627,-4.6728,-4.6778,-4.6627,-4.6728,-4.6853,-4.6853,-4.7179,-4.738,-4.738,-4.7707,-4.7908,-4.7908,-4.7908,-4.7757,-4.7405,-4.738,-4.7154,-4.6602,-4.6602,-4.6502,-4.6301,-4.6301,-4.6301,-4.6301,-4.6301,-4.6301,-4.6301,-4.6301,-4.6301,0.0,0.0,0.0,-4.7004,-4.8019,-4.922,-5.1929,-5.2544,-5.276,-5.3468,-5.4099,-5.4822,-5.5499,-5.5653,-5.5899,-5.6625,-5.6537,-5.6323,-5.6028,-5.578,-5.5481,-5.5229,-5.5179,-5.5179,-5.5179,-5.5179,-5.5179,-5.5179,-5.5179,-5.5179,-5.5179,-5.5179,-5.5179,-5.5179,-5.5179,-5.5179,-5.5179,-5.5179,-5.5179,-5.5179,-5.5179,-5.5179,-5.5209,-5.5837,-5.6188,-5.6166,-5.6795,-5.7064,-5.7034,-5.6436,-5.6248,-5.6158,-5.5478,-5.5209,-5.5179,-5.5179,-5.5179,-5.5179,-5.5179,-5.5179,-5.5299,-5.5957,-5.6248,-5.5991,-5.4742,-5.4035,-5.3186,-5.1334,-5.0455,-4.9984,-4.9897,-4.9897,-4.9923,-4.9923,-4.9681,-4.9438,-4.9438,-4.8974,-4.8418,-4.797,-4.7908,-4.7732,-4.7193,-4.7581,-4.7732,-4.723,-4.7581,-4.7908,-4.7908,-4.7933,-4.7933,-4.7933,-4.7958,-4.7958,-4.7958,-4.7958,-4.7958,-4.7933,-4.7933,-4.7707,-4.7179,-4.7093,-4.6903,-4.6351,-4.6326,-4.6326,-4.6301,-4.6301,-4.6301,-4.6301,-4.6301,-4.6301,-4.0659,0.0,0.0,0.0,0.0,0.0,-4.7989,-4.8666,-4.9497,-5.119,-5.1682,-5.2329,-5.396,-5.4668,-5.5068,-5.5253,-5.5923,-5.6323,-5.6028,-5.578,-5.5481,-5.5229,-5.5179,-5.5179,-5.5179,-5.5179,-5.5179,-5.5179,-5.5179,-5.5179,-5.5179,-5.5179,-5.5179,-5.5179,-5.5179,-5.5179,-5.5179,-5.5179,-5.5179,-5.5179,-5.5179,-5.5179,-5.5209,-5.5388,-5.5478,-5.5508,-5.6137,-5.6436,-5.6436,-5.6735,-5.6585,-5.6166,-5.5987,-5.5598,-5.5179,-5.5179,-5.5179,-5.5179,-5.5179,-5.5179,-5.5299,-5.5957,-5.6466,-5.6525,-5.4884,-5.5254,-5.551,-5.2242,-5.1591,-5.1576,-5.0217,-5.0211,-5.0551,-5.0551,-5.0777,-5.094,-5.0691,-5.0315,-4.9708,-4.8545,-4.8119,-4.7857,-4.7707,-4.7807,-4.7857,-4.7707,-4.7807,-4.7908,-4.7908,-4.8259,-4.8535,-4.8535,-4.8887,-4.9138,-4.9138,-4.9138,-4.8962,-4.856,-4.8535,-4.8284,-4.7707,-4.7682,-4.7456,-4.6928,-4.6903,-4.6702,-4.6301,-4.6301,-4.6301,-4.6301,-4.6301,-4.6301,0.0,0.0,0.0,0.0,0.0,0.0,-4.6665,-4.7096,-4.7773,-4.9835,-5.0513,-5.1128,-5.2606,-5.3437,-5.3945,-5.4222,-5.5081,-5.5687,-5.5542,-5.5698,-5.5631,-5.5229,-5.5179,-5.5179,-5.5179,-5.5179,-5.5179,-5.5179,-5.5179,-5.5179,-5.5179,-5.5179,-5.5179,-5.5179,-5.5179,-5.5179,-5.5179,-5.5179,-5.5179,-5.5179,-5.5179,-5.5179,-5.5179,-5.5179,-5.5179,-5.5209,-5.5598,-5.5927,-5.6248,-5.6555,-5.6645,-5.6526,-5.6286,-5.5927,-5.5568,-5.5299,-5.5179,-5.5179,-5.5179,-5.5179,-5.5299,-5.5957,-5.6585,-5.6704,-5.4684,-5.5338,-5.6078,-5.2653,-5.2098,-5.2257,-5.0909,-5.0864,-5.1126,-5.1126,-5.1361,-5.1534,-5.1346,-5.1057,-5.0472,-4.9392,-4.8888,-4.8535,-4.8309,-4.846,-4.8535,-4.8309,-4.846,-4.8611,-4.8611,-4.8912,-4.9113,-4.9113,-4.9414,-4.959,-4.959,-4.959,-4.9464,-4.9138,-4.9113,-4.8862,-4.8284,-4.8259,-4.8008,-4.7456,-4.7193,-4.6853,-4.6301,-4.6301,-4.6301,-4.6301,-4.6301,-4.6301,0.0,0.0,0.0,0.0,-4.4055,0.0,-4.6449,-4.6634,-4.6911,-4.885,-4.9712,-5.0389,-5.119,-5.1929,-5.2544,-5.3067,-5.3883,-5.4604,-5.4891,-5.5463,-5.5739,-5.528,-5.5229,-5.5149,-5.5089,-5.5149,-5.5149,-5.5089,-5.5149,-5.5179,-5.5179,-5.5179,-5.5179,-5.5179,-5.5179,-5.5179,-5.5179,-5.5179,-5.5179,-5.5179,-5.5179,-5.5179,-5.5179,-5.5179,-5.5179,-5.5179,-5.5179,-5.5538,-5.6077,-5.6188,-5.6526,-5.7034,-5.6406,-5.6218,-5.6107,-5.5448,-5.5179,-5.5179,-5.5179,-5.5179,-5.5299,-5.5957,-5.6526,-5.6608,-5.4394,-5.4934,-5.5808,-5.2809,-5.2267,-5.2332,-5.175,-5.1596,-5.1596,-5.1596,-5.1596,-5.1596,-5.1596,-5.1372,-5.0931,-5.0321,-4.9912,-4.9504,-4.9026,-4.9328,-4.9439,-4.8937,-4.9289,-4.959,-4.959,-4.959,-4.959,-4.959,-4.959,-4.959,-4.959,-4.959,-4.959,-4.959,-4.959,-4.9364,-4.8887,-4.8862,-4.8586,-4.8008,-4.7431,-4.6853,-4.6301,-4.6301,-4.6301,-4.6301,-4.6301,-4.6301,0.0,0.0,0.0,0.0,-4.371,0.0,-4.3125,-4.3925,-4.5287,-4.6203,-4.648,-4.7127,-4.8881,-4.9805,-5.0112,-4.9682,-5.159,-5.3576,-5.501,-5.5135,-5.5243,-5.5471,-5.533,-5.497,-5.4461,-5.488,-5.497,-5.4431,-5.491,-5.5179,-5.5179,-5.5179,-5.5179,-5.5179,-5.5179,-5.5179,-5.5179,-5.5179,-5.5179,-5.5179,-5.5179,-5.5179,-5.5179,-5.5179,-5.5179,-5.5179,-5.5179,-5.5269,-5.5418,-5.6008,-5.6526,-5.7034,-5.6406,-5.6218,-5.6107,-5.5448,-5.5179,-5.5179,-5.5179,-5.5179,-5.5299,-5.5957,-5.6308,-5.6177,-5.5238,-5.5879,-5.6539,-5.4431,-5.3213,-5.2332,-5.175,-5.1596,-5.1596,-5.1596,-5.1596,-5.1596,-5.1596,-5.1372,-5.1057,-5.0931,-5.0423,-4.995,-4.9849,-4.9707,-4.9565,-4.9439,-4.9515,-4.959,-4.959,-4.959,-4.959,-4.959,-4.959,-4.959,-4.959,-4.959,-4.959,-4.959,-4.959,-4.954,-4.9439,-4.9439,-4.9163,-4.8611,-4.7631,-4.6853,-4.6301,-4.6301,-4.6301,-4.6301,-4.6301,-4.6301,0.0,0.0,0.0,-4.3248,-4.3587,0.0,0.0,-4.334,-4.4079,-4.5741,-4.5557,-4.5588,-4.7281,-4.7896,-4.8142,-4.8112,-5.0143,-5.213,-5.3316,-5.406,-5.4486,-5.4605,-5.434,-5.4072,-5.3713,-5.3982,-5.4192,-5.4221,-5.482,-5.5179,-5.5179,-5.5179,-5.5179,-5.5179,-5.5179,-5.5179,-5.5179,-5.5179,-5.5179,-5.5179,-5.5179,-5.5179,-5.5179,-5.5179,-5.5179,-5.5179,-5.5179,-5.5179,-5.5209,-5.5538,-5.6077,-5.6585,-5.6338,-5.6346,-5.6526,-5.5538,-5.5179,-5.5179,-5.5179,-5.5179,-5.5299,-5.5957,-5.6218,-5.602,-5.5153,-5.5007,-5.5054,-5.4176,-5.3407,-5.2756,-5.1857,-5.1596,-5.1596,-5.1596,-5.1596,-5.1596,-5.1596,-5.1471,-5.1346,-5.1346,-5.0931,-5.0487,-5.0193,-4.9976,-4.9783,-4.9654,-4.959,-4.959,-4.959,-4.959,-4.959,-4.959,-4.959,-4.959,-4.959,-4.959,-4.959,-4.959,-4.959,-4.959,-4.959,-4.959,-4.9339,-4.8786,-4.8234,-4.7556,-4.6728,-4.6979,-4.6828,-4.6301,-4.6301,-4.6451,0.0,0.0,-4.5226,-4.4579,-4.3987,-4.3618,0.0,0.0,0.0,-4.5249,-4.488,-4.4541,-4.5618,-4.5926,-4.6203,-4.6726,-4.8666,-5.0297,-5.082,-5.2169,-5.3155,-5.3313,-5.3345,-5.3181,-5.2942,-5.2744,-5.2995,-5.3952,-5.4371,-5.473,-5.497,-5.5119,-5.5179,-5.5179,-5.5179,-5.5179,-5.5179,-5.5179,-5.5179,-5.5179,-5.5179,-5.5179,-5.5179,-5.5179,-5.5179,-5.5179,-5.5179,-5.5179,-5.5179,-5.5179,-5.5598,-5.6218,-5.6047,-5.6346,-5.6765,-5.5628,-5.5179,-5.5179,-5.5179,-5.5179,-5.5269,-5.5807,-5.5987,-5.5803,-5.4861,-5.4305,-5.3849,-5.3471,-5.3472,-5.3264,-5.1962,-5.1596,-5.1596,-5.1596,-5.1596,-5.1596,-5.1596,-5.1596,-5.1596,-5.1596,-5.1346,-5.0994,-5.0295,-5.0129,-5.0001,-4.9654,-4.959,-4.959,-4.959,-4.959,-4.959,-4.959,-4.959,-4.959,-4.959,-4.959,-4.959,-4.959,-4.959,-4.959,-4.959,-4.959,-4.9339,-4.8786,-4.8761,-4.8284,-4.728,-4.7707,-4.7405,-4.6476,-4.6577,-4.6853,0.0,0.0,-4.7434,-4.4456,-4.5372,-4.5988,-4.1889,0.0,-4.3254,-4.2355,0.0,-4.2879,-4.3033,0.0,0.0,-4.4055,-4.6234,-4.7989,-4.805,-4.909,-5.0476,-5.2231,-5.3105,-5.3092,-5.1917,-5.1023,-5.1319,-5.3144,-5.2815,-5.3054,-5.4251,-5.488,-5.5179,-5.5179,-5.5179,-5.5179,-5.5179,-5.5179,-5.5179,-5.5179,-5.5179,-5.5179,-5.5179,-5.5179,-5.5179,-5.5179,-5.5179,-5.5179,-5.5179,-5.5179,-5.5598,-5.6158,-5.5538,-5.5718,-5.6196,-5.5448,-5.5179,-5.5179,-5.5179,-5.5179,-5.5209,-5.5269,-5.5299,-5.5299,-5.5147,-5.5475,-5.5545,-5.3891,-5.3865,-5.3849,-5.2068,-5.1596,-5.1596,-5.1596,-5.1596,-5.1596,-5.1596,-5.1596,-5.1596,-5.1596,-5.1596,-5.1346,-5.0652,-5.0295,-5.0001,-4.9654,-4.959,-4.959,-4.959,-4.959,-4.959,-4.959,-4.959,-4.959,-4.959,-4.959,-4.959,-4.959,-4.959,-4.959,-4.959,-4.959,-4.9339,-4.8786,-4.8761,-4.846,-4.7832,-4.7883,-4.7606,-4.6993,-4.7506,-4.7757,0.0,0.0,-4.7496,-4.5311,-4.5311,-4.5126,-4.2355,-4.1771,-4.1863,-4.214,0.0,0.0,0.0,0.0,0.0,0.0,-4.4941,-4.6296,-4.5895,-4.763,-4.9469,-5.0961,-5.065,-5.0306,-5.0411,-5.0274,-5.0704,-5.1947,-5.1798,-5.2037,-5.2995,-5.4042,-5.461,-5.461,-5.4999,-5.5179,-5.5179,-5.5179,-5.5179,-5.5179,-5.5179,-5.5179,-5.5179,-5.5179,-5.5179,-5.5179,-5.5179,-5.5179,-5.5179,-5.5179,-5.5359,-5.5568,-5.5299,-5.5598,-5.6107,-5.5448,-5.5179,-5.5179,-5.5179,-5.5179,-5.5179,-5.5179,-5.5179,-5.5179,-5.5179,-5.5658,-5.579,-5.3919,-5.3893,-5.3932,-5.2095,-5.1596,-5.1596,-5.1596,-5.1596,-5.1596,-5.1596,-5.1596,-5.1596,-5.1596,-5.1596,-5.1408,-5.0715,-5.0487,-5.0232,-4.9654,-4.959,-4.959,-4.959,-4.959,-4.959,-4.959,-4.959,-4.959,-4.959,-4.959,-4.959,-4.959,-4.959,-4.959,-4.959,-4.959,-4.949,-4.9264,-4.9238,-4.8962,-4.841,-4.8736,-4.8611,-4.8083,-4.7958,-4.8083,-4.7373,-4.7804,-4.7958,-4.5834,-4.5095,-4.4356,-4.2479,-4.1678,-4.1586,-4.2448,-4.2232,0.0,0.0,0.0,0.0,0.0,0.0,-4.5164,-4.4671,-4.6265,-4.7876,-4.8917,-4.8419,-4.8468,-4.9537,-4.9419,-4.9674,-5.0693,-5.0361,-5.0661,-5.1858,-5.3204,-5.4012,-5.4192,-5.485,-5.5179,-5.5179,-5.5179,-5.5179,-5.5179,-5.5179,-5.5179,-5.5179,-5.5179,-5.5179,-5.5179,-5.5179,-5.5179,-5.5179,-5.5179,-5.5179,-5.5179,-5.5179,-5.5478,-5.5837,-5.5359,-5.5179,-5.5179,-5.5179,-5.5179,-5.5179,-5.5179,-5.5179,-5.5179,-5.5179,-5.5658,-5.579,-5.3919,-5.3893,-5.3932,-5.2095,-5.1596,-5.1596,-5.1596,-5.1596,-5.1596,-5.1596,-5.1596,-5.1596,-5.1596,-5.1596,-5.1408,-5.0715,-5.0588,-5.0334,-4.9719,-4.959,-4.959,-4.959,-4.959,-4.959,-4.959,-4.959,-4.959,-4.959,-4.959,-4.959,-4.959,-4.959,-4.959,-4.959,-4.959,-4.959,-4.959,-4.959,-4.9389,-4.9012,-4.9389,-4.9389,-4.8987,-4.856,-4.8586,-4.8912,-4.9558,-4.962,-4.5657,-4.5095,-4.4695,-4.1304,-4.2078,-4.3347,-4.2725,-4.411,-4.5249,-4.4671,0.0,0.0,0.0,0.0,0.0,0.0,-4.4702,-4.4972,-4.5649,-4.7221,-4.8724,-4.9772,-4.7963,-4.7533,-4.9523,-4.8279,-4.8536,-5.1109,-5.2486,-5.3533,-5.4192,-5.485,-5.5179,-5.5179,-5.5179,-5.5179,-5.5179,-5.5179,-5.5179,-5.5179,-5.5179,-5.5179,-5.5179,-5.5179,-5.5179,-5.5179,-5.5179,-5.5179,-5.5179,-5.5179,-5.5209,-5.5209,-5.5209,-5.5179,-5.5179,-5.5179,-5.5179,-5.5179,-5.5179,-5.5179,-5.5179,-5.5179,-5.5658,-5.579,-5.3919,-5.3893,-5.3932,-5.2095,-5.1596,-5.1596,-5.1596,-5.1596,-5.1596,-5.1596,-5.1596,-5.1596,-5.1596,-5.1596,-5.1408,-5.0715,-5.0588,-5.0334,-4.9719,-4.959,-4.959,-4.959,-4.959,-4.959,-4.959,-4.959,-4.959,-4.959,-4.959,-4.959,-4.959,-4.959,-4.959,-4.959,-4.959,-4.959,-4.959,-4.959,-4.959,-4.9565,-4.959,-4.959,-4.9565,-4.954,-4.9565,-4.9609,-5.0289,-5.0358,-4.716,-4.63,-4.5495,-4.2571,-4.2756,-4.3439,-4.2756,-4.4202,-4.5372,0.0,0.0,0.0,0.0,0.0,0.0,0.0,-4.3279,-4.3679,-4.4825,-4.6557,-4.7607,-4.7524,-4.7383,-4.7563,-4.8257,-4.7679,-4.7878,-4.9194,-5.093,-5.2187,-5.2875,-5.3952,-5.476,-5.5179,-5.5179,-5.5179,-5.5179,-5.5179,-5.5179,-5.5179,-5.5179,-5.5179,-5.5179,-5.5179,-5.5179,-5.5179,-5.5179,-5.5179,-5.5179,-5.5179,-5.5179,-5.5179,-5.5179,-5.5179,-5.5179,-5.5179,-5.5179,-5.5179,-5.5179,-5.5179,-5.5179,-5.5179,-5.5086,-5.4783,-5.3668,-5.3292,-5.2961,-5.1848,-5.1596,-5.1596,-5.1596,-5.1596,-5.1596,-5.1596,-5.1596,-5.1596,-5.1596,-5.1596,-5.1471,-5.0994,-5.0715,-5.0334,-4.9719,-4.959,-4.959,-4.959,-4.959,-4.959,-4.959,-4.959,-4.959,-4.959,-4.959,-4.959,-4.959,-4.959,-4.959,-4.959,-4.959,-4.959,-4.959,-4.959,-4.959,-4.959,-4.959,-4.959,-4.959,-4.959,-4.959,-5.0045,-5.0512,-5.0615,-4.826,-4.7436,-4.6576,-4.4195,-4.4541,-4.5187,-4.451,-4.5803,-4.6973,0.0,0.0,0.0,0.0,0.0,0.0,0.0,-4.2448,-4.3002,-4.4117,-4.5501,0.0,0.0,-4.6436,-4.6713,-4.7563,-4.6779,-4.683,-4.8207,-4.9942,-5.1169,-5.1828,-5.3384,-5.4431,-5.485,-5.5059,-5.5179,-5.5179,-5.5179,-5.5179,-5.5179,-5.5179,-5.5179,-5.5179,-5.5179,-5.5179,-5.5179,-5.5179,-5.5179,-5.5179,-5.5179,-5.5179,-5.5179,-5.5179,-5.5179,-5.5179,-5.5179,-5.5179,-5.5179,-5.5179,-5.5179,-5.5179,-5.5179,-5.4989,-5.4597,-5.4194,-5.381,-5.3334,-5.2532,-5.2253,-5.213,-5.1721,-5.1596,-5.1596,-5.1596,-5.1596,-5.1596,-5.1596,-5.1596,-5.1471,-5.1183,-5.0931,-5.055,-4.9847,-4.9654,-4.959,-4.959,-4.959,-4.959,-4.959,-4.959,-4.959,-4.959,-4.959,-4.959,-4.959,-4.959,-4.959,-4.959,-4.959,-4.959,-4.959,-4.959,-4.959,-4.959,-4.959,-4.959,-4.959,-4.959,-4.959]},{"header":{"parameterUnit":"m.s-1","parameterCategory":1,"la1":30.6,"la2":29.2853,"lo1":-89.7004,"lo2":-87.6739,"dy":0.0162,"dx":0.0183,"nx":112,"ny":82,"refTime":"2025-04-17T12:00:00:Z","depth":0,"parameterNumber":3,"parameterNumberName":"V-component_of_WINDS"},"data":[0.0,0.0,0.0,0.0,0.0,0.0,0.0,0.0,0.0,0.0,0.0,0.0,0.0,0.0,0.0,0.0,0.0,0.0,0.0,0.0,0.0,0.0,0.0,0.0,0.0,0.0,0.0,0.0,0.0,0.0,0.0,0.0,0.0,0.0,0.0,0.0,0.0,0.0,0.0,0.0,0.0,0.0,0.0,0.0,0.0,0.0,0.0,0.0,0.0,0.0,0.0,0.0,0.0,0.0,0.0,0.0,0.0,0.0,0.0,0.0,0.0,0.0,0.0,0.0,0.0,0.0,0.0,0.0,0.0,0.0,0.0,0.0,0.0,0.0,0.0,0.0,0.0,0.0,0.0,0.0,0.0,0.0,0.0,0.0,0.0,0.0,0.0,0.0,0.0,0.0,3.6479,3.8682,4.0432,4.1554,4.1908,4.0082,3.8019,3.5887,0.0,0.0,0.0,0.0,0.0,0.0,0.0,0.0,0.0,0.0,0.0,0.0,0.0,0.0,0.0,0.0,0.0,0.0,0.0,0.0,0.0,0.0,0.0,0.0,0.0,0.0,0.0,0.0,0.0,0.0,0.0,0.0,0.0,0.0,0.0,0.0,0.0,0.0,0.0,0.0,0.0,0.0,0.0,0.0,0.0,0.0,0.0,0.0,0.0,0.0,0.0,0.0,0.0,0.0,0.0,0.0,0.0,0.0,0.0,0.0,0.0,0.0,0.0,0.0,0.0,0.0,0.0,0.0,0.0,0.0,0.0,0.0,0.0,0.0,0.0,0.0,0.0,0.0,0.0,0.0,0.0,0.0,0.0,0.0,0.0,0.0,0.0,0.0,0.0,0.0,0.0,0.0,0.0,0.0,0.0,0.0,0.0,0.0,0.0,0.0,0.0,0.0,0.0,0.0,3.8407,4.228,4.2952,4.3,4.2664,4.155,3.9688,3.7066,0.0,0.0,0.0,0.0,0.0,0.0,0.0,0.0,0.0,0.0,0.0,0.0,0.0,0.0,0.0,0.0,0.0,0.0,0.0,0.0,0.0,0.0,0.0,0.0,0.0,0.0,0.0,0.0,0.0,0.0,0.0,0.0,0.0,0.0,0.0,0.0,0.0,0.0,0.0,0.0,0.0,0.0,0.0,0.0,0.0,0.0,0.0,0.0,0.0,0.0,0.0,0.0,0.0,0.0,0.0,0.0,0.0,0.0,0.0,0.0,0.0,0.0,0.0,0.0,0.0,0.0,0.0,0.0,0.0,0.0,0.0,0.0,0.0,0.0,0.0,0.0,0.0,0.0,0.0,0.0,0.0,0.0,0.0,0.0,0.0,0.0,0.0,0.0,0.0,0.0,0.0,0.0,0.0,0.0,0.0,0.0,0.0,0.0,0.0,0.0,0.0,0.0,0.0,3.8118,3.9994,4.2808,4.3337,4.3313,4.2867,4.1798,4.0146,3.7798,3.5432,0.0,0.0,0.0,0.0,0.0,0.0,0.0,0.0,0.0,0.0,0.0,0.0,0.0,0.0,0.0,0.0,0.0,0.0,0.0,0.0,0.0,0.0,0.0,0.0,0.0,0.0,0.0,0.0,0.0,0.0,0.0,0.0,0.0,0.0,0.0,0.0,0.0,0.0,0.0,0.0,0.0,0.0,0.0,0.0,0.0,0.0,0.0,0.0,0.0,0.0,0.0,0.0,0.0,0.0,0.0,0.0,0.0,0.0,0.0,0.0,0.0,0.0,0.0,0.0,0.0,0.0,0.0,0.0,0.0,0.0,0.0,0.0,0.0,0.0,0.0,0.0,0.0,0.0,0.0,0.0,0.0,0.0,0.0,0.0,0.0,0.0,0.0,0.0,0.0,0.0,0.0,0.0,0.0,0.0,0.0,0.0,0.0,0.0,0.0,0.0,0.0,0.0,3.9994,4.1509,4.2976,4.3481,4.3457,4.2867,4.1798,4.0258,3.8118,3.6006,0.0,0.0,0.0,0.0,0.0,0.0,0.0,0.0,0.0,0.0,0.0,0.0,0.0,0.0,0.0,0.0,0.0,0.0,0.0,0.0,0.0,0.0,0.0,0.0,0.0,0.0,0.0,0.0,0.0,0.0,0.0,0.0,0.0,0.0,0.0,0.0,0.0,0.0,0.0,0.0,0.0,0.0,0.0,0.0,0.0,0.0,0.0,0.0,0.0,0.0,0.0,0.0,0.0,0.0,0.0,0.0,0.0,0.0,0.0,0.0,0.0,0.0,0.0,0.0,0.0,0.0,0.0,0.0,0.0,0.0,0.0,0.0,0.0,0.0,0.0,0.0,0.0,0.0,0.0,0.0,0.0,0.0,0.0,0.0,0.0,0.0,0.0,0.0,0.0,0.0,0.0,0.0,0.0,0.0,0.0,0.0,0.0,0.0,0.0,0.0,0.0,0.0,4.0715,4.3024,4.4069,4.4213,4.3866,4.2916,4.1798,4.0258,3.8118,3.5975,0.0,0.0,0.0,0.0,0.0,0.0,0.0,0.0,0.0,0.0,0.0,0.0,0.0,0.0,0.0,0.0,0.0,0.0,0.0,0.0,0.0,0.0,0.0,0.0,0.0,0.0,0.0,0.0,0.0,0.0,0.0,0.0,0.0,0.0,0.0,0.0,0.0,0.0,0.0,0.0,0.0,0.0,0.0,0.0,0.0,0.0,0.0,0.0,0.0,0.0,0.0,0.0,0.0,0.0,0.0,0.0,0.0,0.0,0.0,0.0,0.0,0.0,0.0,0.0,0.0,0.0,0.0,0.0,0.0,0.0,0.0,0.0,0.0,0.0,0.0,0.0,0.0,0.0,0.0,0.0,0.0,0.0,0.0,0.0,0.0,0.0,0.0,0.0,0.0,0.0,0.0,0.0,0.0,0.0,0.0,0.0,0.0,0.0,0.0,0.0,0.0,0.0,4.021,4.2423,4.4093,4.4285,4.3914,4.2916,4.2145,4.0475,3.7661,0.0,0.0,0.0,0.0,0.0,0.0,0.0,0.0,0.0,0.0,0.0,0.0,0.0,0.0,0.0,0.0,0.0,0.0,0.0,0.0,0.0,0.0,0.0,0.0,0.0,0.0,0.0,0.0,0.0,0.0,0.0,0.0,0.0,0.0,0.0,0.0,0.0,0.0,0.0,0.0,0.0,0.0,0.0,0.0,0.0,0.0,0.0,0.0,0.0,0.0,0.0,0.0,0.0,0.0,0.0,0.0,0.0,0.0,0.0,0.0,0.0,0.0,0.0,0.0,0.0,0.0,0.0,0.0,0.0,0.0,0.0,0.0,0.0,0.0,0.0,0.0,0.0,0.0,0.0,0.0,0.0,0.0,0.0,0.0,0.0,0.0,0.0,0.0,0.0,0.0,0.0,0.0,0.0,0.0,0.0,0.0,0.0,0.0,0.0,0.0,0.0,0.0,3.7757,4.0138,4.2375,4.4093,4.4117,4.3721,4.2891,4.1822,4.0066,3.7372,0.0,0.0,0.0,0.0,0.0,0.0,0.0,0.0,0.0,0.0,0.0,0.0,0.0,0.0,0.0,0.0,0.0,0.0,0.0,0.0,0.0,0.0,0.0,0.0,0.0,0.0,0.0,0.0,0.0,0.0,0.0,0.0,0.0,0.0,0.0,0.0,0.0,0.0,0.0,0.0,0.0,0.0,0.0,0.0,0.0,0.0,0.0,0.0,0.0,0.0,0.0,0.0,0.0,0.0,0.0,0.0,0.0,0.0,0.0,0.0,0.0,0.0,0.0,0.0,0.0,0.0,0.0,0.0,0.0,0.0,0.0,0.0,0.0,0.0,0.0,0.0,0.0,0.0,0.0,0.0,0.0,0.0,0.0,0.0,0.0,0.0,0.0,0.0,0.0,0.0,0.0,0.0,0.0,0.0,0.0,0.0,0.0,0.0,0.0,0.0,0.0,0.0,3.7829,4.082,4.3168,4.4165,4.3842,4.3313,4.2867,4.0812,3.8912,0.0,0.0,0.0,0.0,0.0,0.0,0.0,0.0,0.0,0.0,0.0,0.0,0.0,0.0,0.0,0.0,0.0,0.0,0.0,0.0,0.0,0.0,0.0,0.0,0.0,0.0,0.0,0.0,0.0,0.0,0.0,0.0,0.0,0.0,0.0,0.0,0.0,0.0,0.0,0.0,0.0,0.0,0.0,0.0,0.0,0.0,0.0,0.0,0.0,0.0,0.0,0.0,0.0,0.0,0.0,0.0,0.0,0.0,0.0,0.0,0.0,0.0,0.0,0.0,0.0,0.0,0.0,0.0,0.0,0.0,0.0,0.0,0.0,0.0,0.0,0.0,0.0,0.0,0.0,0.0,0.0,0.0,0.0,0.0,0.0,0.0,0.0,0.0,0.0,0.0,0.0,0.0,0.0,0.0,0.0,0.0,0.0,0.0,0.0,0.0,0.0,0.0,0.0,3.7685,4.1079,4.3476,4.3493,4.3687,4.3385,4.2338,4.0619,3.8767,3.6771,0.0,0.0,0.0,0.0,0.0,0.0,0.0,0.0,0.0,0.0,0.0,0.0,0.0,0.0,0.0,0.0,0.0,0.0,0.0,0.0,0.0,0.0,0.0,0.0,0.0,0.0,0.0,0.0,0.0,0.0,0.0,0.0,0.0,0.0,0.0,0.0,0.0,0.0,0.0,0.0,0.0,0.0,0.0,0.0,0.0,0.0,0.0,0.0,0.0,0.0,0.0,0.0,0.0,0.0,0.0,0.0,0.0,0.0,0.0,0.0,0.0,0.0,0.0,0.0,0.0,0.0,0.0,0.0,0.0,0.0,0.0,0.0,0.0,0.0,0.0,0.0,0.0,0.0,0.0,0.0,0.0,0.0,0.0,0.0,0.0,0.0,0.0,0.0,0.0,0.0,0.0,0.0,0.0,0.0,0.0,0.0,0.0,0.0,0.0,0.0,0.0,0.0,3.7724,4.1065,4.337,4.3389,4.3511,4.3159,4.2074,4.074,3.9019,3.686,0.0,0.0,0.0,0.0,0.0,0.0,0.0,0.0,0.0,0.0,0.0,0.0,0.0,0.0,0.0,0.0,0.0,0.0,0.0,0.0,0.0,0.0,0.0,0.0,0.0,0.0,0.0,0.0,0.0,0.0,0.0,0.0,0.0,0.0,0.0,0.0,0.0,0.0,0.0,0.0,0.0,0.0,0.0,0.0,0.0,0.0,0.0,0.0,0.0,0.0,0.0,0.0,0.0,0.0,0.0,0.0,0.0,0.0,0.0,0.0,0.0,0.0,0.0,0.0,0.0,0.0,0.0,0.0,0.0,0.0,0.0,0.0,0.0,0.0,0.0,0.0,0.0,0.0,0.0,0.0,0.0,0.0,0.0,0.0,0.0,0.0,0.0,0.0,0.0,0.0,0.0,0.0,0.0,0.0,0.0,0.0,0.0,0.0,0.0,0.0,0.0,0.0,3.7907,4.0912,4.3127,4.3512,4.3118,4.2602,4.198,4.0979,3.9455,3.7315,0.0,0.0,0.0,0.0,0.0,0.0,0.0,0.0,0.0,0.0,0.0,0.0,0.0,0.0,0.0,0.0,0.0,0.0,0.0,0.0,0.0,0.0,0.0,0.0,0.0,0.0,0.0,0.0,0.0,0.0,0.0,0.0,0.0,0.0,0.0,0.0,0.0,0.0,0.0,0.0,0.0,0.0,0.0,0.0,0.0,0.0,0.0,0.0,0.0,0.0,0.0,0.0,0.0,0.0,0.0,0.0,0.0,0.0,0.0,0.0,3.9201,3.8647,0.0,0.0,0.0,0.0,0.0,0.0,0.0,0.0,0.0,0.0,0.0,0.0,0.0,0.0,0.0,0.0,0.0,0.0,0.0,0.0,0.0,0.0,0.0,0.0,0.0,0.0,0.0,0.0,0.0,0.0,0.0,0.0,0.0,0.0,0.0,0.0,0.0,0.0,0.0,0.0,3.7742,4.1155,4.3405,4.2797,4.2648,4.2263,4.1496,4.007,3.8567,3.7266,3.5376,0.0,0.0,0.0,0.0,0.0,0.0,0.0,0.0,0.0,0.0,0.0,0.0,0.0,0.0,0.0,0.0,0.0,0.0,0.0,0.0,0.0,0.0,0.0,0.0,0.0,0.0,0.0,0.0,0.0,0.0,0.0,0.0,0.0,0.0,0.0,0.0,0.0,0.0,0.0,0.0,0.0,0.0,0.0,0.0,0.0,0.0,0.0,0.0,0.0,0.0,0.0,0.0,0.0,0.0,0.0,0.0,0.0,0.0,0.0,4.0727,4.0001,0.0,0.0,0.0,0.0,0.0,0.0,0.0,0.0,0.0,0.0,0.0,0.0,0.0,0.0,0.0,0.0,0.0,0.0,0.0,0.0,0.0,0.0,0.0,0.0,0.0,0.0,0.0,0.0,0.0,0.0,0.0,0.0,0.0,0.0,0.0,0.0,0.0,0.0,0.0,0.0,3.8216,4.105,4.2955,4.2762,4.2513,4.2083,4.134,4.0248,3.9131,3.809,3.6378,0.0,0.0,0.0,0.0,0.0,0.0,0.0,0.0,0.0,0.0,0.0,0.0,0.0,0.0,0.0,0.0,0.0,0.0,0.0,0.0,0.0,0.0,0.0,0.0,0.0,0.0,0.0,0.0,0.0,0.0,0.0,0.0,0.0,0.0,0.0,0.0,0.0,0.0,0.0,0.0,0.0,0.0,0.0,0.0,0.0,0.0,0.0,0.0,0.0,0.0,0.0,0.0,0.0,4.3539,4.3835,4.424,4.424,4.4289,4.4289,4.293,4.2107,4.1675,4.1035,0.0,0.0,0.0,0.0,0.0,0.0,0.0,0.0,0.0,0.0,0.0,0.0,0.0,0.0,0.0,0.0,0.0,0.0,0.0,0.0,0.0,0.0,3.9647,3.9923,4.0049,3.9343,3.6453,0.0,0.0,0.0,0.0,0.0,0.0,0.0,0.0,0.0,0.0,0.0,3.8894,4.0981,4.2539,4.2936,4.2464,4.1831,4.1326,4.0752,3.9948,3.8944,3.7666,3.6248,0.0,0.0,0.0,0.0,0.0,0.0,0.0,0.0,0.0,0.0,0.0,0.0,0.0,0.0,0.0,0.0,0.0,0.0,0.0,0.0,0.0,0.0,0.0,0.0,0.0,0.0,0.0,0.0,0.0,0.0,0.0,0.0,4.1196,4.1798,0.0,0.0,0.0,0.0,0.0,0.0,0.0,0.0,0.0,0.0,0.0,0.0,0.0,4.2167,4.2692,4.4112,4.4798,4.4749,4.5682,4.6052,4.598,4.598,4.623,4.6656,4.6456,0.0,4.3373,4.2315,0.0,0.0,0.0,0.0,0.0,0.0,0.0,0.0,0.0,0.0,0.0,0.0,0.0,0.0,0.0,0.0,0.0,0.0,0.0,0.0,0.0,0.0,4.2208,4.1329,4.148,4.148,4.0045,3.8342,3.6864,3.6135,3.5687,3.5386,0.0,0.0,0.0,0.0,0.0,0.0,3.9496,4.1505,4.2886,4.2961,4.2057,4.1376,4.13,4.04,3.9546,3.8969,3.7814,3.6764,3.5827,3.3891,0.0,0.0,0.0,0.0,0.0,0.0,0.0,0.0,0.0,0.0,0.0,0.0,0.0,0.0,0.0,0.0,0.0,0.0,0.0,0.0,0.0,0.0,0.0,0.0,0.0,0.0,0.0,0.0,0.0,4.0812,4.1701,4.1942,4.1966,4.1846,0.0,0.0,0.0,0.0,0.0,0.0,0.0,0.0,0.0,4.2717,4.3433,4.4268,4.5316,4.6312,4.7246,4.8046,4.8482,4.8885,4.9113,4.9113,4.9238,4.9439,4.9113,4.8259,4.6885,4.4867,4.3581,4.2765,0.0,0.0,0.0,0.0,4.0397,4.0807,4.118,4.1454,4.1554,4.0931,0.0,0.0,0.0,0.0,0.0,0.0,0.0,4.1003,4.1053,4.2258,4.3388,4.3212,4.3363,4.3338,4.2534,4.1354,3.9898,3.8165,3.7839,3.7387,3.5759,3.5604,0.0,0.0,0.0,3.917,4.0049,4.153,4.269,4.2936,4.2007,4.1275,4.1275,4.0325,3.9828,4.0157,3.8892,3.8377,3.883,3.6761,3.5381,0.0,0.0,0.0,0.0,0.0,0.0,0.0,0.0,0.0,0.0,0.0,0.0,0.0,0.0,0.0,0.0,0.0,0.0,0.0,0.0,0.0,0.0,0.0,0.0,0.0,0.0,0.0,0.0,4.1413,4.2182,4.2182,4.2279,4.211,0.0,0.0,0.0,0.0,0.0,0.0,4.3169,4.3718,4.4274,4.5032,4.5764,4.6734,4.7895,4.851,4.9389,5.0645,5.0645,5.087,5.1272,5.1272,5.1272,5.1247,5.067,5.0193,4.959,4.6979,4.5454,4.4602,4.3024,4.2451,4.2451,4.2451,4.2718,4.3193,4.394,4.4242,4.4116,4.3438,4.2007,4.0325,3.9195,0.0,0.0,0.0,0.0,4.2057,4.2459,4.3413,4.435,4.4947,4.5182,4.5131,4.4573,4.4173,4.3047,4.0304,3.9823,3.9195,3.6937,3.6935,0.0,3.6611,3.8266,3.9848,4.0802,4.1835,4.259,4.2936,4.2007,4.1275,4.1275,4.0561,4.0415,4.1169,4.0406,4.0357,4.1292,3.9573,3.8247,3.7382,0.0,0.0,0.0,0.0,0.0,0.0,0.0,0.0,0.0,0.0,0.0,0.0,0.0,0.0,0.0,0.0,0.0,0.0,0.0,0.0,0.0,0.0,0.0,0.0,0.0,0.0,0.0,0.0,0.0,4.2771,4.3144,0.0,0.0,0.0,0.0,4.3222,4.3958,4.4653,4.5219,4.6068,4.6774,4.7321,4.8621,4.9665,5.0243,5.082,5.1147,5.1247,5.1247,5.1247,5.1272,5.1272,5.1272,5.1247,5.067,5.0393,5.0193,4.7958,4.6667,4.604,4.4886,4.4435,4.4435,4.4435,4.4844,4.5321,4.5397,4.5397,4.5472,4.5949,4.4618,4.261,4.1451,4.1125,0.0,0.0,4.2007,4.3689,4.3714,4.4543,4.554,4.6186,4.673,4.6991,4.6417,4.626,4.5404,4.2583,4.1178,4.0275,3.9597,0.0,3.9521,3.9496,4.0475,4.143,4.2062,4.264,4.2936,4.2986,4.2007,4.1275,4.1275,4.1209,4.1169,4.1219,4.2084,4.2418,4.1964,4.1265,4.0368,3.919,3.692,0.0,0.0,0.0,0.0,0.0,0.0,0.0,0.0,0.0,0.0,0.0,0.0,0.0,0.0,0.0,0.0,0.0,0.0,0.0,0.0,0.0,0.0,0.0,0.0,0.0,0.0,0.0,0.0,4.4063,4.4596,0.0,4.4219,4.4143,4.4375,4.5086,4.5637,4.6464,4.7703,4.8618,4.9361,4.9937,5.0403,5.0946,5.1498,5.1699,5.2,5.2352,5.2352,5.2352,5.2352,5.2352,5.2352,5.2302,5.1373,5.0971,5.0845,4.9339,4.8385,4.7782,4.6677,4.625,4.625,4.625,4.6376,4.6602,4.6928,4.7054,4.6903,4.605,4.4744,4.3363,4.261,4.3161,4.3884,4.2907,4.4845,4.7024,4.6233,4.7205,4.8387,4.8602,4.8822,4.8822,4.8288,4.8154,4.7749,4.6351,4.3968,4.1706,4.045,4.0526,4.0501,3.9798,4.0927,4.1932,4.2187,4.269,4.2986,4.2986,4.2608,4.2315,4.2315,4.2303,4.2501,4.315,4.2937,4.3306,4.4447,4.2838,4.1842,4.1682,3.9621,3.8058,0.0,0.0,0.0,0.0,0.0,0.0,0.0,0.0,0.0,0.0,0.0,0.0,0.0,0.0,0.0,0.0,0.0,0.0,0.0,0.0,0.0,0.0,0.0,0.0,0.0,4.3033,4.405,4.5048,4.5904,4.62,4.5712,4.5958,4.6415,4.7131,4.752,4.8194,4.9466,5.0087,5.0695,5.1272,5.1473,5.1825,5.2377,5.2377,5.2578,5.2929,5.2929,5.2929,5.2929,5.2729,5.2754,5.2854,5.1548,5.1096,5.1197,5.0067,4.9389,4.8962,4.8259,4.7958,4.7958,4.7958,4.7958,4.7983,4.8134,4.8209,4.7958,4.6502,4.5522,4.4794,4.4041,4.5078,4.6256,4.5283,4.7126,4.922,4.8376,4.904,5.0014,5.0406,5.0518,5.0408,5.0078,4.9996,4.9694,4.8763,4.6348,4.4077,4.2759,4.2783,4.2547,4.1309,4.2519,4.3476,4.3121,4.3701,4.4126,4.4126,4.373,4.3462,4.3462,4.3372,4.3606,4.4266,4.3789,4.4096,4.5502,4.3655,4.2639,4.2702,4.0786,3.916,3.7883,0.0,0.0,0.0,0.0,0.0,0.0,0.0,0.0,0.0,0.0,0.0,0.0,0.0,0.0,0.0,0.0,0.0,0.0,0.0,0.0,0.0,0.0,0.0,4.236,4.4168,4.549,4.5768,4.6998,4.7435,4.6488,4.805,4.9187,4.9187,4.9446,4.9891,5.0419,5.0444,5.072,5.1297,5.1825,5.2377,5.2929,5.2929,5.2929,5.2929,5.2929,5.2929,5.2904,5.2377,5.2427,5.2829,5.1197,5.077,5.1197,5.0092,4.964,4.9615,4.9615,4.959,4.959,4.959,4.959,4.9515,4.8987,4.8761,4.856,4.7506,4.7068,4.6903,4.5849,4.677,4.8021,4.7471,4.8622,5.0014,4.9958,4.9958,5.0294,5.1456,5.1757,5.1757,5.1757,5.1757,5.1234,4.9556,4.8273,4.7293,4.6614,4.6426,4.5763,4.4098,4.5287,0.0,4.4886,4.5661,4.6267,4.6267,4.5312,4.4656,4.4656,4.4442,4.4359,4.4331,4.4662,4.4879,4.4879,4.366,4.2702,4.2121,4.0234,3.8638,3.7389,0.0,0.0,0.0,0.0,0.0,0.0,0.0,0.0,0.0,0.0,0.0,0.0,0.0,0.0,0.0,0.0,0.0,0.0,0.0,0.0,0.0,4.3021,4.4092,4.4508,4.538,4.6513,4.7972,4.8868,4.947,4.9856,5.0347,5.0688,5.0688,5.0754,5.0896,5.1046,5.1046,5.1297,5.185,5.2026,5.2377,5.2929,5.2929,5.2929,5.2929,5.2929,5.2929,5.2929,5.2779,5.2779,5.2879,5.2026,5.1498,5.1247,5.0946,5.0569,5.0142,4.9741,4.959,4.959,4.959,4.959,4.9565,4.9414,4.8837,4.8109,4.7782,4.7179,4.6476,4.6175,4.7639,4.9194,4.8174,5.0102,5.2326,5.1401,5.1866,5.2623,5.2943,5.2996,5.2996,5.2996,5.2996,5.2832,5.2395,5.1656,5.0275,4.756,4.6645,4.6161,4.5684,4.6002,4.6162,4.5926,4.611,4.6267,4.6267,4.5921,4.5699,4.5699,4.5562,4.5228,4.4768,4.4833,4.4879,4.4879,4.366,4.2702,4.2121,4.1105,4.0176,0.0,0.0,0.0,0.0,0.0,0.0,0.0,0.0,0.0,0.0,0.0,0.0,0.0,0.0,0.0,0.0,0.0,0.0,0.0,0.0,0.0,0.0,4.4749,4.6163,4.7035,4.7457,4.8078,4.9271,5.0248,5.1047,5.1599,5.1825,5.1875,5.1649,5.1423,5.1172,5.0946,5.0695,5.0946,5.1724,5.1749,5.2126,5.2929,5.2929,5.2929,5.2929,5.2929,5.2929,5.2929,5.2678,5.2703,5.2879,5.2101,5.1699,5.1599,5.1373,5.1071,5.072,0.0,0.0,0.0,0.0,4.959,4.9654,5.0181,4.9785,4.9055,4.9412,4.8558,4.7504,4.8073,4.9032,4.9899,4.9973,5.168,5.3343,5.2648,5.2943,5.35,5.35,5.35,5.35,5.35,5.35,5.35,5.35,5.3007,0.0,4.9511,4.855,4.7894,4.7102,4.7434,4.7536,4.7074,4.7434,4.774,4.774,4.7193,4.6794,4.6794,4.627,0.0,0.0,0.0,4.4531,4.3747,4.2731,0.0,0.0,0.0,0.0,0.0,4.1366,0.0,0.0,3.8841,3.9102,0.0,0.0,0.0,0.0,0.0,0.0,0.0,0.0,0.0,0.0,0.0,0.0,0.0,0.0,0.0,0.0,4.642,4.7908,4.9565,4.9841,4.9937,5.0149,5.1297,5.2126,5.2201,5.2628,5.2678,5.2051,5.1548,5.0996,5.0368,4.9866,0.0,0.0,0.0,5.1674,5.2729,5.2729,5.2729,5.2729,5.2729,5.2729,5.2729,5.2302,5.2377,5.2779,5.1875,5.1699,5.2076,5.1649,5.1423,5.1297,5.067,5.0484,5.0539,5.0049,4.9886,5.0206,5.133,0.0,0.0,5.1502,5.0474,4.9265,5.054,5.0615,5.0597,5.2296,5.3223,5.3617,5.3617,5.3559,5.35,5.35,5.35,5.35,5.35,5.35,5.35,5.35,5.3065,5.2455,5.173,5.1091,5.0125,4.8437,4.905,4.9326,4.8324,4.905,4.9717,4.9717,4.8537,0.0,4.7782,4.6621,4.5866,4.5779,4.5227,4.4124,4.2382,4.1802,4.1773,4.2295,4.2295,4.2876,4.3979,4.3979,4.3718,4.3166,4.1279,4.1337,0.0,0.0,0.0,0.0,0.0,0.0,0.0,0.0,0.0,0.0,0.0,0.0,0.0,0.0,0.0,4.6674,4.7821,4.9038,5.072,5.1348,5.1649,5.1707,5.1908,5.2277,5.2729,5.2854,5.2528,5.1523,5.1348,5.0845,4.9816,4.9665,4.9891,5.0569,5.0569,5.0921,5.1599,5.1599,5.1599,5.1599,5.1599,0.0,5.1599,5.195,5.2176,5.2277,5.2503,5.2427,5.2126,5.2477,5.2352,5.185,5.082,5.1046,5.1972,5.135,5.1829,5.2754,5.2998,5.2419,5.1476,5.1661,5.0787,4.9832,5.0661,5.1483,0.0,5.322,5.388,5.4313,5.4313,5.3907,5.35,5.35,5.35,5.35,5.35,5.35,5.35,5.35,5.3413,5.2978,5.1817,5.1091,5.0403,4.9511,4.9571,4.962,4.9424,4.9571,4.9717,4.9717,4.8537,4.7782,4.7782,4.6621,4.5663,4.5111,4.4966,4.4501,4.366,4.3979,4.3979,4.3631,4.3631,4.3747,4.3979,4.3979,4.4182,4.4472,4.3079,4.2644,0.0,0.0,0.0,0.0,0.0,0.0,0.0,0.0,0.0,0.0,0.0,4.269,4.3754,0.0,4.662,4.8296,4.94,5.0419,5.1523,5.1925,5.2101,5.2101,5.2352,5.2628,5.2904,5.2929,5.2477,5.1373,5.1272,5.0795,4.9665,4.959,4.9841,5.0393,5.0419,5.0695,5.1272,5.1272,5.1272,5.1272,5.1272,5.1272,5.1297,5.1574,5.1699,5.1699,5.1975,5.195,5.1724,5.2,5.2481,5.2931,5.1844,5.1768,5.2328,5.1727,5.2385,5.3631,5.4204,5.3641,5.2676,5.3303,5.2296,5.1072,5.2687,5.2938,5.3021,5.4597,5.4777,5.4517,5.4517,5.4023,5.35,5.35,5.35,5.35,5.35,5.35,5.35,5.35,5.35,5.3123,5.1846,5.1352,5.0801,4.9814,4.9717,4.9717,4.9717,4.9717,4.9717,4.9717,4.8827,4.813,4.7811,4.6621,4.575,4.5401,4.5082,4.4763,4.4443,4.4443,4.4443,4.4443,4.4443,4.4618,4.4937,4.4937,4.5082,4.5372,4.4734,4.4443,0.0,0.0,0.0,0.0,0.0,0.0,0.0,4.0616,4.1149,4.2389,4.3416,4.4543,4.5963,4.7295,4.8611,4.9741,5.077,5.1624,5.2176,5.2277,5.2277,5.2277,5.2653,5.2929,5.2929,5.2929,5.2477,5.1373,5.1272,5.0795,4.9665,4.959,4.9791,5.0243,5.0268,5.0494,5.0946,5.0946,5.0946,5.0946,5.0946,5.0946,5.0946,5.1071,5.1122,5.1122,5.1222,5.1272,5.1272,5.1272,5.2165,5.3412,5.2375,5.2152,5.2391,5.2262,5.3093,5.4382,5.5412,5.4941,5.4035,5.506,5.3895,5.2471,5.4595,5.4271,5.3691,5.5779,5.5591,5.4691,5.4691,5.411,5.35,5.35,5.35,5.35,5.35,5.35,5.35,5.35,5.35,5.3123,5.1846,5.1614,5.1178,4.9872,4.9717,4.9717,4.9717,4.9717,4.9717,4.9717,4.9117,4.842,4.7666,4.6695,4.6056,4.5895,4.5372,4.5082,4.5082,4.4618,4.4589,4.5082,4.5082,4.5343,4.5895,4.5895,4.5895,4.5895,4.5895,4.5895,3.9128,3.8719,3.896,3.997,4.021,4.0531,0.0,4.2739,4.3545,4.4482,4.5725,4.6892,4.7544,4.8636,4.9766,5.0896,5.1599,5.2201,5.2754,5.2829,5.2829,5.2829,5.2879,5.2929,5.2929,5.2929,5.2477,5.1373,5.1272,5.0795,4.9665,4.959,4.9615,4.969,4.969,4.9715,4.9791,4.9791,4.9791,4.9791,4.9791,4.9791,4.9791,5.0293,5.0519,5.0544,5.1046,5.1272,5.1272,5.1272,5.1456,5.1564,5.0842,5.1344,5.2644,5.4364,5.5761,5.6879,5.7078,5.6239,5.5224,5.5362,5.4438,5.3487,5.4347,5.4815,5.5282,5.6145,5.5881,5.53,5.53,5.44,5.35,5.35,5.35,5.35,5.35,5.35,5.35,5.35,5.35,5.3123,5.1846,5.1614,5.1178,4.9872,4.9717,4.9717,4.9717,4.9717,4.9717,4.9717,4.9117,4.8199,4.6981,4.7024,4.6748,4.5969,4.5808,4.5779,4.5779,4.5721,4.5721,4.5779,4.5779,4.5808,4.5895,4.5895,4.5895,4.5895,4.5895,4.5895,3.9537,3.9729,4.0306,4.0739,4.1076,4.1697,4.3055,4.407,4.491,4.5782,4.7333,4.8636,4.8862,5.0067,5.1222,5.1674,5.2226,5.2653,5.2904,5.2929,5.2804,5.2477,5.2452,5.2578,5.2904,5.2929,5.2477,5.1373,5.1272,5.0795,4.9665,4.959,4.959,4.959,4.959,4.959,4.959,4.959,4.959,4.959,4.959,4.959,4.9615,4.9841,4.9941,4.9941,5.0193,5.0494,5.0745,5.0444,5.0927,5.191,5.1255,5.2296,5.4172,5.4254,5.5091,5.6251,5.6673,5.6171,5.5358,5.501,5.4255,5.3646,5.4313,5.4691,5.5097,5.6113,5.5678,5.4981,5.5329,5.4458,5.35,5.35,5.35,5.35,5.35,5.35,5.35,5.35,5.35,5.3123,5.1846,5.1614,5.1178,4.9872,4.9717,4.9717,4.9717,4.9717,4.9766,4.9941,4.9501,4.8887,4.8191,4.7554,4.6982,4.6446,4.6098,4.5895,4.5895,4.5895,4.5895,4.5895,4.5895,4.5895,4.5895,4.5895,4.5895,4.5895,4.5895,4.5895,4.0066,4.0595,4.1293,4.1725,4.2327,4.3108,4.4062,4.5293,4.6439,4.7021,4.8693,5.0117,5.0268,5.1272,5.2151,5.2302,5.2678,5.2929,5.2929,5.2804,5.2553,5.2151,5.1975,5.2026,5.2427,5.2477,5.2151,5.1348,5.1147,5.0619,4.964,4.959,4.959,4.959,4.959,4.959,4.959,4.959,4.959,4.959,4.959,4.959,4.959,4.959,4.959,4.959,4.959,4.9816,5.0167,4.9766,5.0371,5.1574,5.1134,5.2359,5.4236,5.3724,5.4418,5.5765,5.6214,5.5852,5.5097,5.4662,5.4052,5.3617,5.4081,5.4371,5.4691,5.562,5.5213,5.4604,5.5039,5.4342,5.35,5.35,5.35,5.35,5.35,5.35,5.35,5.3605,5.3605,5.3198,5.2049,5.1816,5.1379,5.0116,4.9941,4.9892,4.9717,4.9717,4.9815,5.0183,4.9963,4.9628,4.9233,4.8383,4.7616,4.7036,4.6479,4.6114,4.5985,4.594,4.594,4.5956,4.594,4.594,4.5956,4.594,4.594,4.5956,4.5956,4.6072,4.086,4.1172,4.1557,4.3072,4.4251,4.5044,4.5092,4.685,4.8518,4.8542,4.9958,5.1398,5.1925,5.2076,5.2277,5.2804,5.2929,5.2929,5.2929,5.2477,5.2126,5.2101,5.1624,5.1322,5.1322,5.1322,5.1322,5.1272,5.077,5.0193,4.9615,4.959,4.959,4.959,4.959,4.959,4.959,4.959,4.959,4.959,4.959,4.959,4.959,4.959,4.959,4.959,4.959,4.9615,4.9615,4.9615,4.959,4.968,4.9654,5.0436,5.1741,5.3059,5.4755,5.6377,5.6403,5.5591,5.4546,5.4517,5.4052,5.35,5.353,5.3994,5.4517,5.4575,5.4546,5.4517,5.4546,5.4023,5.35,5.35,5.35,5.35,5.35,5.35,5.3553,5.3867,5.3919,5.3561,5.2553,5.2367,5.1925,5.0659,5.0501,5.0279,4.9766,4.9717,4.9892,5.0453,5.0471,5.0206,4.9528,4.9439,4.8879,4.7641,4.7099,4.6596,4.6209,4.6001,4.6001,4.618,4.6001,4.6001,4.6225,4.6001,4.6001,4.6225,4.6225,4.6531,4.1172,4.1942,4.3024,4.4275,4.5116,4.5838,4.6535,4.7773,4.876,4.876,4.9858,5.0863,5.0689,5.1164,5.1749,5.2302,5.2377,5.2503,5.2879,5.2779,5.2377,5.1649,5.1398,5.1122,5.0745,5.1398,5.1523,5.077,5.0896,5.0594,4.964,4.959,4.959,4.959,4.959,4.959,4.959,4.959,4.959,4.959,4.959,4.959,4.959,4.959,4.959,4.959,4.959,4.959,4.959,4.959,4.959,4.959,4.959,5.0372,5.159,5.248,5.3505,5.4599,5.5461,5.5213,5.4429,5.3994,5.3704,5.35,5.35,5.3675,5.3936,5.44,5.4197,5.3965,5.44,5.4023,5.35,5.35,5.35,5.35,5.35,5.35,5.3553,5.3867,5.3919,5.3561,5.2603,5.2417,5.1975,5.0707,5.0501,5.0453,5.0231,5.0346,5.0489,5.068,5.0852,5.081,5.0431,5.0016,4.9508,4.8925,4.8299,4.7884,4.7512,4.7466,4.7374,4.7282,4.7374,4.7374,4.7282,4.7374,4.7374,4.7282,4.7282,4.7491,4.1966,4.3168,4.4635,4.5718,4.6511,4.7233,4.7906,4.8608,4.9072,4.8877,4.9552,5.0017,4.9669,4.9896,5.0469,5.1624,5.1624,5.1825,5.2804,5.2578,5.2076,5.1373,5.0921,5.0544,5.0167,5.0971,5.1197,5.0469,5.0569,5.0368,4.964,4.959,4.959,4.959,4.959,4.959,4.959,4.959,4.959,4.959,4.959,4.959,4.959,4.959,4.959,4.959,4.959,4.959,4.959,4.959,4.959,4.9654,5.0078,5.0913,5.1952,5.2902,5.3494,5.3945,5.4797,5.4691,5.4081,5.3646,5.35,5.35,5.35,5.35,5.3617,5.4023,5.3849,5.3617,5.4052,5.3849,5.35,5.35,5.35,5.35,5.35,5.3553,5.371,5.3993,5.4126,5.3869,5.2872,5.2279,5.1687,5.0858,5.0757,5.071,5.0614,5.0662,5.0728,5.0917,5.1011,5.1011,5.0964,5.0483,5.0063,4.9779,4.9225,4.8761,4.8433,4.8278,4.8155,4.8062,4.8155,4.8109,4.7922,4.8109,4.8109,4.7922,4.7922,4.8179,4.3216,4.4804,4.6247,4.7329,4.8339,4.9084,4.9084,4.9358,4.9461,4.8901,4.8936,4.8973,4.8923,4.8396,4.8636,5.0845,5.077,5.1046,5.2703,5.2026,5.1348,5.1322,5.0343,4.9665,4.964,5.0092,5.0368,5.0368,4.9916,4.9615,4.959,4.959,4.959,4.959,4.959,4.959,4.959,4.959,4.959,4.959,4.959,4.959,4.959,4.959,4.959,4.959,4.959,4.959,4.959,4.9565,4.9565,4.9668,5.0839,5.1689,5.2388,5.3738,5.4176,5.4219,5.4298,5.3999,5.35,5.35,5.35,5.35,5.35,5.35,5.35,5.35,5.35,5.35,5.35,5.35,5.35,5.35,5.35,5.35,5.35,5.371,5.3993,5.4252,5.456,5.4399,5.3414,5.2097,5.1229,5.1229,5.1229,5.1105,5.087,5.0662,5.0739,5.1182,5.0964,5.0917,5.1182,5.0964,5.0649,5.0285,4.9808,4.9402,4.8981,4.8597,4.8412,4.8614,4.8412,4.8319,4.8214,4.8319,4.8319,4.8214,4.8214,4.8705,4.4996,4.6199,4.7353,4.8411,4.8892,4.9084,4.9084,4.884,4.8445,4.7766,4.7547,4.7291,4.6724,4.7308,4.8385,4.9791,5.0594,5.1498,5.2754,5.2678,5.2352,5.195,5.1272,5.067,5.0243,4.9967,4.9791,4.9791,5.0067,5.0017,4.9615,4.959,4.959,4.959,4.959,4.959,4.959,4.959,4.959,4.959,4.959,4.959,4.959,4.959,4.959,4.959,4.959,4.959,4.9565,4.9163,4.8987,4.9001,4.8862,4.8895,4.9183,5.0009,5.0372,5.0513,5.1931,5.2898,5.35,5.35,5.35,5.35,5.35,5.35,5.35,5.35,5.35,5.35,5.35,5.35,5.35,5.35,5.35,5.35,5.35,5.371,5.3993,5.4252,5.3941,5.3544,5.3234,5.2097,5.1229,5.1229,5.1229,5.1182,5.1105,5.1041,5.1088,5.1182,5.1105,5.1105,5.1182,5.1105,5.1046,5.0943,5.082,5.0636,5.0317,5.0223,5.0112,4.9999,5.0112,5.0065,4.9904,5.0065,4.994,4.9589,4.9589,4.982,4.6319,4.7569,4.8676,4.9277,4.9421,4.9301,4.8844,4.8147,4.7299,4.6318,4.5819,4.5392,4.5161,4.5835,4.7079,4.8937,4.9967,5.1096,5.2703,5.2729,5.2452,5.2151,5.1398,5.077,5.0444,4.9916,4.959,4.959,4.9891,4.9916,4.9615,4.959,4.959,4.959,4.959,4.959,4.959,4.959,4.959,4.959,4.959,4.959,4.959,4.959,4.959,4.959,4.959,4.9464,4.9213,4.8912,4.8611,4.8422,4.8691,4.8595,4.8496,5.0004,5.0378,5.0335,5.1924,5.2943,5.35,5.35,5.35,5.35,5.35,5.35,5.35,5.35,5.35,5.35,5.35,5.35,5.35,5.35,5.35,5.35,5.35,5.371,5.4023,5.4436,5.4042,5.3533,5.3234,5.2336,5.1558,5.1259,5.1229,5.1229,5.1229,5.1229,5.1229,5.1229,5.1229,5.1229,5.1229,5.1229,5.1229,5.1229,5.1229,5.1105,5.0964,5.087,5.068,5.0501,5.068,5.0632,5.0357,5.0632,5.0632,5.0279,5.0279,5.0375,4.7521,4.882,4.9878,4.9878,4.9875,4.9469,4.8339,4.7257,4.6119,4.49,4.4083,4.3703,4.3979,4.4369,4.5522,4.8209,4.9113,5.0293,5.2603,5.2452,5.2126,5.2201,5.1272,5.0619,5.0544,5.0042,4.9665,4.9615,4.959,4.959,4.959,4.959,4.959,4.959,4.959,4.959,4.959,4.959,4.959,4.959,4.959,4.959,4.959,4.959,4.959,4.959,4.959,4.9314,4.8887,4.8812,4.8435,4.8032,4.91,4.9135,4.8826,5.1201,5.1711,5.1401,5.2783,5.329,5.329,5.3448,5.35,5.35,5.35,5.35,5.35,5.35,5.35,5.35,5.35,5.35,5.35,5.35,5.35,5.35,5.35,5.3762,5.4126,5.47,5.447,5.4012,5.3414,5.2695,5.2007,5.1439,5.1289,5.1229,5.1229,5.1229,5.1229,5.1229,5.1229,5.1229,5.1229,5.1229,5.1229,5.1229,5.1229,5.1229,5.1229,5.0964,5.0728,5.0548,5.0728,5.0632,5.0183,5.0632,5.0728,5.0548,5.0548,5.0614,4.9036,4.9662,4.9878,4.9878,4.9541,4.882,4.7329,4.6175,0.0,4.4083,4.3428,4.307,4.3194,4.3959,4.5372,4.7682,4.8535,4.9866,5.2553,5.2452,5.2277,0.0,5.2201,5.1624,5.1172,5.0619,5.0092,4.9615,4.959,4.959,4.959,4.959,4.959,4.959,4.959,4.959,4.959,4.959,4.959,4.959,4.959,4.959,4.959,4.959,4.959,4.959,4.959,4.954,4.9414,4.8962,4.8435,4.7857,4.7677,4.7233,4.6907,4.8367,4.8784,4.9049,5.1237,5.2028,5.219,5.3184,5.35,5.35,5.35,5.35,5.35,5.35,5.35,5.35,5.35,5.35,5.35,5.35,5.35,5.35,5.35,5.3919,5.4304,5.4722,5.447,5.4162,5.4042,5.3025,5.2157,5.2037,5.1558,5.1229,5.1229,5.1229,5.1229,5.1229,5.1229,5.1229,5.1229,5.1229,5.1229,5.1229,5.1229,5.1229,5.1229,5.1182,5.1011,5.0775,5.1011,5.0964,5.068,5.0964,5.1011,5.0728,5.0728,5.068,4.9589,5.007,5.0239,4.995,4.906,4.7834,4.6247,0.0,0.0,4.2793,4.2536,4.2519,4.27,4.3751,4.507,4.6426,4.7355,4.8786,5.1272,5.1398,5.1649,5.2804,5.2452,5.19,5.1348,5.0745,5.0193,4.964,4.959,4.959,4.959,4.959,4.959,4.959,4.959,4.959,4.959,4.959,4.959,4.959,4.959,4.959,4.959,4.959,4.959,4.959,4.959,4.9439,4.9138,4.8887,4.8259,4.7481,4.723,4.7142,4.7357,4.8616,4.9448,5.0238,5.2028,5.2648,5.273,5.329,5.35,5.35,5.35,5.35,5.35,5.35,5.35,5.35,5.35,5.35,5.35,5.35,5.35,5.3553,5.3658,5.3993,5.4406,5.4722,5.4738,5.461,5.4281,5.3683,5.3114,5.2755,5.2157,5.1738,5.1738,5.1439,5.1229,5.1229,5.1229,5.1229,5.1229,5.1229,5.1229,5.1229,5.1229,5.1229,5.1229,5.1229,5.1058,5.0793,5.1058,5.1058,5.0793,5.1058,5.1105,5.1011,5.1011,5.0994,4.9734,5.0287,5.0551,4.9878,4.8507,4.6896,4.5188,4.3649,0.0,4.1598,4.1785,4.2142,4.2481,4.3462,4.4543,4.5347,4.6225,4.7631,5.0067,5.0419,5.1046,0.0,5.2553,0.0,5.1348,5.087,5.0318,4.964,4.959,4.959,4.959,4.959,4.959,4.959,4.959,4.959,4.959,4.959,4.959,4.959,4.959,4.959,4.959,4.959,4.959,4.959,4.959,4.9339,4.8937,4.8937,4.836,4.7481,4.7637,4.7777,4.8101,4.9673,5.0573,5.1182,5.289,5.3343,5.3184,5.3395,5.35,5.35,5.35,5.35,5.35,5.35,5.35,5.35,5.35,5.35,5.35,5.35,5.35,5.3553,5.3867,5.4097,5.4406,5.4722,5.5006,5.5029,5.4521,5.4311,5.4012,5.3473,5.2725,5.2187,5.2187,5.1618,5.1229,5.1229,5.1229,5.1229,5.1229,5.1229,5.1229,5.1229,5.1229,5.1229,5.1229,5.1229,5.1058,5.0793,5.1058,5.1058,5.0793,5.1058,5.1229,5.1229,5.1229,5.1182,4.9734,5.0287,5.0455,4.9421,4.7954,4.6247,4.4216,0.0,4.1866,4.1039,4.1516,4.2142,4.2481,4.2837,4.3639,4.5221,4.5573,4.6753,4.9967,5.0419,5.1046,5.2729,0.0,0.0,5.1373,5.1222,5.0745,4.9665,4.959,4.959,4.959,4.959,4.959,4.959,4.959,4.959,4.959,4.959,4.959,4.959,4.959,4.959,4.959,4.959,4.959,4.959,4.959,4.9565,4.9515,4.9515,4.9163,4.8687,4.9306,4.8583,4.7561,5.043,5.0238,4.8935,5.2326,5.2783,5.2028,5.3102,5.35,5.35,5.35,5.35,5.35,5.35,5.35,5.35,5.35,5.35,5.35,5.35,5.35,5.3553,5.3867,5.4097,5.4406,5.4722,5.5006,5.5179,5.5119,5.461,5.4192,5.4132,5.3025,5.2187,5.2187,5.1618,5.1229,5.1229,5.1229,5.1229,5.1229,5.1229,5.1229,5.1229,5.1229,5.1229,5.1229,5.1229,5.1058,5.0793,5.1058,5.1058,5.0793,5.1058,5.1229,5.1229,5.1229,5.1058,4.9541,5.0287,5.0431,4.9349,4.7642,4.5766,4.4023,4.2554,4.135,4.0692,4.1185,4.1915,4.2199,4.2264,4.2588,4.3815,4.3689,4.4418,4.7079,4.7732,4.8812,5.1147,5.1423,5.1373,5.1297,5.0971,5.0444,4.9665,4.959,4.959,4.959,4.959,4.959,4.959,4.959,4.959,4.959,4.959,4.959,4.959,4.959,4.959,4.959,4.959,4.959,4.959,4.959,4.959,4.959,4.959,4.9063,4.8359,4.9402,4.8911,4.7962,4.987,5.0014,4.9392,5.0823,5.1484,5.1811,5.2244,5.289,5.35,5.35,5.35,5.35,5.35,5.35,5.35,5.35,5.35,5.3553,5.371,5.3605,5.3658,5.4311,5.4385,5.4458,5.4926,5.5158,5.5179,5.5179,5.497,5.479,5.479,5.4012,5.3414,5.3414,5.2815,5.2396,5.2396,5.1678,5.1229,5.1229,5.1229,5.1229,5.1229,5.1229,5.1229,5.1229,5.1229,5.1152,5.1058,5.1152,5.1152,5.1058,5.1152,5.1229,5.1229,5.1229,5.1105,4.882,4.9686,4.9998,4.9084,4.7257,4.5285,4.3734,4.2265,4.098,4.0306,4.0918,4.1672,4.1833,4.1892,4.2127,4.2685,4.274,4.3363,4.5447,4.62,4.7456,4.9891,5.0167,5.0343,5.0745,5.0419,5.0017,4.9615,4.959,4.959,4.959,4.959,4.959,4.959,4.959,4.959,4.959,4.959,4.959,4.959,4.959,4.959,4.959,4.959,4.959,4.959,4.959,4.959,4.959,4.959,4.9038,4.8259,4.9377,4.9005,4.7977,4.9358,4.9475,4.8961,4.9619,5.0462,5.1237,5.1565,5.2541,5.35,5.35,5.35,5.35,5.35,5.35,5.35,5.35,5.35,5.3553,5.3762,5.3658,5.371,5.4517,5.4487,5.4458,5.5078,5.5179,5.5179,5.5179,5.5179,5.5179,5.5179,5.464,5.4221,5.4221,5.3593,5.3174,5.3174,5.2187,5.1498,5.1498,5.1319,5.1229,5.1229,5.1229,5.1229,5.1229,5.1229,5.1229,5.1229,5.1229,5.1229,5.1229,5.1229,5.1229,5.1229,5.1229,5.1229,4.7377,4.8291,4.8964,4.8435,4.6704,4.4732,4.318,4.1942,4.0884,3.9826,4.0652,4.1574,4.1342,4.1941,4.2451,4.2258,4.3062,0.0,4.6075,4.6778,4.7732,4.9414,4.9615,4.9615,4.9615,4.9615,4.9615,4.959,4.959,4.959,4.959,4.959,4.959,4.959,4.959,4.959,4.959,4.959,4.959,4.959,4.959,4.959,4.959,4.959,4.959,4.959,4.959,4.959,4.959,4.959,4.9264,4.8838,4.9532,4.866,4.7334,4.9232,4.8384,4.6695,4.9076,4.9901,5.0126,5.1292,5.2541,5.35,5.35,5.35,5.35,5.35,5.35,5.35,5.35,5.35,5.35,5.35,5.35,5.3658,5.42,5.4304,5.4458,5.5078,5.5179,5.5179,5.5179,5.5179,5.5179,5.5179,5.464,5.4221,5.4221,5.3593,5.3174,5.3174,5.2576,5.2187,5.2187,5.1588,5.1229,5.1229,5.1229,5.1229,5.1229,5.1229,5.1229,5.1229,5.1229,5.1229,5.1229,5.1229,5.1229,5.1229,5.1229,5.1229,4.4828,4.5838,4.6607,4.5333,4.4275,4.3096,4.1509,4.1172,4.0884,3.9826,4.0362,4.1135,4.1268,4.1027,4.138,4.3006,4.2936,4.3388,4.5472,4.6225,4.7029,4.8284,4.9464,5.0017,4.964,4.959,4.959,4.959,4.959,4.959,4.959,4.959,4.959,4.959,4.959,4.959,4.959,4.959,4.959,4.959,4.959,4.959,4.959,4.959,4.959,4.959,4.959,4.959,4.959,4.959,4.9038,4.8284,4.9377,4.8489,4.6828,4.9072,4.8904,4.7769,4.9362,5.0462,5.1182,5.1565,5.2541,5.35,5.35,5.35,5.35,5.35,5.35,5.35,5.35,5.35,5.3605,5.3971,5.3919,5.3971,5.4743,5.4773,5.4773,5.5128,5.5179,5.5179,5.5179,5.5179,5.5179,5.5179,5.5029,5.488,5.488,5.47,5.4551,5.4551,5.3952,5.3204,5.2276,5.1588,5.1229,5.1229,5.1229,5.1229,5.1229,5.1229,5.1229,5.1229,5.1229,5.1229,5.1229,5.1229,5.1229,5.1229,5.1229,5.1229,4.3265,4.4106,4.4732,4.3529,4.2687,4.1918,4.0908,4.0787,4.0691,4.0042,4.0531,4.1159,4.1268,4.1126,4.1479,4.293,4.2841,4.3087,4.492,4.5648,4.6476,4.7757,4.9213,4.9891,4.9339,4.9464,4.959,4.959,4.959,4.959,4.959,4.959,4.959,4.959,4.959,4.959,4.959,4.959,4.959,4.959,4.959,4.959,4.959,4.959,4.959,4.959,4.959,4.959,0.0,4.959,4.8937,4.797,4.8748,4.7902,4.6481,4.8003,4.8326,4.821,4.8935,5.0294,5.1674,5.1674,5.2541,5.35,5.35,5.35,5.35,5.35,5.35,5.35,5.35,5.35,5.3553,5.3919,5.3971,5.4075,5.4692,5.4824,5.4905,5.5158,5.5179,5.5179,5.5179,5.5179,5.5179,5.5179,5.5179,5.5179,5.5179,5.5179,5.5179,5.5179,5.461,5.3862,5.3025,5.2127,5.1498,5.1229,5.1229,5.1229,5.1229,5.1229,5.1229,5.1229,5.1468,5.1588,5.1588,5.1828,5.1947,5.1947,5.1947,5.1947,0.0,4.2976,4.3216,4.2723,4.1822,4.1124,4.1076,4.0739,0.0,4.0403,4.0991,4.1525,4.1317,4.1892,4.2376,4.2283,4.269,4.3363,4.4518,4.5246,4.625,4.7832,4.8962,4.9389,4.8887,4.9289,4.959,4.959,4.959,4.959,4.959,4.959,4.9615,4.9665,4.9615,4.959,4.959,4.959,4.959,4.959,4.959,4.959,4.959,4.959,4.959,4.959,4.959,4.959,4.959,4.959,4.8962,4.7958,4.7958,4.7305,4.6376,4.6471,4.7231,4.8268,4.8326,4.9818,5.1674,5.1565,5.238,5.3343,5.3343,5.3448,5.35,5.35,5.35,5.35,5.35,5.35,5.35,5.35,5.371,5.3993,5.4252,5.4619,5.4905,5.5128,5.5179,5.5179,5.5179,5.5179,5.5179,5.5179,5.5179,5.5179,5.5179,5.5179,5.5179,5.5179,5.464,5.4251,5.4221,5.3025,5.2007,5.1319,5.1289,5.1259,5.1229,5.1229,5.1229,5.1289,5.1947,5.2276,5.2276,5.2875,5.3174,5.3174,5.3174,5.3174,4.1028,0.0,4.1509,4.0571,4.0475,4.0475,0.0,4.0499,4.0884,4.0475,4.07,4.1086,4.1268,4.1274,4.1629,4.266,4.2886,4.3514,4.507,4.6476,4.7807,4.9038,4.9439,4.954,4.9414,4.9515,4.959,4.959,4.959,4.959,4.959,4.959,4.9791,5.0218,4.9816,4.959,4.959,4.959,4.959,4.959,4.959,4.959,4.959,4.959,4.959,4.959,4.959,4.959,4.959,4.959,4.9188,4.856,4.856,4.7908,4.705,4.7966,4.8811,4.9619,5.0518,5.1237,5.1565,5.0629,5.1127,5.2136,5.2136,5.2783,5.35,5.35,5.35,5.35,5.35,5.35,5.3553,5.3762,5.3993,5.4304,5.4619,5.4875,5.5128,5.5209,5.5179,5.5179,5.5179,5.5179,5.5179,5.5179,5.5179,5.5179,5.5179,5.5179,5.5179,5.5179,5.5059,5.476,5.4251,5.3443,5.2665,5.2007,5.1977,5.1738,5.1229,5.1229,5.1439,5.1947,5.2606,5.2935,5.2965,5.3114,5.3174,5.3174,5.3174,5.3174,4.0186,4.0234,4.0258,3.9441,3.9465,3.9657,3.9609,4.0234,4.0812,4.0763,4.0967,4.1281,4.1612,4.1422,4.1654,4.278,4.2986,4.374,4.5924,4.7657,4.8912,4.9515,4.9816,4.9866,4.9615,4.959,4.959,4.959,4.9816,4.9967,4.9967,4.9967,5.0117,5.0419,4.9891,4.9715,4.9967,4.9715,4.959,4.959,4.959,4.959,4.959,4.959,4.959,4.959,4.959,4.959,4.959,4.959,4.9264,4.8761,4.8761,4.8234,4.7604,4.8894,4.9967,5.083,5.1455,5.168,5.1484,5.0587,5.1098,5.1985,5.1759,5.2541,5.35,5.35,5.35,5.35,5.35,5.35,5.3553,5.3658,5.389,5.42,5.4487,5.4824,5.5027,5.5179,5.5179,5.5179,5.5179,5.5179,5.5179,5.5179,5.5179,5.5179,5.5179,5.5179,5.5179,5.5179,5.5179,5.5029,5.47,5.4311,5.3683,5.2725,5.2366,5.2037,5.1678,5.1678,5.2127,5.3114,5.3473,5.3803,5.4102,5.4102,5.4102,5.4102,5.4102,5.4102,3.9826,3.9657,3.9513,3.9152,3.9056,3.92,3.9729,4.0186,4.0643,4.11,4.1402,4.1639,4.1931,4.1941,4.2146,4.2855,4.3263,4.4367,4.6903,4.8535,4.9515,4.959,5.0017,5.0117,4.964,4.959,4.9615,4.9715,5.0142,5.0419,5.0419,5.0419,5.0419,5.0419,4.9891,4.9866,5.0419,4.9866,4.959,4.959,4.959,4.959,4.959,4.959,4.954,4.9464,4.9565,4.954,4.9464,4.9565,4.9314,4.8887,4.8887,4.8535,4.822,4.955,5.0711,5.1692,5.1692,5.1517,5.1228,5.0609,5.1254,5.2156,5.1816,5.2541,5.35,5.35,5.35,5.35,5.35,5.35,5.35,5.3553,5.371,5.4023,5.4304,5.4619,5.4905,5.5158,5.5179,5.5179,5.5179,5.5179,5.5179,5.5179,5.5179,5.5179,5.5179,5.5179,5.5179,5.5179,5.5179,5.5179,5.5179,5.5179,5.47,5.3563,5.2875,5.2456,5.2366,5.2456,5.3054,5.4192,5.4311,5.464,5.5179,5.5179,5.5179,5.5179,5.5179,5.5179,4.0186,3.9946,3.9705,4.0066,4.0138,4.0282,4.0812,4.1004,4.1076,4.1172,4.123,4.1257,4.1384,4.2142,4.2757,4.2981,4.4568,4.6276,4.7606,4.8435,4.9063,4.954,4.9665,4.969,4.9615,4.959,4.9791,5.0243,5.0368,5.0419,5.0419,5.0419,5.0419,5.0419,4.9891,4.9866,5.0419,4.9866,4.959,4.959,4.959,4.959,4.959,4.959,4.9339,4.8937,4.9389,4.9339,4.8937,4.9414,4.954,4.9464,4.9464,4.9138,4.8825,5.0085,5.1057,5.1692,5.1692,5.0987,4.9981,4.9377,4.9988,5.1088,5.1542,5.2541,5.35,5.35,5.35,5.35,5.35,5.35,5.3553,5.3815,5.3867,5.4075,5.4619,5.4751,5.4905,5.5158,5.5179,5.5179,5.5179,5.5179,5.5179,5.5179,5.5179,5.5179,5.5179,5.5179,5.5179,5.5179,5.5179,5.5179,5.5179,5.5179,5.5089,5.491,5.4251,5.3653,5.3054,5.3593,5.4012,5.4221,5.476,5.5089,5.5179,5.5179,5.5179,5.5179,5.5179,5.5179,3.8334,3.8479,3.8864,3.9417,3.9753,3.997,3.9922,4.0138,4.0331,4.0331,4.0331,4.0523,4.1188,4.1938,4.2979,4.4502,4.6125,4.7456,4.8259,4.8862,4.9314,4.9565,4.959,4.959,4.959,4.9866,5.0142,5.0393,5.072,5.0896,5.0896,5.0594,5.0419,5.0419,4.9891,4.9715,4.9967,4.9715,4.959,4.959,4.959,4.959,4.959,4.9289,4.9012,4.8786,4.9038,4.9012,4.8812,4.9364,4.959,4.959,4.959,4.9439,4.9405,5.0654,5.1312,5.1622,5.1622,5.0734,4.9592,4.9004,4.9655,5.0729,5.106,5.2015,5.3052,5.3377,5.35,5.35,5.35,5.35,5.35,5.3658,5.3815,5.4023,5.4436,5.4671,5.4905,5.5158,5.5179,5.5179,5.5179,5.5179,5.5179,5.5179,5.5179,5.5179,5.5179,5.5179,5.5179,5.5179,5.5179,5.5179,5.5179,5.5179,5.5029,5.467,5.4371,5.4072,5.3743,5.4042,5.4371,5.473,5.5029,5.5179,5.5179,5.5179,5.5179,5.5179,5.5179,5.5179,3.7348,3.7661,3.8286,3.8719,3.9224,3.9609,3.9561,3.9777,4.0042,4.0282,4.0234,4.0427,4.1198,4.211,4.3664,4.623,4.7606,4.846,4.8912,4.9339,4.959,4.959,4.959,4.964,4.9766,5.0167,5.0469,5.0619,5.1021,5.1222,5.1096,5.067,5.0368,5.0218,4.9816,4.959,4.959,4.959,4.959,4.959,4.959,4.9515,4.9389,4.8962,4.8636,4.841,4.8661,4.8686,4.8611,4.9314,4.959,4.959,4.959,4.9783,5.0142,5.1142,5.1492,5.1492,5.1492,5.0664,4.9579,4.9318,5.0028,5.1081,5.1281,5.221,5.3295,5.3815,5.3965,5.3907,5.3588,5.35,5.353,5.3553,5.3762,5.3993,5.4304,5.4619,5.4905,5.5158,5.5179,5.5179,5.5179,5.5179,5.5179,5.5179,5.5179,5.5179,5.5179,5.5179,5.5179,5.5179,5.5179,5.5179,5.5179,5.5179,5.497,5.4461,5.4431,5.4431,5.4431,5.4431,5.467,5.5179,5.5179,5.5179,5.5179,5.5179,5.5179,5.5179,5.5179,5.5179,3.9272,3.908,3.8767,3.8815,3.9224,3.9994,4.1413,4.1389,4.1341,4.2327,4.2134,4.1794,4.1622,4.3373,4.543,4.7469,4.8736,4.949,4.954,4.9565,4.959,4.959,4.959,4.9791,5.0318,5.0393,5.0645,5.1172,5.1247,5.1046,5.0519,5.0444,5.0167,4.9665,4.9615,4.959,4.959,4.959,4.959,4.959,4.959,4.9314,4.8837,4.8786,4.8209,4.7305,4.8335,4.846,4.8058,4.9138,4.959,4.959,4.959,5.0308,5.1393,5.1429,5.1492,5.1492,5.1492,5.0664,4.9682,5.0271,5.1327,5.2452,5.3129,5.4172,5.5221,5.5217,5.5271,5.501,5.382,5.35,5.3553,5.3815,5.3919,5.4075,5.4619,5.4803,5.4905,5.5158,5.5179,5.5179,5.5179,5.5179,5.5179,5.5179,5.5179,5.5179,5.5179,5.5179,5.5179,5.5179,5.5179,5.5179,5.5179,5.5179,5.5179,5.5119,5.5119,5.5119,5.5119,5.5119,5.5149,5.5179,5.5179,5.5179,5.5179,5.5179,5.5179,5.5179,5.5179,5.5179,3.7661,3.8214,3.8743,3.8383,3.92,4.0162,4.0451,4.0595,4.1004,4.2062,4.211,4.2228,4.2982,4.4432,4.6077,4.7845,4.896,4.959,4.959,4.959,4.959,4.959,4.9891,5.0067,4.9916,5.0544,5.0896,5.0745,5.0745,5.0645,5.0419,5.0092,4.9816,4.9615,4.959,4.959,4.959,4.9264,4.9088,4.9088,4.9088,4.8987,4.8736,4.8058,4.7531,4.7093,4.7581,4.7807,4.7958,4.8761,4.9289,4.959,4.959,4.9886,5.0308,5.0308,5.0308,5.0308,5.0308,5.0014,4.9629,4.9914,5.0318,5.0976,5.2425,5.3229,5.3864,5.5065,5.5416,5.5213,5.4342,5.4139,5.4023,5.3722,5.3919,5.42,5.4436,5.4773,5.5108,5.5179,5.5179,5.5179,5.5179,5.5179,5.5179,5.5179,5.5179,5.5179,5.5179,5.5179,5.5179,5.5179,5.5179,5.5179,5.5179,5.5179,5.5179,5.5179,5.5179,5.5179,5.5179,5.5179,5.5179,5.5179,5.5179,5.5179,5.5179,5.5179,5.5179,5.5179,5.5179,5.5179,3.7517,3.8094,3.8719,3.8334,3.908,3.9922,4.0066,4.0643,4.1485,4.2711,4.2687,4.2855,4.4232,4.5121,4.6203,4.7882,4.8985,4.959,4.959,4.959,4.959,4.959,4.9916,5.0067,4.9866,5.0569,5.0845,5.0444,5.0419,5.0343,5.0167,4.9791,4.959,4.959,4.959,4.9515,4.9339,4.8962,4.8686,4.8485,4.8335,4.8259,4.8234,4.7481,4.7029,4.6878,4.7054,4.733,4.7732,4.846,4.9113,4.959,4.959,4.959,4.959,4.959,4.959,4.959,4.959,4.959,4.959,4.959,4.9886,5.0549,5.2272,5.3097,5.3782,5.553,5.5997,5.5881,5.5271,5.4807,5.44,5.3936,5.4065,5.4304,5.4304,5.4743,5.5179,5.5179,5.5179,5.5179,5.5179,5.5179,5.5179,5.5179,5.5179,5.5179,5.5179,5.5179,5.5179,5.5179,5.5179,5.5179,5.5179,5.5179,5.5179,5.5179,5.5179,5.5179,5.5179,5.5179,5.5179,5.5179,5.5179,5.5179,5.5179,5.5179,5.5179,5.5179,5.5179,5.5179,3.9585,3.92,3.8815,3.8815,3.8815,3.9248,4.0836,4.2014,4.3216,4.4828,4.4299,4.388,4.511,4.5331,4.5982,4.7608,4.8862,4.959,4.959,4.959,4.959,4.959,4.959,4.9816,5.0368,5.0419,5.0419,5.0419,5.0419,5.0167,4.9615,4.959,4.959,4.959,4.959,4.9314,4.8761,4.8825,4.846,4.7883,4.738,4.7129,4.7068,4.7068,4.6828,4.6351,4.6878,4.7129,4.723,4.8309,4.9088,4.959,4.959,4.959,4.959,4.959,4.959,4.959,4.959,4.959,4.959,4.959,5.0436,5.1741,5.3059,5.4382,5.5644,5.6936,5.7303,5.7158,5.6578,5.5474,5.4517,5.4517,5.4387,5.4304,5.4304,5.4794,5.5179,5.5179,5.5179,5.5179,5.5179,5.5179,5.5179,5.5179,5.5179,5.5179,5.5179,5.5179,5.5179,5.5179,5.5179,5.5179,5.5179,5.5179,5.5179,5.5179,5.5179,5.5179,5.5179,5.5179,5.5179,5.5179,5.5179,5.5179,5.5179,5.5179,5.5179,5.5179,5.5179,5.5179,3.7445,3.7781,3.8238,3.8238,3.9369,4.0691,4.1557,4.2543,4.3842,4.5838,4.5694,4.5387,4.5998,4.6336,4.6871,4.8006,4.8985,4.959,4.959,4.959,4.959,4.959,4.9941,5.0092,4.9866,5.0193,5.0243,4.9866,4.9841,4.9766,4.9615,4.959,4.9414,4.9038,4.9012,4.8736,4.8159,4.7807,4.7531,4.7355,4.6803,4.6753,4.7129,4.6728,4.6476,4.6326,4.6476,4.6778,4.7179,4.7883,4.851,4.9012,4.9012,4.9264,4.959,4.959,4.959,4.959,4.959,4.959,4.959,4.959,4.9822,5.0372,5.1705,5.3059,5.4323,5.5644,5.6594,5.7274,5.7071,5.6598,5.5863,5.4988,5.4544,5.4355,5.4619,5.4926,5.5179,5.5179,5.5179,5.5179,5.5179,5.5179,5.5179,5.5179,5.5179,5.5179,5.5179,5.5179,5.5179,5.5179,5.5179,5.5179,5.5179,5.5179,5.5179,5.5179,5.5179,5.5179,5.5179,5.5179,5.5179,5.5179,5.5179,5.5179,5.5179,5.5179,5.5179,5.5179,5.5179,5.5179,3.7324,3.7974,3.8671,3.8888,4.0066,4.1485,4.2639,4.3721,4.49,4.6391,4.6295,4.5998,4.6382,4.6739,4.7315,4.8178,4.9046,4.959,4.959,4.959,4.959,4.959,4.9891,4.9967,4.9615,4.9891,4.9967,4.9615,4.959,4.959,4.959,4.959,4.9439,4.9113,4.9113,4.8837,4.8259,4.7933,4.7682,4.7431,4.7104,4.7129,4.7405,4.6652,4.6301,4.6301,4.6301,4.6627,4.7093,4.7481,4.8058,4.8761,4.8761,4.9113,4.959,4.959,4.959,4.959,4.959,4.959,4.959,4.959,4.959,4.995,5.1767,5.2876,5.3844,5.5644,5.6708,5.7303,5.7303,5.695,5.6417,5.5313,5.4978,5.4783,5.4649,5.4926,5.5179,5.5179,5.5179,5.5179,5.5179,5.5179,5.5179,5.5179,5.5179,5.5179,5.5179,5.5179,5.5179,5.5179,5.5179,5.5179,5.5179,5.5179,5.5179,5.5179,5.5179,5.5179,5.5179,5.5179,5.5179,5.5179,5.5179,5.5179,5.5179,5.5179,5.5179,5.5179,5.5179,5.5179,3.831,3.9056,3.9681,4.0258,4.0908,4.1918,4.3901,4.5101,4.6006,4.6535,4.6247,4.5998,4.6366,4.6812,4.7389,4.8213,4.9096,4.959,4.959,4.959,4.959,4.959,4.959,4.959,4.959,4.959,4.959,4.959,4.959,4.959,4.959,4.959,4.9565,4.9515,4.9515,4.9264,4.8711,4.8686,4.8435,4.7908,4.7908,4.7908,4.7883,4.6853,4.6351,4.6301,4.6301,4.6602,4.7054,4.7054,4.7682,4.8636,4.8686,4.9038,4.9515,4.9565,4.959,4.959,4.959,4.959,4.959,4.959,4.959,5.0078,5.257,5.3335,5.391,5.6451,5.7133,5.7245,5.7303,5.6897,5.6372,5.5591,5.5566,5.5442,5.4554,5.4794,5.5179,5.5179,5.5179,5.5179,5.5179,5.5179,5.5179,5.5179,5.5179,5.5179,5.5179,5.5179,5.5179,5.5179,5.5179,5.5179,5.5179,5.5179,5.5179,5.5179,5.5179,5.5179,5.5179,5.5179,5.5179,5.5179,5.5179,5.5179,5.5179,5.5179,5.5179,5.5179,5.5179,5.5179,3.6747,3.7926,3.9224,4.0162,4.1701,4.3361,4.4597,4.5077,4.539,4.5982,4.6006,4.6119,4.6916,4.7375,4.7932,4.8824,4.9321,4.959,4.959,4.959,4.959,4.959,4.959,4.959,4.959,4.959,4.959,4.959,4.959,4.959,4.959,4.959,4.9389,4.8962,4.8962,4.8661,4.8109,4.8083,4.8033,4.7908,4.7908,4.7908,4.7883,4.7255,4.6728,4.6301,4.6301,4.6376,4.6502,4.6502,4.6878,4.7531,4.7933,4.8435,4.9012,4.9439,4.959,4.959,4.959,4.959,4.959,4.959,4.959,4.9886,5.1455,5.2284,5.3157,5.5185,5.6193,5.6723,5.7187,5.7384,5.7117,5.5732,5.5406,5.5233,5.4819,5.4926,5.5179,5.5179,5.5179,5.5179,5.5179,5.5179,5.5179,5.5179,5.5179,5.5179,5.5179,5.5179,5.5179,5.5179,5.5179,5.5179,5.5179,5.5179,5.5179,5.5179,5.5179,5.5179,5.5179,5.5179,5.5179,5.5179,5.5179,5.5179,5.5179,5.5179,5.5179,5.5179,5.5179,5.5179,3.6867,3.8334,3.9946,4.1509,4.2904,4.3997,4.4573,4.4693,4.4765,4.5053,4.5573,4.5934,4.615,4.6856,4.7509,4.7997,4.8718,4.9213,4.9213,4.9439,4.959,4.959,4.959,4.959,4.959,4.959,4.959,4.959,4.959,4.959,4.959,4.959,4.9464,4.9163,4.8912,4.8636,4.8309,4.8033,4.8058,4.8309,4.8309,4.8309,4.8284,4.7506,4.6979,4.6702,4.6426,4.6301,4.6301,4.6301,4.6652,4.7118,4.7707,4.8259,4.8837,4.9389,4.959,4.959,4.959,4.959,4.959,4.959,4.959,4.995,5.1891,5.2507,5.3052,5.5563,5.6334,5.6549,5.7158,5.7416,5.7236,5.5761,5.5694,5.5722,5.4746,5.4926,5.5179,5.5179,5.5179,5.5179,5.5179,5.5179,5.5179,5.5179,5.5179,5.5179,5.5179,5.5179,5.5179,5.5179,5.5179,5.5179,5.5179,5.5179,5.5179,5.5179,5.5179,5.5179,5.5179,5.5179,5.5179,5.5179,5.5179,5.5179,5.5179,5.5179,5.5179,5.5179,5.5179,5.5179,3.7204,3.896,4.0884,4.3,4.3938,4.4285,4.4285,4.4285,4.4285,4.4285,4.4981,4.5549,4.5125,4.5983,4.6767,4.6865,4.783,4.8573,4.8611,4.9012,4.9314,4.9314,4.9314,4.9314,4.9314,4.9314,4.9314,4.9314,4.9314,4.9314,4.9314,4.9314,4.9314,4.9314,4.8862,4.8611,4.8611,4.8159,4.8159,4.8636,4.8711,4.8812,4.8887,4.7883,4.7305,4.7043,4.6552,4.6301,4.6301,4.6301,4.6577,4.7054,4.7556,4.8134,4.8686,4.9238,4.9515,4.959,4.959,4.959,4.959,4.959,4.959,5.0078,5.2719,5.3016,5.317,5.6394,5.6868,5.6549,5.7158,5.7303,5.6984,5.5707,5.6011,5.6137,5.465,5.4743,5.5179,5.5179,5.5179,5.5179,5.5179,5.5179,5.5179,5.5179,5.5179,5.5179,5.5179,5.5179,5.5179,5.5179,5.5179,5.5179,5.5179,5.5179,5.5179,5.5179,5.5179,5.5179,5.5179,5.5179,5.5179,5.5179,5.5179,5.5179,5.5179,5.5179,5.5179,5.5179,5.5179,5.5179,3.5761,3.8118,4.0884,4.3,4.3938,4.4285,4.4285,4.4285,4.4285,4.4285,4.4405,4.4621,4.5005,4.5503,4.6075,4.6792,4.7318,4.772,4.7971,4.8083,4.8134,4.8134,4.8134,4.8134,4.8134,4.8134,4.8134,4.8134,4.8134,4.8134,4.8134,4.8134,4.8134,4.8134,4.8058,4.8033,4.8033,4.7933,4.7933,4.8033,4.8535,4.9012,4.9464,4.8837,4.8033,4.7043,4.6552,4.6301,4.6301,4.6301,4.6351,4.6476,4.7029,4.7556,4.8083,4.8661,4.9188,4.959,4.959,4.959,4.959,4.959,4.959,5.0078,5.2719,5.3016,5.317,5.6394,5.6868,5.6549,5.7158,5.7303,5.6984,5.5707,5.5659,5.563,5.4517,5.4743,5.5179,5.5179,5.5179,5.5179,5.5179,5.5179,5.5179,5.5179,5.5179,5.5179,5.5179,5.5179,5.5179,5.5179,5.5179,5.5179,5.5179,5.5179,5.5179,5.5179,5.5179,5.5179,5.5179,5.5179,5.5179,5.5179,5.5179,5.5179,5.5179,5.5179,5.5179,5.5179,5.5179,5.5179,3.7372,3.9104,4.0884,4.3,4.3697,4.3962,4.4213,4.4285,4.4285,4.4285,4.4285,4.4357,4.4597,4.4933,4.5378,4.5932,4.6538,4.7109,4.7419,4.7732,4.7908,4.7908,4.7908,4.7908,4.7908,4.7908,4.7908,4.7908,4.7908,4.7908,4.7908,4.7908,4.7908,4.7908,4.7631,4.7481,4.7481,4.7154,4.7154,4.7481,4.8033,4.8586,4.9113,4.856,4.8033,4.7531,4.7004,4.6602,4.6301,4.6301,4.6301,4.6376,4.6928,4.728,4.7531,4.8083,4.8435,4.8686,4.9012,4.9138,4.9188,4.949,4.959,5.0078,5.2719,5.2799,5.2705,5.5906,5.6084,5.5474,5.6084,5.6258,5.6026,5.5126,5.5109,5.5113,5.4458,5.4641,5.5027,5.5179,5.5179,5.5179,5.5179,5.5179,5.5179,5.5179,5.5179,5.5179,5.5179,5.5179,5.5179,5.5179,5.5179,5.5179,5.5179,5.5179,5.5179,5.5179,5.5179,5.5179,5.5179,5.5179,5.5179,5.5179,5.5179,5.5179,5.5179,5.5179,5.5179,5.5179,5.5179,5.5179,3.8142,3.9176,4.009,4.2206,4.3024,4.3457,4.3949,4.4189,4.4285,4.4285,4.4285,4.4285,4.4285,4.447,4.4779,4.5147,4.5798,4.6377,4.6745,4.7193,4.7506,4.7506,4.7506,4.7506,4.7506,4.7506,4.7506,4.7506,4.7506,4.7506,4.7506,4.7506,4.7506,4.7506,4.7129,4.6928,4.6928,4.6527,4.6602,4.7068,4.7531,4.8008,4.8535,4.8259,4.8058,4.7883,4.7355,4.6842,4.6502,4.6376,4.6301,4.6351,4.6753,4.7004,4.7179,4.7581,4.7782,4.7958,4.841,4.856,4.8636,4.9213,4.9289,4.9698,5.2612,5.261,5.2322,5.5504,5.5591,5.4836,5.53,5.5416,5.5242,5.4662,5.4677,5.4738,5.4451,5.4671,5.4955,5.5128,5.5179,5.5179,5.5179,5.5179,5.5179,5.5179,5.5179,5.5179,5.5179,5.5179,5.5179,5.5179,5.5179,5.5179,5.5179,5.5179,5.5179,5.5179,5.5179,5.5179,5.5179,5.5179,5.5179,5.5179,5.5179,5.5179,5.5179,5.5179,5.5179,5.5179,5.5179,5.5179,3.6122,3.6964,3.7878,4.0018,4.1677,4.2928,4.3433,4.3901,4.4285,4.4285,4.4285,4.4285,4.4285,4.4285,4.4409,4.4779,4.511,4.5502,4.5806,4.6195,4.6401,4.6401,4.6401,4.6401,4.6401,4.6401,4.6401,4.6401,4.6401,4.6401,4.6401,4.6401,4.6401,4.6401,4.6376,4.6351,4.6351,4.6326,4.6602,4.7068,4.7093,4.7431,4.7983,4.8485,4.8435,4.7883,4.7355,4.7043,4.6993,4.6527,4.6301,4.6301,4.6351,4.6677,4.7068,4.7093,4.7481,4.7908,4.7933,4.7958,4.8058,4.8636,4.8435,4.8683,5.2372,5.2642,5.2325,5.5504,5.591,5.5358,5.5387,5.5416,5.5242,5.4662,5.4517,5.4555,5.4746,5.5006,5.5179,5.5179,5.5179,5.5179,5.5179,5.5179,5.5179,5.5179,5.5179,5.5179,5.5179,5.5179,5.5179,5.5179,5.5179,5.5179,5.5179,5.5179,5.5179,5.5179,5.5179,5.5179,5.5179,5.5179,5.5179,5.5179,5.5179,5.5179,5.5179,5.5179,5.5179,5.5179,5.5179,5.5179,3.5473,3.629,3.7204,3.9345,4.0571,4.1461,4.2327,4.2928,4.3337,4.3337,4.3577,4.3818,4.3818,4.4045,4.4409,4.4779,4.5086,4.5392,4.5757,4.6059,4.6301,4.6301,4.6301,4.6301,4.6301,4.6301,4.6301,4.6301,4.6301,4.6301,4.6301,4.6301,4.6301,4.6301,4.6301,4.6301,4.6301,4.6301,4.6401,4.6602,4.6602,4.6903,4.7405,4.7631,4.7782,4.7908,4.7707,4.7431,4.7129,4.6928,4.6627,4.6301,4.6301,4.6426,4.6602,4.6602,4.6728,4.6928,4.728,4.7405,4.7506,4.8033,4.8335,4.9013,5.1997,5.2588,5.2818,5.5619,5.5649,5.4836,5.4836,5.4517,5.4255,5.4458,5.4914,5.5387,5.5712,5.547,5.5179,5.5179,5.5179,5.5179,5.5179,5.5179,5.5179,5.5179,5.5179,5.5179,5.5179,5.5568,5.5807,5.5807,5.6166,5.6406,5.6406,5.6406,5.6226,5.5837,5.5807,5.5628,5.5209,5.5179,5.5179,5.5179,5.5179,5.5179,5.5179,5.5179,5.5179,5.5179,5.5179,5.5179,3.4294,3.5208,3.6338,3.831,3.92,3.9946,4.1389,4.199,4.2338,4.2506,4.2904,4.3313,4.3481,4.3818,4.4192,4.457,4.4902,4.527,4.5574,4.5939,4.618,4.6301,4.6301,4.6301,4.6301,4.6301,4.6301,4.6301,4.6301,4.6301,4.6301,4.6301,4.6301,4.6301,4.6301,4.6301,4.6301,4.6301,4.6301,4.6301,4.6301,4.6502,4.6853,4.6993,4.733,4.7657,4.7832,4.7707,4.738,4.7143,4.6928,4.6577,4.6376,4.6301,4.6301,4.6301,4.6301,4.6351,4.6728,4.6853,4.6954,4.7481,4.7908,4.8759,5.1737,5.2425,5.2787,5.5619,5.5649,5.4807,5.4807,5.4487,5.4255,5.472,5.5313,5.5874,5.6089,5.5916,5.5735,5.5837,5.5837,5.5748,5.5568,5.5688,5.5748,5.5568,5.5688,5.5837,5.5837,5.6226,5.6466,5.6466,5.6855,5.7094,5.7094,5.7094,5.6915,5.6496,5.6466,5.6196,5.5538,5.5538,5.5418,5.5179,5.5179,5.5179,5.5179,5.5179,5.5179,5.5179,5.5179,5.5179,0.0,0.0,0.0,3.6723,3.7517,3.8455,4.0571,4.1052,4.122,4.1774,4.2362,4.2832,4.3361,4.3481,4.3673,4.4141,4.457,4.4902,4.527,4.5574,4.5939,4.624,4.6301,4.6301,4.6301,4.6301,4.6301,4.6301,4.6301,4.6301,4.6301,4.6301,4.6301,4.6301,4.6301,4.6301,4.6301,4.6301,4.6301,4.6301,4.6301,4.6301,4.6326,4.6853,4.7043,4.7129,4.7657,4.7883,4.7857,4.7355,4.7093,4.7018,4.6552,4.6326,4.6301,4.6301,4.6301,4.6301,4.6301,4.6301,4.6401,4.6954,4.7093,4.7821,5.1496,5.2181,5.238,5.5533,5.5913,5.5391,5.5416,5.5416,5.5445,5.5445,5.5663,5.5879,5.5879,5.6338,5.6816,5.7042,5.7094,5.6885,5.6368,5.6705,5.6885,5.6286,5.6705,5.7094,5.7094,5.7124,5.7124,5.7124,5.7154,5.7154,5.7154,5.7154,5.7154,5.7124,5.7124,5.6855,5.6226,5.6248,5.5897,5.5239,5.5209,5.5209,5.5179,5.5179,5.5179,5.5179,5.5179,5.5179,3.1837,0.0,0.0,0.0,0.0,0.0,3.7493,3.8022,3.8671,3.9994,4.0379,4.0884,4.2158,4.2711,4.3024,4.3168,4.4086,4.4902,4.527,4.5574,4.5939,4.624,4.6301,4.6301,4.6301,4.6301,4.6301,4.6301,4.6301,4.6301,4.6301,4.6301,4.6301,4.6301,4.6301,4.6301,4.6301,4.6301,4.6301,4.6301,4.6301,4.6301,4.6326,4.6476,4.6552,4.6577,4.7104,4.7355,4.7355,4.7606,4.7481,4.7129,4.6979,4.6652,4.6301,4.6301,4.6301,4.6301,4.6301,4.6301,4.6401,4.6954,4.738,4.8277,5.1629,5.2091,5.2332,5.6023,5.5934,5.4827,5.5285,5.5765,5.6142,5.6142,5.6517,5.6948,5.717,5.75,5.7562,5.6964,5.6967,5.7034,5.6855,5.6974,5.7034,5.6855,5.6974,5.7094,5.7094,5.7513,5.7842,5.7842,5.8261,5.856,5.856,5.856,5.8351,5.7872,5.7842,5.7543,5.6855,5.6825,5.6555,5.5927,5.5897,5.5658,5.5179,5.5179,5.5179,5.5179,5.5179,5.5179,0.0,0.0,0.0,0.0,0.0,0.0,3.6459,3.6795,3.7324,3.8936,3.9465,3.9946,4.11,4.1749,4.2241,4.2458,4.3325,4.4196,4.4877,4.5305,4.5757,4.624,4.6301,4.6301,4.6301,4.6301,4.6301,4.6301,4.6301,4.6301,4.6301,4.6301,4.6301,4.6301,4.6301,4.6301,4.6301,4.6301,4.6301,4.6301,4.6301,4.6301,4.6301,4.6301,4.6301,4.6326,4.6652,4.6928,4.7093,4.7456,4.7531,4.7431,4.723,4.6928,4.6627,4.6401,4.6301,4.6301,4.6301,4.6301,4.6401,4.6954,4.7481,4.8429,5.1329,5.1716,5.1838,5.4882,5.514,5.4827,5.5923,5.649,5.6781,5.6781,5.7042,5.736,5.7528,5.7836,5.7934,5.7576,5.7749,5.7842,5.7573,5.7752,5.7842,5.7573,5.7752,5.7932,5.7932,5.8291,5.853,5.853,5.889,5.9099,5.9099,5.9099,5.8949,5.856,5.853,5.8231,5.7543,5.7513,5.7214,5.6555,5.6368,5.5837,5.5179,5.5179,5.5179,5.5179,5.5179,5.5179,0.0,0.0,0.0,0.0,3.4342,0.0,3.629,3.6435,3.6651,3.8166,3.8839,3.9369,3.9994,4.0571,4.1052,4.1461,4.2193,4.3046,4.4252,4.4913,4.544,4.618,4.624,4.6276,4.6225,4.6276,4.6276,4.6225,4.6276,4.6301,4.6301,4.6301,4.6301,4.6301,4.6301,4.6301,4.6301,4.6301,4.6301,4.6301,4.6301,4.6301,4.6301,4.6301,4.6301,4.6301,4.6301,4.6602,4.7054,4.7043,4.7431,4.7857,4.733,4.7068,4.7079,4.6527,4.6301,4.6301,4.6301,4.6301,4.6401,4.6954,4.7431,4.8241,5.0724,5.1003,5.0803,5.2925,5.4006,5.5026,5.6848,5.7303,5.7303,5.7303,5.7303,5.7303,5.7303,5.7557,5.7948,5.8529,5.8828,5.8865,5.8297,5.8656,5.8919,5.8321,5.874,5.9099,5.9099,5.9099,5.9099,5.9099,5.9099,5.9099,5.9099,5.9099,5.9099,5.9099,5.9099,5.883,5.8261,5.8231,5.7902,5.7214,5.6526,5.5837,5.5179,5.5179,5.5179,5.5179,5.5179,5.5179,0.0,0.0,0.0,0.0,3.415,0.0,3.3693,3.4318,3.5303,3.6098,3.6314,3.6819,3.819,3.8912,3.9152,3.8815,4.0306,4.2141,4.3855,4.4448,4.4935,4.5828,4.612,4.6125,4.5698,4.605,4.6125,4.5673,4.6075,4.6301,4.6301,4.6301,4.6301,4.6301,4.6301,4.6301,4.6301,4.6301,4.6301,4.6301,4.6301,4.6301,4.6301,4.6301,4.6301,4.6301,4.6301,4.6376,4.6502,4.6892,4.7431,4.7857,4.733,4.7068,4.7079,4.6527,4.6301,4.6301,4.6301,4.6301,4.6401,4.6954,4.7143,4.7662,4.9628,4.9438,4.904,5.1993,5.368,5.5026,5.6848,5.7303,5.7303,5.7303,5.7303,5.7303,5.7303,5.7557,5.7836,5.7948,5.839,5.8743,5.8624,5.8847,5.9069,5.8919,5.9009,5.9099,5.9099,5.9099,5.9099,5.9099,5.9099,5.9099,5.9099,5.9099,5.9099,5.9099,5.9099,5.9039,5.8919,5.8919,5.859,5.7932,5.6765,5.5837,5.5179,5.5179,5.5179,5.5179,5.5179,5.5179,0.0,0.0,0.0,3.3789,3.4054,0.0,0.0,3.3861,3.4438,3.5737,3.5593,3.5617,3.694,3.7421,3.7613,3.7589,3.9176,4.082,4.2031,4.3291,4.4319,4.4913,4.5295,4.5372,4.507,4.5296,4.5472,4.5497,4.5999,4.6301,4.6301,4.6301,4.6301,4.6301,4.6301,4.6301,4.6301,4.6301,4.6301,4.6301,4.6301,4.6301,4.6301,4.6301,4.6301,4.6301,4.6301,4.6301,4.6326,4.6602,4.7054,4.7481,4.7168,4.728,4.7431,4.6602,4.6301,4.6301,4.6301,4.6301,4.6401,4.6954,4.7068,4.7424,4.8902,4.8773,4.8601,5.1411,5.2712,5.3802,5.6592,5.7303,5.7303,5.7303,5.7303,5.7303,5.7303,5.7416,5.7528,5.7528,5.7948,5.8335,5.8639,5.8773,5.8936,5.9045,5.9099,5.9099,5.9099,5.9099,5.9099,5.9099,5.9099,5.9099,5.9099,5.9099,5.9099,5.9099,5.9099,5.9099,5.9099,5.9099,5.88,5.8141,5.7483,5.6675,5.5688,5.5987,5.5807,5.5179,5.5179,5.5359,0.0,0.0,3.5255,3.4751,3.4366,3.4078,0.0,0.0,0.0,3.5352,3.5064,3.4799,3.5641,3.5881,3.6098,3.6507,3.8022,3.9296,3.9705,4.159,4.3044,4.3655,4.417,4.4427,4.4227,4.4159,4.4468,4.5271,4.5623,4.5924,4.6125,4.625,4.6301,4.6301,4.6301,4.6301,4.6301,4.6301,4.6301,4.6301,4.6301,4.6301,4.6301,4.6301,4.6301,4.6301,4.6301,4.6301,4.6301,4.6301,4.6652,4.7068,4.7029,4.728,4.7631,4.6677,4.6301,4.6301,4.6301,4.6301,4.6376,4.6828,4.6979,4.7136,4.8112,4.8151,4.8486,5.1076,5.1863,5.2801,5.6336,5.7303,5.7303,5.7303,5.7303,5.7303,5.7303,5.7303,5.7303,5.7303,5.7528,5.7892,5.85,5.8694,5.8803,5.9045,5.9099,5.9099,5.9099,5.9099,5.9099,5.9099,5.9099,5.9099,5.9099,5.9099,5.9099,5.9099,5.9099,5.9099,5.9099,5.9099,5.88,5.8141,5.8112,5.7543,5.6346,5.6855,5.6496,5.5388,5.5508,5.5837,0.0,0.0,3.706,3.4655,3.5449,3.593,3.2801,0.0,3.3718,3.3092,0.0,3.3501,3.3621,0.0,0.0,3.4342,3.6122,3.7493,3.7541,3.8873,4.033,4.1826,4.3292,4.3863,4.2892,4.2624,4.3062,4.4593,4.4317,4.4518,4.5522,4.605,4.6301,4.6301,4.6301,4.6301,4.6301,4.6301,4.6301,4.6301,4.6301,4.6301,4.6301,4.6301,4.6301,4.6301,4.6301,4.6301,4.6301,4.6301,4.6652,4.7018,4.6602,4.6753,4.7154,4.6527,4.6301,4.6301,4.6301,4.6301,4.6326,4.6376,4.6401,4.6401,4.6582,4.6859,4.786,5.0917,5.2131,5.3265,5.645,5.7303,5.7303,5.7303,5.7303,5.7303,5.7303,5.7303,5.7303,5.7303,5.7303,5.7528,5.814,5.85,5.8803,5.9045,5.9099,5.9099,5.9099,5.9099,5.9099,5.9099,5.9099,5.9099,5.9099,5.9099,5.9099,5.9099,5.9099,5.9099,5.9099,5.9099,5.88,5.8141,5.8112,5.7752,5.7004,5.7064,5.6735,5.6128,5.6615,5.6915,0.0,0.0,3.7108,3.54,3.54,3.5256,3.3092,3.2635,3.2707,3.2923,0.0,0.0,0.0,0.0,0.0,0.0,3.5112,3.617,3.5857,3.738,3.9086,4.0536,4.0924,4.1285,4.1648,4.1998,4.264,4.3589,4.3463,4.3664,4.4468,4.5347,4.5824,4.5824,4.615,4.6301,4.6301,4.6301,4.6301,4.6301,4.6301,4.6301,4.6301,4.6301,4.6301,4.6301,4.6301,4.6301,4.6301,4.6301,4.6451,4.6627,4.6401,4.6652,4.7079,4.6527,4.6301,4.6301,4.6301,4.6301,4.6301,4.6301,4.6301,4.6301,4.6301,4.6702,4.7755,5.0944,5.2158,5.3347,5.6479,5.7303,5.7303,5.7303,5.7303,5.7303,5.7303,5.7303,5.7303,5.7303,5.7303,5.7472,5.8085,5.8335,5.8555,5.9045,5.9099,5.9099,5.9099,5.9099,5.9099,5.9099,5.9099,5.9099,5.9099,5.9099,5.9099,5.9099,5.9099,5.9099,5.9099,5.9099,5.8979,5.871,5.868,5.8351,5.7693,5.8082,5.7932,5.7304,5.7154,5.7304,3.7012,3.7348,3.7469,3.5809,3.5232,3.4655,3.3188,3.2563,3.2491,3.3164,3.2996,0.0,0.0,0.0,0.0,0.0,0.0,3.5207,3.4823,3.6146,3.7573,3.865,3.8774,3.9336,4.0744,4.101,4.1497,4.2349,4.2258,4.2509,4.3514,4.4644,4.5321,4.5472,4.6024,4.6301,4.6301,4.6301,4.6301,4.6301,4.6301,4.6301,4.6301,4.6301,4.6301,4.6301,4.6301,4.6301,4.6301,4.6301,4.6301,4.6301,4.6301,4.6552,4.6853,4.6451,4.6301,4.6301,4.6301,4.6301,4.6301,4.6301,4.6301,4.6301,4.6301,4.6702,4.7755,5.0944,5.2158,5.3347,5.6479,5.7303,5.7303,5.7303,5.7303,5.7303,5.7303,5.7303,5.7303,5.7303,5.7303,5.7472,5.8085,5.8195,5.8415,5.8991,5.9099,5.9099,5.9099,5.9099,5.9099,5.9099,5.9099,5.9099,5.9099,5.9099,5.9099,5.9099,5.9099,5.9099,5.9099,5.9099,5.9099,5.9099,5.9099,5.886,5.8411,5.886,5.886,5.8381,5.7872,5.7902,3.8214,3.8719,3.8767,3.5591,3.5232,3.4919,3.2343,3.2875,3.379,3.338,3.4463,3.5352,3.4823,0.0,0.0,0.0,0.0,0.0,0.0,3.4847,3.5136,3.5665,3.7394,3.9018,4.0395,3.9275,3.9183,4.0823,4.0242,4.0727,4.2886,4.4041,4.492,4.5472,4.6024,4.6301,4.6301,4.6301,4.6301,4.6301,4.6301,4.6301,4.6301,4.6301,4.6301,4.6301,4.6301,4.6301,4.6301,4.6301,4.6301,4.6301,4.6301,4.6326,4.6326,4.6326,4.6301,4.6301,4.6301,4.6301,4.6301,4.6301,4.6301,4.6301,4.6301,4.6702,4.7755,5.0944,5.2158,5.3347,5.6479,5.7303,5.7303,5.7303,5.7303,5.7303,5.7303,5.7303,5.7303,5.7303,5.7303,5.7472,5.8085,5.8195,5.8415,5.8991,5.9099,5.9099,5.9099,5.9099,5.9099,5.9099,5.9099,5.9099,5.9099,5.9099,5.9099,5.9099,5.9099,5.9099,5.9099,5.9099,5.9099,5.9099,5.9099,5.9099,5.9069,5.9099,5.9099,5.9069,5.9039,5.9069,3.9726,4.0001,3.9788,3.7345,3.6418,3.5545,3.326,3.3404,3.3862,3.3404,3.4535,3.5449,0.0,0.0,0.0,0.0,0.0,0.0,0.0,3.3813,3.4126,3.4943,3.6785,3.8038,3.8142,3.8627,3.9208,3.978,3.9742,4.0174,4.1279,4.2735,4.379,4.4367,4.5271,4.5949,4.6301,4.6301,4.6301,4.6301,4.6301,4.6301,4.6301,4.6301,4.6301,4.6301,4.6301,4.6301,4.6301,4.6301,4.6301,4.6301,4.6301,4.6301,4.6301,4.6301,4.6301,4.6301,4.6301,4.6301,4.6301,4.6301,4.6301,4.6301,4.6301,4.7256,4.8789,5.1152,5.2828,5.4366,5.6706,5.7303,5.7303,5.7303,5.7303,5.7303,5.7303,5.7303,5.7303,5.7303,5.7303,5.7416,5.7892,5.8085,5.8415,5.8991,5.9099,5.9099,5.9099,5.9099,5.9099,5.9099,5.9099,5.9099,5.9099,5.9099,5.9099,5.9099,5.9099,5.9099,5.9099,5.9099,5.9099,5.9099,5.9099,5.9099,5.9099,5.9099,5.9099,5.9099,5.9099,5.9099,4.0616,4.0722,4.0532,3.8473,3.7564,3.6635,3.4607,3.4799,3.5304,3.4775,3.5785,3.6699,0.0,0.0,0.0,0.0,0.0,0.0,0.0,3.3164,3.3597,3.439,3.579,0.0,0.0,3.7687,3.8336,3.9208,3.8992,3.9295,4.045,4.1907,4.2936,4.3489,4.4794,4.5673,4.6024,4.62,4.6301,4.6301,4.6301,4.6301,4.6301,4.6301,4.6301,4.6301,4.6301,4.6301,4.6301,4.6301,4.6301,4.6301,4.6301,4.6301,4.6301,4.6301,4.6301,4.6301,4.6301,4.6301,4.6301,4.6301,4.6301,4.6301,4.6301,4.7069,4.841,5.0537,5.1964,5.345,5.5965,5.6651,5.6765,5.7191,5.7303,5.7303,5.7303,5.7303,5.7303,5.7303,5.7303,5.7416,5.7725,5.7948,5.828,5.8882,5.9045,5.9099,5.9099,5.9099,5.9099,5.9099,5.9099,5.9099,5.9099,5.9099,5.9099,5.9099,5.9099,5.9099,5.9099,5.9099,5.9099,5.9099,5.9099,5.9099,5.9099,5.9099,5.9099,5.9099,5.9099,5.9099]}]]